Wetterdaten: Donnerstag, 23.02.2023
Datum Zeit Temp. 2m Temp +5 cm Feuchte A. Luftdruck Regen Wind Richtung Richtung Sonnenschein UV Solar Taupunkt Windchill Windben
23.02.2023 00:00 7,3 C 6,7 C 91 % 1014,2 hPa 0,0 l/m 4,8 km/h (1 Bft) S 180 0 min 0,0 UV-I 0 W/m 5,9 C 7,3 C 8,0 km/h (2 Bft)
23.02.2023 00:01 7,3 C 6,7 C 91 % 1014,3 hPa 0,0 l/m 3,2 km/h (1 Bft) S 180 0 min 0,0 UV-I 0 W/m 5,9 C 7,3 C 6,4 km/h (2 Bft)
23.02.2023 00:02 7,3 C 6,7 C 91 % 1014,3 hPa 0,0 l/m 3,2 km/h (1 Bft) S 180 0 min 0,0 UV-I 0 W/m 5,9 C 7,3 C 8,0 km/h (2 Bft)
23.02.2023 00:03 7,3 C 6,7 C 91 % 1014,3 hPa 0,0 l/m 4,8 km/h (1 Bft) S 180 0 min 0,0 UV-I 0 W/m 5,9 C 7,3 C 8,0 km/h (2 Bft)
23.02.2023 00:04 7,3 C 6,7 C 91 % 1014,3 hPa 0,0 l/m 3,2 km/h (1 Bft) S 180 0 min 0,0 UV-I 0 W/m 5,9 C 7,3 C 6,4 km/h (2 Bft)
23.02.2023 00:05 7,3 C 6,7 C 91 % 1014,2 hPa 0,0 l/m 3,2 km/h (1 Bft) S 180 0 min 0,0 UV-I 0 W/m 5,9 C 7,3 C 6,4 km/h (2 Bft)
23.02.2023 00:06 7,3 C 6,7 C 91 % 1014,4 hPa 0,0 l/m 3,2 km/h (1 Bft) S 180 0 min 0,0 UV-I 0 W/m 5,9 C 7,3 C 6,4 km/h (2 Bft)
23.02.2023 00:07 7,3 C 6,7 C 91 % 1014,3 hPa 0,0 l/m 3,2 km/h (1 Bft) S 180 0 min 0,0 UV-I 0 W/m 5,9 C 7,3 C 6,4 km/h (2 Bft)
23.02.2023 00:08 7,3 C 6,7 C 91 % 1014,4 hPa 0,0 l/m 3,2 km/h (1 Bft) S 180 0 min 0,0 UV-I 0 W/m 5,9 C 7,3 C 6,4 km/h (2 Bft)
23.02.2023 00:09 7,3 C 6,7 C 91 % 1014,3 hPa 0,0 l/m 3,2 km/h (1 Bft) S 180 0 min 0,0 UV-I 0 W/m 5,9 C 7,3 C 6,4 km/h (2 Bft)
23.02.2023 00:10 7,3 C 6,7 C 91 % 1014,3 hPa 0,0 l/m 1,6 km/h (1 Bft) S 180 0 min 0,0 UV-I 0 W/m 5,9 C 7,3 C 3,2 km/h (1 Bft)
23.02.2023 00:11 7,3 C 6,7 C 91 % 1014,2 hPa 0,0 l/m 4,8 km/h (1 Bft) S 180 0 min 0,0 UV-I 0 W/m 5,9 C 7,3 C 8,0 km/h (2 Bft)
23.02.2023 00:12 7,3 C 6,7 C 91 % 1014,2 hPa 0,0 l/m 1,6 km/h (1 Bft) S 180 0 min 0,0 UV-I 0 W/m 5,9 C 7,3 C 3,2 km/h (1 Bft)
23.02.2023 00:13 7,3 C 6,7 C 91 % 1014,3 hPa 0,0 l/m 3,2 km/h (1 Bft) S 180 0 min 0,0 UV-I 0 W/m 5,9 C 7,3 C 6,4 km/h (2 Bft)
23.02.2023 00:14 7,3 C 6,7 C 91 % 1014,3 hPa 0,0 l/m 3,2 km/h (1 Bft) S 180 0 min 0,0 UV-I 0 W/m 5,9 C 7,3 C 6,4 km/h (2 Bft)
23.02.2023 00:15 7,3 C 6,7 C 91 % 1014,2 hPa 0,0 l/m 1,6 km/h (1 Bft) S 180 0 min 0,0 UV-I 0 W/m 5,9 C 7,3 C 3,2 km/h (1 Bft)
23.02.2023 00:16 7,3 C 6,7 C 91 % 1014,3 hPa 0,0 l/m 3,2 km/h (1 Bft) S 180 0 min 0,0 UV-I 0 W/m 5,9 C 7,3 C 6,4 km/h (2 Bft)
23.02.2023 00:17 7,3 C 6,7 C 91 % 1014,2 hPa 0,0 l/m 4,8 km/h (1 Bft) S 180 0 min 0,0 UV-I 0 W/m 5,9 C 7,3 C 8,0 km/h (2 Bft)
23.02.2023 00:18 7,3 C 6,7 C 91 % 1014,2 hPa 0,0 l/m 3,2 km/h (1 Bft) S 180 0 min 0,0 UV-I 0 W/m 5,9 C 7,3 C 4,8 km/h (1 Bft)
23.02.2023 00:19 7,3 C 6,7 C 91 % 1014,2 hPa 0,0 l/m 3,2 km/h (1 Bft) S 180 0 min 0,0 UV-I 0 W/m 5,9 C 7,3 C 4,8 km/h (1 Bft)
23.02.2023 00:20 7,3 C 6,7 C 91 % 1014,2 hPa 0,0 l/m 3,2 km/h (1 Bft) S 180 0 min 0,0 UV-I 0 W/m 5,9 C 7,3 C 4,8 km/h (1 Bft)
23.02.2023 00:21 7,3 C 6,7 C 91 % 1014,2 hPa 0,0 l/m 4,8 km/h (1 Bft) S 180 0 min 0,0 UV-I 0 W/m 5,9 C 7,3 C 6,4 km/h (2 Bft)
23.02.2023 00:22 7,3 C 6,7 C 91 % 1014,2 hPa 0,0 l/m 4,8 km/h (1 Bft) S 180 0 min 0,0 UV-I 0 W/m 5,9 C 7,3 C 6,4 km/h (2 Bft)
23.02.2023 00:23 7,3 C 6,7 C 91 % 1014,1 hPa 0,0 l/m 4,8 km/h (1 Bft) S 180 0 min 0,0 UV-I 0 W/m 5,9 C 7,3 C 6,4 km/h (2 Bft)
23.02.2023 00:24 7,3 C 6,7 C 91 % 1014,2 hPa 0,0 l/m 3,2 km/h (1 Bft) S 180 0 min 0,0 UV-I 0 W/m 5,9 C 7,3 C 6,4 km/h (2 Bft)
23.02.2023 00:25 7,3 C 6,7 C 91 % 1014,1 hPa 0,0 l/m 3,2 km/h (1 Bft) S 180 0 min 0,0 UV-I 0 W/m 5,9 C 7,3 C 4,8 km/h (1 Bft)
23.02.2023 00:26 7,3 C 6,7 C 91 % 1014,2 hPa 0,0 l/m 4,8 km/h (1 Bft) S 180 0 min 0,0 UV-I 0 W/m 5,9 C 7,3 C 8,0 km/h (2 Bft)
23.02.2023 00:27 7,3 C 6,7 C 91 % 1014,2 hPa 0,0 l/m 4,8 km/h (1 Bft) S-SW 202 0 min 0,0 UV-I 0 W/m 5,9 C 7,3 C 6,4 km/h (2 Bft)
23.02.2023 00:28 7,3 C 6,7 C 91 % 1014,2 hPa 0,0 l/m 4,8 km/h (1 Bft) S-SW 202 0 min 0,0 UV-I 0 W/m 5,9 C 7,3 C 8,0 km/h (2 Bft)
23.02.2023 00:29 7,3 C 6,7 C 91 % 1014,1 hPa 0,0 l/m 4,8 km/h (1 Bft) S-SW 202 0 min 0,0 UV-I 0 W/m 5,9 C 7,3 C 6,4 km/h (2 Bft)
23.02.2023 00:30 7,3 C 6,7 C 91 % 1014,1 hPa 0,0 l/m 4,8 km/h (1 Bft) S-SW 202 0 min 0,0 UV-I 0 W/m 5,9 C 7,3 C 6,4 km/h (2 Bft)
23.02.2023 00:31 7,3 C 6,7 C 91 % 1014,2 hPa 0,2 l/m 3,2 km/h (1 Bft) S-SW 202 0 min 0,0 UV-I 0 W/m 5,9 C 7,3 C 4,8 km/h (1 Bft)
23.02.2023 00:32 7,3 C 6,7 C 91 % 1014,1 hPa 0,0 l/m 4,8 km/h (1 Bft) S-SW 202 0 min 0,0 UV-I 0 W/m 5,9 C 7,3 C 4,8 km/h (1 Bft)
23.02.2023 00:33 7,3 C 6,7 C 91 % 1014,1 hPa 0,0 l/m 4,8 km/h (1 Bft) S-SW 202 0 min 0,0 UV-I 0 W/m 5,9 C 7,3 C 4,8 km/h (1 Bft)
23.02.2023 00:34 7,3 C 6,7 C 91 % 1014,1 hPa 0,0 l/m 4,8 km/h (1 Bft) S-SW 202 0 min 0,0 UV-I 0 W/m 5,9 C 7,3 C 4,8 km/h (1 Bft)
23.02.2023 00:35 7,3 C 6,7 C 91 % 1014,2 hPa 0,0 l/m 3,2 km/h (1 Bft) S-SW 202 0 min 0,0 UV-I 0 W/m 5,9 C 7,3 C 4,8 km/h (1 Bft)
23.02.2023 00:36 7,2 C 6,7 C 91 % 1014,2 hPa 0,0 l/m 3,2 km/h (1 Bft) S-SW 202 0 min 0,0 UV-I 0 W/m 5,8 C 7,2 C 4,8 km/h (1 Bft)
23.02.2023 00:37 7,2 C 6,7 C 92 % 1014,1 hPa 0,0 l/m 4,8 km/h (1 Bft) S-SW 202 0 min 0,0 UV-I 0 W/m 6,0 C 7,2 C 6,4 km/h (2 Bft)
23.02.2023 00:38 7,2 C 6,7 C 92 % 1014,2 hPa 0,0 l/m 4,8 km/h (1 Bft) S-SW 202 0 min 0,0 UV-I 0 W/m 6,0 C 7,2 C 6,4 km/h (2 Bft)
23.02.2023 00:39 7,2 C 6,7 C 92 % 1014,2 hPa 0,0 l/m 4,8 km/h (1 Bft) S-SW 202 0 min 0,0 UV-I 0 W/m 6,0 C 7,2 C 6,4 km/h (2 Bft)
23.02.2023 00:40 7,2 C 6,7 C 92 % 1014,2 hPa 0,0 l/m 3,2 km/h (1 Bft) S-SW 202 0 min 0,0 UV-I 0 W/m 6,0 C 7,2 C 4,8 km/h (1 Bft)
23.02.2023 00:41 7,2 C 6,7 C 92 % 1014,2 hPa 0,0 l/m 4,8 km/h (1 Bft) S-SW 202 0 min 0,0 UV-I 0 W/m 6,0 C 7,2 C 6,4 km/h (2 Bft)
23.02.2023 00:42 7,2 C 6,7 C 92 % 1014,1 hPa 0,0 l/m 4,8 km/h (1 Bft) SW 225 0 min 0,0 UV-I 0 W/m 6,0 C 7,2 C 9,7 km/h (2 Bft)
23.02.2023 00:43 7,2 C 6,7 C 92 % 1014,1 hPa 0,2 l/m 6,4 km/h (2 Bft) S 180 0 min 0,0 UV-I 0 W/m 6,0 C 7,2 C 11,3 km/h (2 Bft)
23.02.2023 00:44 7,2 C 6,7 C 92 % 1014,1 hPa 0,0 l/m 4,8 km/h (1 Bft) S-SW 202 0 min 0,0 UV-I 0 W/m 6,0 C 7,2 C 11,3 km/h (2 Bft)
23.02.2023 00:45 7,2 C 6,7 C 92 % 1014,1 hPa 0,0 l/m 8,0 km/h (2 Bft) S-SW 202 0 min 0,0 UV-I 0 W/m 6,0 C 5,9 C 9,7 km/h (2 Bft)
23.02.2023 00:46 7,2 C 6,7 C 92 % 1014,1 hPa 0,0 l/m 6,4 km/h (2 Bft) S-SW 202 0 min 0,0 UV-I 0 W/m 6,0 C 7,2 C 9,7 km/h (2 Bft)
23.02.2023 00:47 7,2 C 6,7 C 92 % 1014,2 hPa 0,0 l/m 3,2 km/h (1 Bft) S 180 0 min 0,0 UV-I 0 W/m 6,0 C 7,2 C 6,4 km/h (2 Bft)
23.02.2023 00:48 7,2 C 6,7 C 92 % 1014,2 hPa 0,0 l/m 6,4 km/h (2 Bft) S-SW 202 0 min 0,0 UV-I 0 W/m 6,0 C 7,2 C 8,0 km/h (2 Bft)
23.02.2023 00:49 7,2 C 6,7 C 92 % 1014,1 hPa 0,0 l/m 9,7 km/h (2 Bft) S-SW 202 0 min 0,0 UV-I 0 W/m 6,0 C 4,7 C 11,3 km/h (2 Bft)
23.02.2023 00:50 7,2 C 6,7 C 92 % 1014,1 hPa 0,0 l/m 9,7 km/h (2 Bft) S 180 0 min 0,0 UV-I 0 W/m 6,0 C 4,7 C 12,9 km/h (3 Bft)
23.02.2023 00:51 7,2 C 6,7 C 92 % 1014,2 hPa 0,0 l/m 6,4 km/h (2 Bft) S 180 0 min 0,0 UV-I 0 W/m 6,0 C 7,2 C 8,0 km/h (2 Bft)
23.02.2023 00:52 7,2 C 6,7 C 92 % 1014,2 hPa 0,0 l/m 6,4 km/h (2 Bft) S 180 0 min 0,0 UV-I 0 W/m 6,0 C 7,2 C 9,7 km/h (2 Bft)
23.02.2023 00:53 7,2 C 6,7 C 92 % 1014,1 hPa 0,0 l/m 6,4 km/h (2 Bft) S 180 0 min 0,0 UV-I 0 W/m 6,0 C 7,2 C 9,7 km/h (2 Bft)
23.02.2023 00:54 7,2 C 6,7 C 92 % 1014,2 hPa 0,0 l/m 4,8 km/h (1 Bft) S 180 0 min 0,0 UV-I 0 W/m 6,0 C 7,2 C 9,7 km/h (2 Bft)
23.02.2023 00:55 7,1 C 6,7 C 92 % 1014,2 hPa 0,0 l/m 6,4 km/h (2 Bft) S 180 0 min 0,0 UV-I 0 W/m 5,9 C 7,1 C 9,7 km/h (2 Bft)
23.02.2023 00:56 7,1 C 6,1 C 92 % 1014,0 hPa 0,0 l/m 6,4 km/h (2 Bft) S-SW 202 0 min 0,0 UV-I 0 W/m 5,9 C 7,1 C 9,7 km/h (2 Bft)
23.02.2023 00:57 7,1 C 6,1 C 92 % 1014,2 hPa 0,0 l/m 8,0 km/h (2 Bft) S-SW 202 0 min 0,0 UV-I 0 W/m 5,9 C 5,8 C 9,7 km/h (2 Bft)
23.02.2023 00:58 7,1 C 6,1 C 92 % 1014,1 hPa 0,0 l/m 6,4 km/h (2 Bft) S-SW 202 0 min 0,0 UV-I 0 W/m 5,9 C 7,1 C 11,3 km/h (2 Bft)
23.02.2023 00:59 7,1 C 6,1 C 92 % 1014,1 hPa 0,0 l/m 8,0 km/h (2 Bft) S-SW 202 0 min 0,0 UV-I 0 W/m 5,9 C 5,8 C 9,7 km/h (2 Bft)
23.02.2023 01:00 7,1 C 6,1 C 92 % 1014,1 hPa 0,0 l/m 6,4 km/h (2 Bft) S-SW 202 0 min 0,0 UV-I 0 W/m 5,9 C 7,1 C 9,7 km/h (2 Bft)
23.02.2023 01:01 7,1 C 6,1 C 92 % 1014,1 hPa 0,2 l/m 9,7 km/h (2 Bft) S 180 0 min 0,0 UV-I 0 W/m 5,9 C 4,6 C 12,9 km/h (3 Bft)
23.02.2023 01:02 7,1 C 6,1 C 92 % 1014,1 hPa 0,0 l/m 8,0 km/h (2 Bft) S-SW 202 0 min 0,0 UV-I 0 W/m 5,9 C 5,8 C 11,3 km/h (2 Bft)
23.02.2023 01:03 7,1 C 6,1 C 92 % 1014,2 hPa 0,0 l/m 8,0 km/h (2 Bft) S-SW 202 0 min 0,0 UV-I 0 W/m 5,9 C 5,8 C 12,9 km/h (3 Bft)
23.02.2023 01:04 7,1 C 6,1 C 92 % 1014,1 hPa 0,0 l/m 6,4 km/h (2 Bft) S-SW 202 0 min 0,0 UV-I 0 W/m 5,9 C 7,1 C 8,0 km/h (2 Bft)
23.02.2023 01:05 7,1 C 6,1 C 92 % 1014,1 hPa 0,0 l/m 8,0 km/h (2 Bft) S-SW 202 0 min 0,0 UV-I 0 W/m 5,9 C 5,8 C 11,3 km/h (2 Bft)
23.02.2023 01:06 7,1 C 6,1 C 92 % 1014,1 hPa 0,0 l/m 8,0 km/h (2 Bft) SW 225 0 min 0,0 UV-I 0 W/m 5,9 C 5,8 C 11,3 km/h (2 Bft)
23.02.2023 01:07 7,1 C 6,1 C 92 % 1014,1 hPa 0,0 l/m 8,0 km/h (2 Bft) S-SW 202 0 min 0,0 UV-I 0 W/m 5,9 C 5,8 C 11,3 km/h (2 Bft)
23.02.2023 01:08 7,1 C 6,1 C 92 % 1014,2 hPa 0,0 l/m 8,0 km/h (2 Bft) S-SW 202 0 min 0,0 UV-I 0 W/m 5,9 C 5,8 C 11,3 km/h (2 Bft)
23.02.2023 01:09 7,1 C 6,1 C 92 % 1014,1 hPa 0,0 l/m 8,0 km/h (2 Bft) S-SW 202 0 min 0,0 UV-I 0 W/m 5,9 C 5,8 C 12,9 km/h (3 Bft)
23.02.2023 01:10 7,1 C 6,1 C 92 % 1014,1 hPa 0,0 l/m 6,4 km/h (2 Bft) S-SW 202 0 min 0,0 UV-I 0 W/m 5,9 C 7,1 C 9,7 km/h (2 Bft)
23.02.2023 01:11 7,1 C 6,1 C 92 % 1014,1 hPa 0,0 l/m 6,4 km/h (2 Bft) S-SW 202 0 min 0,0 UV-I 0 W/m 5,9 C 7,1 C 9,7 km/h (2 Bft)
23.02.2023 01:12 7,1 C 6,1 C 92 % 1014,1 hPa 0,0 l/m 6,4 km/h (2 Bft) S-SW 202 0 min 0,0 UV-I 0 W/m 5,9 C 7,1 C 8,0 km/h (2 Bft)
23.02.2023 01:13 7,1 C 6,1 C 92 % 1014,1 hPa 0,0 l/m 6,4 km/h (2 Bft) S-SW 202 0 min 0,0 UV-I 0 W/m 5,9 C 7,1 C 8,0 km/h (2 Bft)
23.02.2023 01:14 7,1 C 6,1 C 92 % 1014,1 hPa 0,0 l/m 8,0 km/h (2 Bft) S-SW 202 0 min 0,0 UV-I 0 W/m 5,9 C 5,8 C 11,3 km/h (2 Bft)
23.02.2023 01:15 7,1 C 6,1 C 92 % 1014,1 hPa 0,0 l/m 4,8 km/h (1 Bft) SW 225 0 min 0,0 UV-I 0 W/m 5,9 C 7,1 C 9,7 km/h (2 Bft)
23.02.2023 01:16 7,1 C 6,1 C 92 % 1014,1 hPa 0,0 l/m 3,2 km/h (1 Bft) SW 225 0 min 0,0 UV-I 0 W/m 5,9 C 7,1 C 4,8 km/h (1 Bft)
23.02.2023 01:17 7,1 C 6,1 C 92 % 1014,1 hPa 0,0 l/m 3,2 km/h (1 Bft) SW 225 0 min 0,0 UV-I 0 W/m 5,9 C 7,1 C 8,0 km/h (2 Bft)
23.02.2023 01:18 7,1 C 6,1 C 92 % 1014,0 hPa 0,0 l/m 6,4 km/h (2 Bft) S-SW 202 0 min 0,0 UV-I 0 W/m 5,9 C 7,1 C 8,0 km/h (2 Bft)
23.02.2023 01:19 7,1 C 6,1 C 92 % 1014,0 hPa 0,0 l/m 6,4 km/h (2 Bft) S-SW 202 0 min 0,0 UV-I 0 W/m 5,9 C 7,1 C 8,0 km/h (2 Bft)
23.02.2023 01:20 7,1 C 6,1 C 92 % 1014,1 hPa 0,0 l/m 6,4 km/h (2 Bft) SW 225 0 min 0,0 UV-I 0 W/m 5,9 C 7,1 C 8,0 km/h (2 Bft)
23.02.2023 01:21 7,0 C 6,1 C 92 % 1014,0 hPa 0,0 l/m 4,8 km/h (1 Bft) S-SW 202 0 min 0,0 UV-I 0 W/m 5,8 C 7,0 C 6,4 km/h (2 Bft)
23.02.2023 01:22 7,0 C 6,1 C 92 % 1014,1 hPa 0,2 l/m 6,4 km/h (2 Bft) SW 225 0 min 0,0 UV-I 0 W/m 5,8 C 7,0 C 8,0 km/h (2 Bft)
23.02.2023 01:23 7,0 C 6,1 C 92 % 1014,0 hPa 0,0 l/m 6,4 km/h (2 Bft) S-SW 202 0 min 0,0 UV-I 0 W/m 5,8 C 7,0 C 8,0 km/h (2 Bft)
23.02.2023 01:24 7,0 C 6,1 C 92 % 1014,0 hPa 0,0 l/m 4,8 km/h (1 Bft) SW 225 0 min 0,0 UV-I 0 W/m 5,8 C 7,0 C 8,0 km/h (2 Bft)
23.02.2023 01:25 7,1 C 6,1 C 92 % 1014,0 hPa 0,0 l/m 6,4 km/h (2 Bft) S-SW 202 0 min 0,0 UV-I 0 W/m 5,9 C 7,1 C 8,0 km/h (2 Bft)
23.02.2023 01:26 7,0 C 6,1 C 92 % 1014,0 hPa 0,0 l/m 4,8 km/h (1 Bft) S-SW 202 0 min 0,0 UV-I 0 W/m 5,8 C 7,0 C 8,0 km/h (2 Bft)
23.02.2023 01:27 7,0 C 6,1 C 92 % 1014,0 hPa 0,0 l/m 6,4 km/h (2 Bft) S-SW 202 0 min 0,0 UV-I 0 W/m 5,8 C 7,0 C 6,4 km/h (2 Bft)
23.02.2023 01:28 7,0 C 6,1 C 92 % 1014,0 hPa 0,0 l/m 6,4 km/h (2 Bft) S-SW 202 0 min 0,0 UV-I 0 W/m 5,8 C 7,0 C 8,0 km/h (2 Bft)
23.02.2023 01:29 7,0 C 6,1 C 92 % 1014,0 hPa 0,0 l/m 6,4 km/h (2 Bft) SW 225 0 min 0,0 UV-I 0 W/m 5,8 C 7,0 C 8,0 km/h (2 Bft)
23.02.2023 01:30 7,0 C 6,1 C 92 % 1014,0 hPa 0,0 l/m 6,4 km/h (2 Bft) S-SW 202 0 min 0,0 UV-I 0 W/m 5,8 C 7,0 C 9,7 km/h (2 Bft)
23.02.2023 01:31 7,0 C 6,1 C 92 % 1014,0 hPa 0,0 l/m 4,8 km/h (1 Bft) S-SW 202 0 min 0,0 UV-I 0 W/m 5,8 C 7,0 C 6,4 km/h (2 Bft)
23.02.2023 01:32 7,0 C 6,1 C 92 % 1014,0 hPa 0,0 l/m 6,4 km/h (2 Bft) S-SW 202 0 min 0,0 UV-I 0 W/m 5,8 C 7,0 C 8,0 km/h (2 Bft)
23.02.2023 01:33 7,0 C 6,1 C 92 % 1014,0 hPa 0,0 l/m 4,8 km/h (1 Bft) S-SW 202 0 min 0,0 UV-I 0 W/m 5,8 C 7,0 C 8,0 km/h (2 Bft)
23.02.2023 01:34 7,0 C 6,1 C 92 % 1014,0 hPa 0,0 l/m 6,4 km/h (2 Bft) S-SW 202 0 min 0,0 UV-I 0 W/m 5,8 C 7,0 C 9,7 km/h (2 Bft)
23.02.2023 01:35 6,9 C 6,1 C 92 % 1014,0 hPa 0,0 l/m 4,8 km/h (1 Bft) S-SW 202 0 min 0,0 UV-I 0 W/m 5,7 C 6,9 C 6,4 km/h (2 Bft)
23.02.2023 01:36 7,0 C 6,1 C 92 % 1013,9 hPa 0,0 l/m 4,8 km/h (1 Bft) S-SW 202 0 min 0,0 UV-I 0 W/m 5,8 C 7,0 C 6,4 km/h (2 Bft)
23.02.2023 01:37 7,0 C 6,1 C 92 % 1014,0 hPa 0,0 l/m 6,4 km/h (2 Bft) S-SW 202 0 min 0,0 UV-I 0 W/m 5,8 C 7,0 C 8,0 km/h (2 Bft)
23.02.2023 01:38 7,0 C 6,1 C 92 % 1014,1 hPa 0,0 l/m 4,8 km/h (1 Bft) S-SW 202 0 min 0,0 UV-I 0 W/m 5,8 C 7,0 C 6,4 km/h (2 Bft)
23.02.2023 01:39 6,9 C 6,1 C 92 % 1014,0 hPa 0,0 l/m 6,4 km/h (2 Bft) S 180 0 min 0,0 UV-I 0 W/m 5,7 C 6,9 C 8,0 km/h (2 Bft)
23.02.2023 01:40 6,9 C 6,1 C 92 % 1014,0 hPa 0,0 l/m 4,8 km/h (1 Bft) S-SW 202 0 min 0,0 UV-I 0 W/m 5,7 C 6,9 C 6,4 km/h (2 Bft)
23.02.2023 01:41 6,9 C 6,1 C 92 % 1014,0 hPa 0,0 l/m 8,0 km/h (2 Bft) S-SW 202 0 min 0,0 UV-I 0 W/m 5,7 C 5,6 C 9,7 km/h (2 Bft)
23.02.2023 01:42 7,0 C 6,1 C 92 % 1014,0 hPa 0,0 l/m 8,0 km/h (2 Bft) S-SW 202 0 min 0,0 UV-I 0 W/m 5,8 C 5,7 C 9,7 km/h (2 Bft)
23.02.2023 01:43 6,9 C 6,1 C 92 % 1014,0 hPa 0,0 l/m 8,0 km/h (2 Bft) S-SW 202 0 min 0,0 UV-I 0 W/m 5,7 C 5,6 C 9,7 km/h (2 Bft)
23.02.2023 01:44 6,9 C 6,1 C 92 % 1014,0 hPa 0,0 l/m 8,0 km/h (2 Bft) S-SW 202 0 min 0,0 UV-I 0 W/m 5,7 C 5,6 C 12,9 km/h (3 Bft)
23.02.2023 01:45 7,0 C 6,1 C 92 % 1013,9 hPa 0,0 l/m 9,7 km/h (2 Bft) S-SW 202 0 min 0,0 UV-I 0 W/m 5,8 C 4,5 C 14,5 km/h (3 Bft)
23.02.2023 01:46 7,0 C 6,1 C 92 % 1013,9 hPa 0,0 l/m 4,8 km/h (1 Bft) S 180 0 min 0,0 UV-I 0 W/m 5,8 C 7,0 C 14,5 km/h (3 Bft)
23.02.2023 01:47 6,9 C 6,1 C 92 % 1013,9 hPa 0,0 l/m 6,4 km/h (2 Bft) S-SW 202 0 min 0,0 UV-I 0 W/m 5,7 C 6,9 C 9,7 km/h (2 Bft)
23.02.2023 01:48 7,0 C 6,1 C 92 % 1013,9 hPa 0,0 l/m 6,4 km/h (2 Bft) S-SW 202 0 min 0,0 UV-I 0 W/m 5,8 C 7,0 C 9,7 km/h (2 Bft)
23.02.2023 01:49 7,0 C 6,1 C 92 % 1013,9 hPa 0,2 l/m 6,4 km/h (2 Bft) S-SW 202 0 min 0,0 UV-I 0 W/m 5,8 C 7,0 C 8,0 km/h (2 Bft)
23.02.2023 01:50 6,9 C 6,1 C 92 % 1013,9 hPa 0,0 l/m 6,4 km/h (2 Bft) S 180 0 min 0,0 UV-I 0 W/m 5,7 C 6,9 C 9,7 km/h (2 Bft)
23.02.2023 01:51 6,9 C 6,1 C 92 % 1013,9 hPa 0,0 l/m 6,4 km/h (2 Bft) S-SW 202 0 min 0,0 UV-I 0 W/m 5,7 C 6,9 C 8,0 km/h (2 Bft)
23.02.2023 01:52 7,0 C 6,1 C 92 % 1013,9 hPa 0,0 l/m 8,0 km/h (2 Bft) S-SW 202 0 min 0,0 UV-I 0 W/m 5,8 C 5,7 C 9,7 km/h (2 Bft)
23.02.2023 01:53 6,9 C 6,1 C 92 % 1014,0 hPa 0,0 l/m 6,4 km/h (2 Bft) S 180 0 min 0,0 UV-I 0 W/m 5,7 C 6,9 C 11,3 km/h (2 Bft)
23.02.2023 01:54 7,0 C 6,1 C 92 % 1013,8 hPa 0,0 l/m 6,4 km/h (2 Bft) S-SW 202 0 min 0,0 UV-I 0 W/m 5,8 C 7,0 C 8,0 km/h (2 Bft)
23.02.2023 01:55 7,0 C 6,1 C 92 % 1013,9 hPa 0,0 l/m 6,4 km/h (2 Bft) S-SW 202 0 min 0,0 UV-I 0 W/m 5,8 C 7,0 C 9,7 km/h (2 Bft)
23.02.2023 01:56 7,0 C 6,1 C 92 % 1013,9 hPa 0,0 l/m 6,4 km/h (2 Bft) S-SW 202 0 min 0,0 UV-I 0 W/m 5,8 C 7,0 C 8,0 km/h (2 Bft)
23.02.2023 01:57 6,9 C 6,1 C 92 % 1013,9 hPa 0,0 l/m 4,8 km/h (1 Bft) SW 225 0 min 0,0 UV-I 0 W/m 5,7 C 6,9 C 8,0 km/h (2 Bft)
23.02.2023 01:58 6,9 C 6,1 C 92 % 1013,9 hPa 0,0 l/m 6,4 km/h (2 Bft) SW 225 0 min 0,0 UV-I 0 W/m 5,7 C 6,9 C 9,7 km/h (2 Bft)
23.02.2023 01:59 7,0 C 6,1 C 93 % 1014,0 hPa 0,0 l/m 8,0 km/h (2 Bft) S-SW 202 0 min 0,0 UV-I 0 W/m 5,9 C 5,7 C 9,7 km/h (2 Bft)
23.02.2023 02:00 6,9 C 6,1 C 92 % 1013,9 hPa 0,0 l/m 8,0 km/h (2 Bft) S 180 0 min 0,0 UV-I 0 W/m 5,7 C 5,6 C 12,9 km/h (3 Bft)
23.02.2023 02:01 7,0 C 6,1 C 92 % 1013,9 hPa 0,0 l/m 4,8 km/h (1 Bft) S-SW 202 0 min 0,0 UV-I 0 W/m 5,8 C 7,0 C 6,4 km/h (2 Bft)
23.02.2023 02:02 6,9 C 6,1 C 92 % 1013,8 hPa 0,0 l/m 8,0 km/h (2 Bft) S-SW 202 0 min 0,0 UV-I 0 W/m 5,7 C 5,6 C 9,7 km/h (2 Bft)
23.02.2023 02:03 6,9 C 6,1 C 93 % 1013,9 hPa 0,0 l/m 6,4 km/h (2 Bft) S 180 0 min 0,0 UV-I 0 W/m 5,8 C 6,9 C 9,7 km/h (2 Bft)
23.02.2023 02:04 6,9 C 6,1 C 93 % 1013,9 hPa 0,0 l/m 8,0 km/h (2 Bft) S-SW 202 0 min 0,0 UV-I 0 W/m 5,8 C 5,6 C 11,3 km/h (2 Bft)
23.02.2023 02:05 7,0 C 6,1 C 93 % 1013,9 hPa 0,0 l/m 6,4 km/h (2 Bft) S-SW 202 0 min 0,0 UV-I 0 W/m 5,9 C 7,0 C 9,7 km/h (2 Bft)
23.02.2023 02:06 6,9 C 6,1 C 93 % 1013,8 hPa 0,0 l/m 4,8 km/h (1 Bft) S-SW 202 0 min 0,0 UV-I 0 W/m 5,8 C 6,9 C 6,4 km/h (2 Bft)
23.02.2023 02:07 6,9 C 6,1 C 93 % 1013,9 hPa 0,0 l/m 8,0 km/h (2 Bft) S 180 0 min 0,0 UV-I 0 W/m 5,8 C 5,6 C 9,7 km/h (2 Bft)
23.02.2023 02:08 6,9 C 6,1 C 93 % 1013,7 hPa 0,0 l/m 9,7 km/h (2 Bft) S 180 0 min 0,0 UV-I 0 W/m 5,8 C 4,4 C 12,9 km/h (3 Bft)
23.02.2023 02:09 6,9 C 6,1 C 93 % 1013,9 hPa 0,0 l/m 8,0 km/h (2 Bft) S 180 0 min 0,0 UV-I 0 W/m 5,8 C 5,6 C 11,3 km/h (2 Bft)
23.02.2023 02:10 6,9 C 6,1 C 93 % 1013,8 hPa 0,2 l/m 8,0 km/h (2 Bft) S-SW 202 0 min 0,0 UV-I 0 W/m 5,8 C 5,6 C 11,3 km/h (2 Bft)
23.02.2023 02:11 6,9 C 6,1 C 93 % 1013,9 hPa 0,0 l/m 9,7 km/h (2 Bft) S 180 0 min 0,0 UV-I 0 W/m 5,8 C 4,4 C 14,5 km/h (3 Bft)
23.02.2023 02:12 6,9 C 6,1 C 93 % 1013,8 hPa 0,0 l/m 11,3 km/h (2 Bft) S 180 0 min 0,0 UV-I 0 W/m 5,8 C 3,4 C 12,9 km/h (3 Bft)
23.02.2023 02:13 6,9 C 6,1 C 93 % 1013,8 hPa 0,0 l/m 12,9 km/h (3 Bft) S-SW 202 0 min 0,0 UV-I 0 W/m 5,8 C 2,4 C 16,1 km/h (3 Bft)
23.02.2023 02:14 6,9 C 6,1 C 93 % 1013,8 hPa 0,0 l/m 9,7 km/h (2 Bft) S-SW 202 0 min 0,0 UV-I 0 W/m 5,8 C 4,4 C 16,1 km/h (3 Bft)
23.02.2023 02:15 6,9 C 6,1 C 93 % 1013,8 hPa 0,0 l/m 9,7 km/h (2 Bft) S 180 0 min 0,0 UV-I 0 W/m 5,8 C 4,4 C 11,3 km/h (2 Bft)
23.02.2023 02:16 6,9 C 6,1 C 93 % 1013,9 hPa 0,0 l/m 8,0 km/h (2 Bft) S-SW 202 0 min 0,0 UV-I 0 W/m 5,8 C 5,6 C 11,3 km/h (2 Bft)
23.02.2023 02:17 6,9 C 6,1 C 93 % 1013,9 hPa 0,0 l/m 6,4 km/h (2 Bft) W-SW 247 0 min 0,0 UV-I 0 W/m 5,8 C 6,9 C 9,7 km/h (2 Bft)
23.02.2023 02:18 6,9 C 6,1 C 93 % 1013,9 hPa 0,0 l/m 8,0 km/h (2 Bft) S-SW 202 0 min 0,0 UV-I 0 W/m 5,8 C 5,6 C 11,3 km/h (2 Bft)
23.02.2023 02:19 6,9 C 6,1 C 93 % 1013,8 hPa 0,0 l/m 8,0 km/h (2 Bft) S-SW 202 0 min 0,0 UV-I 0 W/m 5,8 C 5,6 C 11,3 km/h (2 Bft)
23.02.2023 02:20 6,9 C 6,1 C 93 % 1013,8 hPa 0,0 l/m 8,0 km/h (2 Bft) S-SW 202 0 min 0,0 UV-I 0 W/m 5,8 C 5,6 C 11,3 km/h (2 Bft)
23.02.2023 02:21 6,9 C 6,1 C 93 % 1013,9 hPa 0,0 l/m 8,0 km/h (2 Bft) S-SW 202 0 min 0,0 UV-I 0 W/m 5,8 C 5,6 C 11,3 km/h (2 Bft)
23.02.2023 02:22 6,9 C 6,1 C 93 % 1013,9 hPa 0,0 l/m 9,7 km/h (2 Bft) S 180 0 min 0,0 UV-I 0 W/m 5,8 C 4,4 C 14,5 km/h (3 Bft)
23.02.2023 02:23 6,9 C 6,1 C 93 % 1013,8 hPa 0,0 l/m 9,7 km/h (2 Bft) S-SW 202 0 min 0,0 UV-I 0 W/m 5,8 C 4,4 C 12,9 km/h (3 Bft)
23.02.2023 02:24 6,9 C 6,1 C 93 % 1013,9 hPa 0,0 l/m 6,4 km/h (2 Bft) S-SW 202 0 min 0,0 UV-I 0 W/m 5,8 C 6,9 C 8,0 km/h (2 Bft)
23.02.2023 02:25 6,9 C 6,1 C 93 % 1013,9 hPa 0,0 l/m 6,4 km/h (2 Bft) S-SW 202 0 min 0,0 UV-I 0 W/m 5,8 C 6,9 C 11,3 km/h (2 Bft)
23.02.2023 02:26 6,9 C 6,1 C 93 % 1013,8 hPa 0,0 l/m 6,4 km/h (2 Bft) S-SW 202 0 min 0,0 UV-I 0 W/m 5,8 C 6,9 C 9,7 km/h (2 Bft)
23.02.2023 02:27 6,9 C 6,1 C 93 % 1013,9 hPa 0,0 l/m 6,4 km/h (2 Bft) S-SW 202 0 min 0,0 UV-I 0 W/m 5,8 C 6,9 C 9,7 km/h (2 Bft)
23.02.2023 02:28 6,9 C 6,1 C 93 % 1013,9 hPa 0,0 l/m 4,8 km/h (1 Bft) S-SW 202 0 min 0,0 UV-I 0 W/m 5,8 C 6,9 C 8,0 km/h (2 Bft)
23.02.2023 02:29 6,9 C 6,1 C 93 % 1013,9 hPa 0,2 l/m 4,8 km/h (1 Bft) SW 225 0 min 0,0 UV-I 0 W/m 5,8 C 6,9 C 6,4 km/h (2 Bft)
23.02.2023 02:30 6,9 C 6,1 C 93 % 1013,9 hPa 0,0 l/m 3,2 km/h (1 Bft) SW 225 0 min 0,0 UV-I 0 W/m 5,8 C 6,9 C 4,8 km/h (1 Bft)
23.02.2023 02:31 6,9 C 6,1 C 93 % 1013,9 hPa 0,0 l/m 4,8 km/h (1 Bft) W-SW 247 0 min 0,0 UV-I 0 W/m 5,8 C 6,9 C 11,3 km/h (2 Bft)
23.02.2023 02:32 6,9 C 6,1 C 93 % 1013,9 hPa 0,0 l/m 3,2 km/h (1 Bft) W-SW 247 0 min 0,0 UV-I 0 W/m 5,8 C 6,9 C 8,0 km/h (2 Bft)
23.02.2023 02:33 6,9 C 6,1 C 93 % 1014,0 hPa 0,0 l/m 4,8 km/h (1 Bft) W-SW 247 0 min 0,0 UV-I 0 W/m 5,8 C 6,9 C 8,0 km/h (2 Bft)
23.02.2023 02:34 6,9 C 6,1 C 93 % 1013,9 hPa 0,0 l/m 9,7 km/h (2 Bft) W-SW 247 0 min 0,0 UV-I 0 W/m 5,8 C 4,4 C 14,5 km/h (3 Bft)
23.02.2023 02:35 6,9 C 6,1 C 92 % 1013,9 hPa 0,0 l/m 6,4 km/h (2 Bft) W-SW 247 0 min 0,0 UV-I 0 W/m 5,7 C 6,9 C 12,9 km/h (3 Bft)
23.02.2023 02:36 6,8 C 6,1 C 93 % 1013,9 hPa 0,0 l/m 4,8 km/h (1 Bft) W-SW 247 0 min 0,0 UV-I 0 W/m 5,7 C 6,8 C 9,7 km/h (2 Bft)
23.02.2023 02:37 6,8 C 6,1 C 93 % 1013,9 hPa 0,0 l/m 6,4 km/h (2 Bft) W-SW 247 0 min 0,0 UV-I 0 W/m 5,7 C 6,8 C 9,7 km/h (2 Bft)
23.02.2023 02:38 6,8 C 6,1 C 93 % 1013,9 hPa 0,0 l/m 4,8 km/h (1 Bft) SW 225 0 min 0,0 UV-I 0 W/m 5,7 C 6,8 C 9,7 km/h (2 Bft)
23.02.2023 02:39 6,8 C 6,1 C 93 % 1013,9 hPa 0,0 l/m 3,2 km/h (1 Bft) SW 225 0 min 0,0 UV-I 0 W/m 5,7 C 6,8 C 9,7 km/h (2 Bft)
23.02.2023 02:40 6,7 C 6,1 C 93 % 1013,9 hPa 0,0 l/m 4,8 km/h (1 Bft) W-SW 247 0 min 0,0 UV-I 0 W/m 5,6 C 6,7 C 9,7 km/h (2 Bft)
23.02.2023 02:41 6,7 C 6,1 C 93 % 1013,9 hPa 0,0 l/m 4,8 km/h (1 Bft) W-SW 247 0 min 0,0 UV-I 0 W/m 5,6 C 6,7 C 11,3 km/h (2 Bft)
23.02.2023 02:42 6,7 C 6,1 C 93 % 1013,9 hPa 0,0 l/m 4,8 km/h (1 Bft) SW 225 0 min 0,0 UV-I 0 W/m 5,6 C 6,7 C 9,7 km/h (2 Bft)
23.02.2023 02:43 6,7 C 6,1 C 93 % 1013,9 hPa 0,0 l/m 3,2 km/h (1 Bft) S-SW 202 0 min 0,0 UV-I 0 W/m 5,6 C 6,7 C 6,4 km/h (2 Bft)
23.02.2023 02:44 6,7 C 6,1 C 92 % 1013,9 hPa 0,0 l/m 6,4 km/h (2 Bft) W-SW 247 0 min 0,0 UV-I 0 W/m 5,5 C 6,7 C 11,3 km/h (2 Bft)
23.02.2023 02:45 6,7 C 6,1 C 92 % 1014,0 hPa 0,0 l/m 6,4 km/h (2 Bft) S-SW 202 0 min 0,0 UV-I 0 W/m 5,5 C 6,7 C 11,3 km/h (2 Bft)
23.02.2023 02:46 6,6 C 6,1 C 92 % 1013,9 hPa 0,0 l/m 3,2 km/h (1 Bft) SW 225 0 min 0,0 UV-I 0 W/m 5,4 C 6,6 C 4,8 km/h (1 Bft)
23.02.2023 02:47 6,6 C 6,1 C 92 % 1013,9 hPa 0,0 l/m 3,2 km/h (1 Bft) SW 225 0 min 0,0 UV-I 0 W/m 5,4 C 6,6 C 6,4 km/h (2 Bft)
23.02.2023 02:48 6,6 C 6,1 C 92 % 1013,9 hPa 0,0 l/m 3,2 km/h (1 Bft) SW 225 0 min 0,0 UV-I 0 W/m 5,4 C 6,6 C 4,8 km/h (1 Bft)
23.02.2023 02:49 6,6 C 6,1 C 92 % 1013,9 hPa 0,0 l/m 4,8 km/h (1 Bft) SW 225 0 min 0,0 UV-I 0 W/m 5,4 C 6,6 C 8,0 km/h (2 Bft)
23.02.2023 02:50 6,6 C 6,1 C 92 % 1013,9 hPa 0,0 l/m 8,0 km/h (2 Bft) S-SW 202 0 min 0,0 UV-I 0 W/m 5,4 C 5,3 C 12,9 km/h (3 Bft)
23.02.2023 02:51 6,6 C 6,1 C 92 % 1013,9 hPa 0,0 l/m 1,6 km/h (1 Bft) W-SW 247 0 min 0,0 UV-I 0 W/m 5,4 C 6,6 C 4,8 km/h (1 Bft)
23.02.2023 02:52 6,5 C 6,1 C 92 % 1013,9 hPa 0,2 l/m 6,4 km/h (2 Bft) SW 225 0 min 0,0 UV-I 0 W/m 5,3 C 6,5 C 11,3 km/h (2 Bft)
23.02.2023 02:53 6,5 C 6,1 C 92 % 1013,8 hPa 0,0 l/m 6,4 km/h (2 Bft) S-SW 202 0 min 0,0 UV-I 0 W/m 5,3 C 6,5 C 11,3 km/h (2 Bft)
23.02.2023 02:54 6,5 C 6,1 C 92 % 1013,8 hPa 0,0 l/m 4,8 km/h (1 Bft) SW 225 0 min 0,0 UV-I 0 W/m 5,3 C 6,5 C 6,4 km/h (2 Bft)
23.02.2023 02:55 6,5 C 6,1 C 93 % 1013,9 hPa 0,0 l/m 6,4 km/h (2 Bft) SW 225 0 min 0,0 UV-I 0 W/m 5,5 C 6,5 C 11,3 km/h (2 Bft)
23.02.2023 02:56 6,5 C 6,1 C 93 % 1013,9 hPa 0,0 l/m 4,8 km/h (1 Bft) S-SW 202 0 min 0,0 UV-I 0 W/m 5,5 C 6,5 C 9,7 km/h (2 Bft)
23.02.2023 02:57 6,5 C 6,1 C 93 % 1013,9 hPa 0,0 l/m 6,4 km/h (2 Bft) SW 225 0 min 0,0 UV-I 0 W/m 5,5 C 6,5 C 9,7 km/h (2 Bft)
23.02.2023 02:58 6,4 C 6,1 C 93 % 1013,8 hPa 0,0 l/m 3,2 km/h (1 Bft) SW 225 0 min 0,0 UV-I 0 W/m 5,4 C 6,4 C 6,4 km/h (2 Bft)
23.02.2023 02:59 6,5 C 6,1 C 93 % 1013,8 hPa 0,0 l/m 4,8 km/h (1 Bft) SW 225 0 min 0,0 UV-I 0 W/m 5,5 C 6,5 C 9,7 km/h (2 Bft)
23.02.2023 03:00 6,4 C 6,1 C 93 % 1013,7 hPa 0,0 l/m 4,8 km/h (1 Bft) S-SW 202 0 min 0,0 UV-I 0 W/m 5,4 C 6,4 C 6,4 km/h (2 Bft)
23.02.2023 03:01 6,5 C 6,1 C 93 % 1013,9 hPa 0,0 l/m 3,2 km/h (1 Bft) SW 225 0 min 0,0 UV-I 0 W/m 5,5 C 6,5 C 4,8 km/h (1 Bft)
23.02.2023 03:02 6,4 C 6,1 C 93 % 1013,9 hPa 0,0 l/m 1,6 km/h (1 Bft) SW 225 0 min 0,0 UV-I 0 W/m 5,4 C 6,4 C 4,8 km/h (1 Bft)
23.02.2023 03:03 6,4 C 5,6 C 93 % 1013,8 hPa 0,0 l/m 4,8 km/h (1 Bft) SW 225 0 min 0,0 UV-I 0 W/m 5,4 C 6,4 C 8,0 km/h (2 Bft)
23.02.2023 03:04 6,4 C 5,6 C 93 % 1013,8 hPa 0,0 l/m 3,2 km/h (1 Bft) SW 225 0 min 0,0 UV-I 0 W/m 5,4 C 6,4 C 4,8 km/h (1 Bft)
23.02.2023 03:05 6,4 C 5,6 C 93 % 1013,8 hPa 0,0 l/m 4,8 km/h (1 Bft) SW 225 0 min 0,0 UV-I 0 W/m 5,4 C 6,4 C 9,7 km/h (2 Bft)
23.02.2023 03:06 6,4 C 5,6 C 93 % 1013,7 hPa 0,0 l/m 6,4 km/h (2 Bft) W-SW 247 0 min 0,0 UV-I 0 W/m 5,4 C 6,4 C 9,7 km/h (2 Bft)
23.02.2023 03:07 6,4 C 5,6 C 93 % 1013,7 hPa 0,0 l/m 4,8 km/h (1 Bft) W-SW 247 0 min 0,0 UV-I 0 W/m 5,4 C 6,4 C 9,7 km/h (2 Bft)
23.02.2023 03:08 6,3 C 5,6 C 93 % 1013,8 hPa 0,0 l/m 4,8 km/h (1 Bft) W-SW 247 0 min 0,0 UV-I 0 W/m 5,3 C 6,3 C 9,7 km/h (2 Bft)
23.02.2023 03:09 6,3 C 5,6 C 93 % 1013,7 hPa 0,0 l/m 8,0 km/h (2 Bft) S-SW 202 0 min 0,0 UV-I 0 W/m 5,3 C 5,0 C 9,7 km/h (2 Bft)
23.02.2023 03:10 6,3 C 5,6 C 93 % 1013,7 hPa 0,0 l/m 9,7 km/h (2 Bft) S-SW 202 0 min 0,0 UV-I 0 W/m 5,3 C 3,7 C 11,3 km/h (2 Bft)
23.02.2023 03:11 6,3 C 5,6 C 93 % 1013,7 hPa 0,0 l/m 8,0 km/h (2 Bft) S-SW 202 0 min 0,0 UV-I 0 W/m 5,3 C 5,0 C 9,7 km/h (2 Bft)
23.02.2023 03:12 6,3 C 5,6 C 93 % 1013,7 hPa 0,0 l/m 6,4 km/h (2 Bft) S-SW 202 0 min 0,0 UV-I 0 W/m 5,3 C 6,3 C 8,0 km/h (2 Bft)
23.02.2023 03:13 6,3 C 5,6 C 92 % 1013,7 hPa 0,0 l/m 4,8 km/h (1 Bft) S-SW 202 0 min 0,0 UV-I 0 W/m 5,1 C 6,3 C 8,0 km/h (2 Bft)
23.02.2023 03:14 6,3 C 5,6 C 92 % 1013,7 hPa 0,0 l/m 6,4 km/h (2 Bft) SW 225 0 min 0,0 UV-I 0 W/m 5,1 C 6,3 C 8,0 km/h (2 Bft)
23.02.2023 03:15 6,3 C 5,6 C 92 % 1013,7 hPa 0,0 l/m 6,4 km/h (2 Bft) S-SW 202 0 min 0,0 UV-I 0 W/m 5,1 C 6,3 C 9,7 km/h (2 Bft)
23.02.2023 03:16 6,3 C 5,6 C 92 % 1013,7 hPa 0,0 l/m 4,8 km/h (1 Bft) SW 225 0 min 0,0 UV-I 0 W/m 5,1 C 6,3 C 8,0 km/h (2 Bft)
23.02.2023 03:17 6,3 C 5,6 C 93 % 1013,7 hPa 0,0 l/m 1,6 km/h (1 Bft) SW 225 0 min 0,0 UV-I 0 W/m 5,3 C 6,3 C 3,2 km/h (1 Bft)
23.02.2023 03:18 6,3 C 5,6 C 92 % 1013,7 hPa 0,0 l/m 4,8 km/h (1 Bft) SW 225 0 min 0,0 UV-I 0 W/m 5,1 C 6,3 C 11,3 km/h (2 Bft)
23.02.2023 03:19 6,3 C 5,6 C 92 % 1013,7 hPa 0,0 l/m 6,4 km/h (2 Bft) S-SW 202 0 min 0,0 UV-I 0 W/m 5,1 C 6,3 C 11,3 km/h (2 Bft)
23.02.2023 03:20 6,3 C 5,6 C 92 % 1013,7 hPa 0,0 l/m 4,8 km/h (1 Bft) W-SW 247 0 min 0,0 UV-I 0 W/m 5,1 C 6,3 C 8,0 km/h (2 Bft)
23.02.2023 03:21 6,3 C 5,6 C 92 % 1013,7 hPa 0,0 l/m 6,4 km/h (2 Bft) W-SW 247 0 min 0,0 UV-I 0 W/m 5,1 C 6,3 C 9,7 km/h (2 Bft)
23.02.2023 03:22 6,2 C 5,6 C 92 % 1013,7 hPa 0,0 l/m 4,8 km/h (1 Bft) W-SW 247 0 min 0,0 UV-I 0 W/m 5,0 C 6,2 C 6,4 km/h (2 Bft)
23.02.2023 03:23 6,2 C 5,6 C 92 % 1013,7 hPa 0,0 l/m 4,8 km/h (1 Bft) W-SW 247 0 min 0,0 UV-I 0 W/m 5,0 C 6,2 C 8,0 km/h (2 Bft)
23.02.2023 03:24 6,2 C 5,6 C 92 % 1013,6 hPa 0,0 l/m 4,8 km/h (1 Bft) SW 225 0 min 0,0 UV-I 0 W/m 5,0 C 6,2 C 8,0 km/h (2 Bft)
23.02.2023 03:25 6,2 C 5,6 C 92 % 1013,6 hPa 0,0 l/m 3,2 km/h (1 Bft) SW 225 0 min 0,0 UV-I 0 W/m 5,0 C 6,2 C 4,8 km/h (1 Bft)
23.02.2023 03:26 6,2 C 5,6 C 92 % 1013,6 hPa 0,0 l/m 3,2 km/h (1 Bft) SW 225 0 min 0,0 UV-I 0 W/m 5,0 C 6,2 C 4,8 km/h (1 Bft)
23.02.2023 03:27 6,2 C 5,6 C 92 % 1013,6 hPa 0,0 l/m 3,2 km/h (1 Bft) SW 225 0 min 0,0 UV-I 0 W/m 5,0 C 6,2 C 3,2 km/h (1 Bft)
23.02.2023 03:28 6,2 C 5,6 C 92 % 1013,6 hPa 0,0 l/m 3,2 km/h (1 Bft) SW 225 0 min 0,0 UV-I 0 W/m 5,0 C 6,2 C 6,4 km/h (2 Bft)
23.02.2023 03:29 6,2 C 5,6 C 92 % 1013,7 hPa 0,0 l/m 1,6 km/h (1 Bft) SW 225 0 min 0,0 UV-I 0 W/m 5,0 C 6,2 C 6,4 km/h (2 Bft)
23.02.2023 03:30 6,2 C 5,6 C 93 % 1013,6 hPa 0,0 l/m 3,2 km/h (1 Bft) SW 225 0 min 0,0 UV-I 0 W/m 5,2 C 6,2 C 8,0 km/h (2 Bft)
23.02.2023 03:31 6,2 C 5,6 C 92 % 1013,7 hPa 0,0 l/m 3,2 km/h (1 Bft) SW 225 0 min 0,0 UV-I 0 W/m 5,0 C 6,2 C 8,0 km/h (2 Bft)
23.02.2023 03:32 6,2 C 5,6 C 93 % 1013,6 hPa 0,0 l/m 6,4 km/h (2 Bft) S-SW 202 0 min 0,0 UV-I 0 W/m 5,2 C 6,2 C 11,3 km/h (2 Bft)
23.02.2023 03:33 6,2 C 5,6 C 93 % 1013,7 hPa 0,0 l/m 3,2 km/h (1 Bft) S-SW 202 0 min 0,0 UV-I 0 W/m 5,2 C 6,2 C 6,4 km/h (2 Bft)
23.02.2023 03:34 6,2 C 5,6 C 93 % 1013,7 hPa 0,0 l/m 8,0 km/h (2 Bft) S-SW 202 0 min 0,0 UV-I 0 W/m 5,2 C 4,9 C 12,9 km/h (3 Bft)
23.02.2023 03:35 6,2 C 5,6 C 93 % 1013,6 hPa 0,0 l/m 6,4 km/h (2 Bft) SW 225 0 min 0,0 UV-I 0 W/m 5,2 C 6,2 C 9,7 km/h (2 Bft)
23.02.2023 03:36 6,2 C 5,6 C 93 % 1013,7 hPa 0,0 l/m 8,0 km/h (2 Bft) SW 225 0 min 0,0 UV-I 0 W/m 5,2 C 4,9 C 9,7 km/h (2 Bft)
23.02.2023 03:37 6,2 C 5,6 C 93 % 1013,6 hPa 0,0 l/m 6,4 km/h (2 Bft) S-SW 202 0 min 0,0 UV-I 0 W/m 5,2 C 6,2 C 9,7 km/h (2 Bft)
23.02.2023 03:38 6,2 C 5,6 C 93 % 1013,6 hPa 0,0 l/m 6,4 km/h (2 Bft) S-SW 202 0 min 0,0 UV-I 0 W/m 5,2 C 6,2 C 8,0 km/h (2 Bft)
23.02.2023 03:39 6,2 C 5,6 C 93 % 1013,7 hPa 0,0 l/m 9,7 km/h (2 Bft) S-SW 202 0 min 0,0 UV-I 0 W/m 5,2 C 3,6 C 11,3 km/h (2 Bft)
23.02.2023 03:40 6,2 C 5,6 C 93 % 1013,7 hPa 0,0 l/m 4,8 km/h (1 Bft) SW 225 0 min 0,0 UV-I 0 W/m 5,2 C 6,2 C 8,0 km/h (2 Bft)
23.02.2023 03:41 6,2 C 5,6 C 93 % 1013,7 hPa 0,0 l/m 6,4 km/h (2 Bft) S 180 0 min 0,0 UV-I 0 W/m 5,2 C 6,2 C 9,7 km/h (2 Bft)
23.02.2023 03:42 6,2 C 5,6 C 93 % 1013,7 hPa 0,0 l/m 8,0 km/h (2 Bft) S-SW 202 0 min 0,0 UV-I 0 W/m 5,2 C 4,9 C 9,7 km/h (2 Bft)
23.02.2023 03:43 6,2 C 5,6 C 93 % 1013,7 hPa 0,0 l/m 6,4 km/h (2 Bft) S-SW 202 0 min 0,0 UV-I 0 W/m 5,2 C 6,2 C 8,0 km/h (2 Bft)
23.02.2023 03:44 6,2 C 5,6 C 93 % 1013,6 hPa 0,0 l/m 6,4 km/h (2 Bft) S-SW 202 0 min 0,0 UV-I 0 W/m 5,2 C 6,2 C 8,0 km/h (2 Bft)
23.02.2023 03:45 6,2 C 5,6 C 93 % 1013,7 hPa 0,0 l/m 4,8 km/h (1 Bft) S-SW 202 0 min 0,0 UV-I 0 W/m 5,2 C 6,2 C 8,0 km/h (2 Bft)
23.02.2023 03:46 6,2 C 5,6 C 93 % 1013,6 hPa 0,0 l/m 4,8 km/h (1 Bft) S-SW 202 0 min 0,0 UV-I 0 W/m 5,2 C 6,2 C 8,0 km/h (2 Bft)
23.02.2023 03:47 6,2 C 5,6 C 93 % 1013,6 hPa 0,0 l/m 4,8 km/h (1 Bft) S 180 0 min 0,0 UV-I 0 W/m 5,2 C 6,2 C 9,7 km/h (2 Bft)
23.02.2023 03:48 6,2 C 5,6 C 93 % 1013,5 hPa 0,0 l/m 6,4 km/h (2 Bft) S-SW 202 0 min 0,0 UV-I 0 W/m 5,2 C 6,2 C 9,7 km/h (2 Bft)
23.02.2023 03:49 6,2 C 5,6 C 93 % 1013,5 hPa 0,0 l/m 6,4 km/h (2 Bft) S-SW 202 0 min 0,0 UV-I 0 W/m 5,2 C 6,2 C 9,7 km/h (2 Bft)
23.02.2023 03:50 6,2 C 5,6 C 93 % 1013,6 hPa 0,0 l/m 4,8 km/h (1 Bft) S-SW 202 0 min 0,0 UV-I 0 W/m 5,2 C 6,2 C 6,4 km/h (2 Bft)
23.02.2023 03:51 6,2 C 5,6 C 93 % 1013,6 hPa 0,0 l/m 4,8 km/h (1 Bft) S-SW 202 0 min 0,0 UV-I 0 W/m 5,2 C 6,2 C 8,0 km/h (2 Bft)
23.02.2023 03:52 6,2 C 5,6 C 93 % 1013,6 hPa 0,0 l/m 3,2 km/h (1 Bft) SW 225 0 min 0,0 UV-I 0 W/m 5,2 C 6,2 C 6,4 km/h (2 Bft)
23.02.2023 03:53 6,2 C 5,6 C 93 % 1013,6 hPa 0,0 l/m 3,2 km/h (1 Bft) SW 225 0 min 0,0 UV-I 0 W/m 5,2 C 6,2 C 4,8 km/h (1 Bft)
23.02.2023 03:54 6,2 C 5,6 C 93 % 1013,6 hPa 0,0 l/m 6,4 km/h (2 Bft) SW 225 0 min 0,0 UV-I 0 W/m 5,2 C 6,2 C 8,0 km/h (2 Bft)
23.02.2023 03:55 6,2 C 5,6 C 93 % 1013,6 hPa 0,0 l/m 8,0 km/h (2 Bft) S-SW 202 0 min 0,0 UV-I 0 W/m 5,2 C 4,9 C 9,7 km/h (2 Bft)
23.02.2023 03:56 6,1 C 5,6 C 93 % 1013,6 hPa 0,0 l/m 6,4 km/h (2 Bft) S-SW 202 0 min 0,0 UV-I 0 W/m 5,1 C 6,1 C 8,0 km/h (2 Bft)
23.02.2023 03:57 6,2 C 5,6 C 93 % 1013,6 hPa 0,0 l/m 8,0 km/h (2 Bft) SW 225 0 min 0,0 UV-I 0 W/m 5,2 C 4,9 C 8,0 km/h (2 Bft)
23.02.2023 03:58 6,2 C 5,6 C 93 % 1013,6 hPa 0,0 l/m 4,8 km/h (1 Bft) S-SW 202 0 min 0,0 UV-I 0 W/m 5,2 C 6,2 C 6,4 km/h (2 Bft)
23.02.2023 03:59 6,1 C 5,6 C 93 % 1013,6 hPa 0,0 l/m 4,8 km/h (1 Bft) S-SW 202 0 min 0,0 UV-I 0 W/m 5,1 C 6,1 C 6,4 km/h (2 Bft)
23.02.2023 04:00 6,2 C 5,6 C 93 % 1013,6 hPa 0,0 l/m 4,8 km/h (1 Bft) S-SW 202 0 min 0,0 UV-I 0 W/m 5,2 C 6,2 C 8,0 km/h (2 Bft)
23.02.2023 04:01 6,1 C 5,6 C 93 % 1013,6 hPa 0,0 l/m 8,0 km/h (2 Bft) S-SW 202 0 min 0,0 UV-I 0 W/m 5,1 C 4,8 C 9,7 km/h (2 Bft)
23.02.2023 04:02 6,1 C 5,6 C 93 % 1013,5 hPa 0,0 l/m 6,4 km/h (2 Bft) SW 225 0 min 0,0 UV-I 0 W/m 5,1 C 6,1 C 6,4 km/h (2 Bft)
23.02.2023 04:03 6,1 C 5,6 C 93 % 1013,6 hPa 0,0 l/m 3,2 km/h (1 Bft) S-SW 202 0 min 0,0 UV-I 0 W/m 5,1 C 6,1 C 6,4 km/h (2 Bft)
23.02.2023 04:04 6,1 C 5,6 C 93 % 1013,6 hPa 0,0 l/m 3,2 km/h (1 Bft) S-SW 202 0 min 0,0 UV-I 0 W/m 5,1 C 6,1 C 4,8 km/h (1 Bft)
23.02.2023 04:05 6,1 C 5,6 C 93 % 1013,5 hPa 0,0 l/m 3,2 km/h (1 Bft) S-SW 202 0 min 0,0 UV-I 0 W/m 5,1 C 6,1 C 4,8 km/h (1 Bft)
23.02.2023 04:06 6,1 C 5,6 C 93 % 1013,5 hPa 0,0 l/m 3,2 km/h (1 Bft) S-SW 202 0 min 0,0 UV-I 0 W/m 5,1 C 6,1 C 6,4 km/h (2 Bft)
23.02.2023 04:07 6,1 C 5,6 C 93 % 1013,5 hPa 0,0 l/m 3,2 km/h (1 Bft) S-SW 202 0 min 0,0 UV-I 0 W/m 5,1 C 6,1 C 4,8 km/h (1 Bft)
23.02.2023 04:08 6,1 C 5,6 C 93 % 1013,5 hPa 0,0 l/m 4,8 km/h (1 Bft) S-SW 202 0 min 0,0 UV-I 0 W/m 5,1 C 6,1 C 6,4 km/h (2 Bft)
23.02.2023 04:09 6,1 C 5,6 C 93 % 1013,5 hPa 0,0 l/m 3,2 km/h (1 Bft) S-SW 202 0 min 0,0 UV-I 0 W/m 5,1 C 6,1 C 4,8 km/h (1 Bft)
23.02.2023 04:10 6,1 C 5,6 C 93 % 1013,5 hPa 0,0 l/m 4,8 km/h (1 Bft) S-SW 202 0 min 0,0 UV-I 0 W/m 5,1 C 6,1 C 6,4 km/h (2 Bft)
23.02.2023 04:11 6,1 C 5,6 C 93 % 1013,5 hPa 0,0 l/m 4,8 km/h (1 Bft) S-SW 202 0 min 0,0 UV-I 0 W/m 5,1 C 6,1 C 6,4 km/h (2 Bft)
23.02.2023 04:12 6,1 C 5,6 C 93 % 1013,5 hPa 0,0 l/m 4,8 km/h (1 Bft) S-SW 202 0 min 0,0 UV-I 0 W/m 5,1 C 6,1 C 8,0 km/h (2 Bft)
23.02.2023 04:13 6,1 C 5,6 C 93 % 1013,5 hPa 0,0 l/m 4,8 km/h (1 Bft) S-SW 202 0 min 0,0 UV-I 0 W/m 5,1 C 6,1 C 6,4 km/h (2 Bft)
23.02.2023 04:14 6,1 C 5,6 C 93 % 1013,5 hPa 0,0 l/m 4,8 km/h (1 Bft) S-SW 202 0 min 0,0 UV-I 0 W/m 5,1 C 6,1 C 4,8 km/h (1 Bft)
23.02.2023 04:15 6,1 C 5,6 C 93 % 1013,6 hPa 0,0 l/m 6,4 km/h (2 Bft) S 180 0 min 0,0 UV-I 0 W/m 5,1 C 6,1 C 8,0 km/h (2 Bft)
23.02.2023 04:16 6,1 C 5,6 C 93 % 1013,4 hPa 0,0 l/m 3,2 km/h (1 Bft) S 180 0 min 0,0 UV-I 0 W/m 5,1 C 6,1 C 4,8 km/h (1 Bft)
23.02.2023 04:17 6,1 C 5,6 C 93 % 1013,6 hPa 0,0 l/m 4,8 km/h (1 Bft) S 180 0 min 0,0 UV-I 0 W/m 5,1 C 6,1 C 8,0 km/h (2 Bft)
23.02.2023 04:18 6,1 C 5,6 C 93 % 1013,4 hPa 0,0 l/m 4,8 km/h (1 Bft) S-SW 202 0 min 0,0 UV-I 0 W/m 5,1 C 6,1 C 6,4 km/h (2 Bft)
23.02.2023 04:19 6,1 C 5,6 C 93 % 1013,6 hPa 0,0 l/m 4,8 km/h (1 Bft) S-SW 202 0 min 0,0 UV-I 0 W/m 5,1 C 6,1 C 6,4 km/h (2 Bft)
23.02.2023 04:20 6,1 C 5,6 C 93 % 1013,5 hPa 0,0 l/m 4,8 km/h (1 Bft) S-SW 202 0 min 0,0 UV-I 0 W/m 5,1 C 6,1 C 8,0 km/h (2 Bft)
23.02.2023 04:21 6,1 C 5,6 C 93 % 1013,5 hPa 0,0 l/m 3,2 km/h (1 Bft) S-SW 202 0 min 0,0 UV-I 0 W/m 5,1 C 6,1 C 4,8 km/h (1 Bft)
23.02.2023 04:22 6,1 C 5,6 C 93 % 1013,5 hPa 0,0 l/m 4,8 km/h (1 Bft) S-SW 202 0 min 0,0 UV-I 0 W/m 5,1 C 6,1 C 6,4 km/h (2 Bft)
23.02.2023 04:23 6,1 C 5,6 C 93 % 1013,5 hPa 0,0 l/m 3,2 km/h (1 Bft) S-SW 202 0 min 0,0 UV-I 0 W/m 5,1 C 6,1 C 4,8 km/h (1 Bft)
23.02.2023 04:24 6,1 C 5,6 C 93 % 1013,5 hPa 0,0 l/m 4,8 km/h (1 Bft) S-SW 202 0 min 0,0 UV-I 0 W/m 5,1 C 6,1 C 6,4 km/h (2 Bft)
23.02.2023 04:25 6,1 C 5,6 C 93 % 1013,5 hPa 0,0 l/m 3,2 km/h (1 Bft) S-SW 202 0 min 0,0 UV-I 0 W/m 5,1 C 6,1 C 4,8 km/h (1 Bft)
23.02.2023 04:26 6,1 C 5,6 C 93 % 1013,5 hPa 0,0 l/m 3,2 km/h (1 Bft) S-SW 202 0 min 0,0 UV-I 0 W/m 5,1 C 6,1 C 4,8 km/h (1 Bft)
23.02.2023 04:27 6,1 C 5,6 C 93 % 1013,5 hPa 0,0 l/m 1,6 km/h (1 Bft) S-SW 202 0 min 0,0 UV-I 0 W/m 5,1 C 6,1 C 4,8 km/h (1 Bft)
23.02.2023 04:28 6,1 C 5,6 C 93 % 1013,5 hPa 0,0 l/m 3,2 km/h (1 Bft) S-SW 202 0 min 0,0 UV-I 0 W/m 5,1 C 6,1 C 4,8 km/h (1 Bft)
23.02.2023 04:29 6,1 C 5,6 C 93 % 1013,5 hPa 0,0 l/m 3,2 km/h (1 Bft) S-SW 202 0 min 0,0 UV-I 0 W/m 5,1 C 6,1 C 3,2 km/h (1 Bft)
23.02.2023 04:30 6,1 C 5,6 C 93 % 1013,5 hPa 0,0 l/m 3,2 km/h (1 Bft) S-SW 202 0 min 0,0 UV-I 0 W/m 5,1 C 6,1 C 3,2 km/h (1 Bft)
23.02.2023 04:31 6,1 C 5,6 C 93 % 1013,5 hPa 0,0 l/m 3,2 km/h (1 Bft) S-SW 202 0 min 0,0 UV-I 0 W/m 5,1 C 6,1 C 3,2 km/h (1 Bft)
23.02.2023 04:32 6,1 C 5,6 C 93 % 1013,5 hPa 0,0 l/m 1,6 km/h (1 Bft) S-SW 202 0 min 0,0 UV-I 0 W/m 5,1 C 6,1 C 4,8 km/h (1 Bft)
23.02.2023 04:33 6,1 C 5,6 C 93 % 1013,6 hPa 0,0 l/m 0,0 km/h (0 Bft) S-SW 202 0 min 0,0 UV-I 0 W/m 5,1 C 6,1 C 1,6 km/h (1 Bft)
23.02.2023 04:34 6,1 C 5,6 C 93 % 1013,5 hPa 0,0 l/m 0,0 km/h (0 Bft) N 0 0 min 0,0 UV-I 0 W/m 5,1 C 6,1 C 0,0 km/h (0 Bft)
23.02.2023 04:35 6,1 C 5,6 C 93 % 1013,5 hPa 0,0 l/m 0,0 km/h (0 Bft) N 0 0 min 0,0 UV-I 0 W/m 5,1 C 6,1 C 0,0 km/h (0 Bft)
23.02.2023 04:36 6,1 C 5,6 C 93 % 1013,5 hPa 0,0 l/m 0,0 km/h (0 Bft) N 0 0 min 0,0 UV-I 0 W/m 5,1 C 6,1 C 0,0 km/h (0 Bft)
23.02.2023 04:37 6,1 C 5,6 C 93 % 1013,5 hPa 0,0 l/m 0,0 km/h (0 Bft) N 0 0 min 0,0 UV-I 0 W/m 5,1 C 6,1 C 0,0 km/h (0 Bft)
23.02.2023 04:38 6,1 C 5,6 C 93 % 1013,5 hPa 0,0 l/m 0,0 km/h (0 Bft) N 0 0 min 0,0 UV-I 0 W/m 5,1 C 6,1 C 0,0 km/h (0 Bft)
23.02.2023 04:39 6,1 C 5,6 C 93 % 1013,5 hPa 0,0 l/m 0,0 km/h (0 Bft) N 0 0 min 0,0 UV-I 0 W/m 5,1 C 6,1 C 0,0 km/h (0 Bft)
23.02.2023 04:40 6,1 C 5,6 C 93 % 1013,5 hPa 0,0 l/m 0,0 km/h (0 Bft) N 0 0 min 0,0 UV-I 0 W/m 5,1 C 6,1 C 0,0 km/h (0 Bft)
23.02.2023 04:41 6,1 C 5,6 C 93 % 1013,6 hPa 0,0 l/m 0,0 km/h (0 Bft) N 0 0 min 0,0 UV-I 0 W/m 5,1 C 6,1 C 0,0 km/h (0 Bft)
23.02.2023 04:42 6,1 C 5,6 C 93 % 1013,5 hPa 0,0 l/m 0,0 km/h (0 Bft) N 0 0 min 0,0 UV-I 0 W/m 5,1 C 6,1 C 0,0 km/h (0 Bft)
23.02.2023 04:43 6,1 C 5,6 C 93 % 1013,4 hPa 0,0 l/m 0,0 km/h (0 Bft) N 0 0 min 0,0 UV-I 0 W/m 5,1 C 6,1 C 0,0 km/h (0 Bft)
23.02.2023 04:44 6,1 C 5,6 C 93 % 1013,5 hPa 0,0 l/m 0,0 km/h (0 Bft) N 0 0 min 0,0 UV-I 0 W/m 5,1 C 6,1 C 0,0 km/h (0 Bft)
23.02.2023 04:45 6,1 C 5,6 C 93 % 1013,5 hPa 0,0 l/m 0,0 km/h (0 Bft) N 0 0 min 0,0 UV-I 0 W/m 5,1 C 6,1 C 0,0 km/h (0 Bft)
23.02.2023 04:46 6,1 C 5,6 C 93 % 1013,5 hPa 0,0 l/m 0,0 km/h (0 Bft) N 0 0 min 0,0 UV-I 0 W/m 5,1 C 6,1 C 0,0 km/h (0 Bft)
23.02.2023 04:47 6,1 C 5,6 C 93 % 1013,5 hPa 0,0 l/m 0,0 km/h (0 Bft) N 0 0 min 0,0 UV-I 0 W/m 5,1 C 6,1 C 0,0 km/h (0 Bft)
23.02.2023 04:48 6,1 C 5,6 C 93 % 1013,5 hPa 0,0 l/m 0,0 km/h (0 Bft) S-SW 202 0 min 0,0 UV-I 0 W/m 5,1 C 6,1 C 1,6 km/h (1 Bft)
23.02.2023 04:49 6,1 C 5,6 C 93 % 1013,5 hPa 0,0 l/m 0,0 km/h (0 Bft) N 0 0 min 0,0 UV-I 0 W/m 5,1 C 6,1 C 0,0 km/h (0 Bft)
23.02.2023 04:50 6,1 C 5,6 C 93 % 1013,5 hPa 0,0 l/m 0,0 km/h (0 Bft) N 0 0 min 0,0 UV-I 0 W/m 5,1 C 6,1 C 0,0 km/h (0 Bft)
23.02.2023 04:51 6,1 C 5,6 C 93 % 1013,5 hPa 0,0 l/m 0,0 km/h (0 Bft) N 0 0 min 0,0 UV-I 0 W/m 5,1 C 6,1 C 0,0 km/h (0 Bft)
23.02.2023 04:52 6,1 C 5,6 C 93 % 1013,6 hPa 0,0 l/m 0,0 km/h (0 Bft) N 0 0 min 0,0 UV-I 0 W/m 5,1 C 6,1 C 0,0 km/h (0 Bft)
23.02.2023 04:53 6,1 C 5,6 C 93 % 1013,5 hPa 0,0 l/m 0,0 km/h (0 Bft) N 0 0 min 0,0 UV-I 0 W/m 5,1 C 6,1 C 0,0 km/h (0 Bft)
23.02.2023 04:54 6,1 C 5,6 C 93 % 1013,5 hPa 0,0 l/m 0,0 km/h (0 Bft) N 0 0 min 0,0 UV-I 0 W/m 5,1 C 6,1 C 0,0 km/h (0 Bft)
23.02.2023 04:55 6,1 C 5,6 C 93 % 1013,5 hPa 0,0 l/m 0,0 km/h (0 Bft) S-SW 202 0 min 0,0 UV-I 0 W/m 5,1 C 6,1 C 1,6 km/h (1 Bft)
23.02.2023 04:56 6,1 C 5,6 C 93 % 1013,6 hPa 0,0 l/m 0,0 km/h (0 Bft) N 0 0 min 0,0 UV-I 0 W/m 5,1 C 6,1 C 0,0 km/h (0 Bft)
23.02.2023 04:57 6,1 C 5,6 C 93 % 1013,6 hPa 0,0 l/m 0,0 km/h (0 Bft) N 0 0 min 0,0 UV-I 0 W/m 5,1 C 6,1 C 0,0 km/h (0 Bft)
23.02.2023 04:58 6,1 C 5,6 C 93 % 1013,5 hPa 0,0 l/m 0,0 km/h (0 Bft) N 0 0 min 0,0 UV-I 0 W/m 5,1 C 6,1 C 0,0 km/h (0 Bft)
23.02.2023 04:59 6,1 C 5,6 C 93 % 1013,5 hPa 0,0 l/m 0,0 km/h (0 Bft) N 0 0 min 0,0 UV-I 0 W/m 5,1 C 6,1 C 0,0 km/h (0 Bft)
23.02.2023 05:00 6,1 C 5,6 C 93 % 1013,6 hPa 0,0 l/m 0,0 km/h (0 Bft) N 0 0 min 0,0 UV-I 0 W/m 5,1 C 6,1 C 0,0 km/h (0 Bft)
23.02.2023 05:01 6,1 C 5,6 C 93 % 1013,6 hPa 0,0 l/m 1,6 km/h (1 Bft) S-SW 202 0 min 0,0 UV-I 0 W/m 5,1 C 6,1 C 4,8 km/h (1 Bft)
23.02.2023 05:02 6,1 C 5,6 C 93 % 1013,6 hPa 0,0 l/m 0,0 km/h (0 Bft) N 0 0 min 0,0 UV-I 0 W/m 5,1 C 6,1 C 0,0 km/h (0 Bft)
23.02.2023 05:03 6,1 C 5,6 C 93 % 1013,6 hPa 0,0 l/m 0,0 km/h (0 Bft) N 0 0 min 0,0 UV-I 0 W/m 5,1 C 6,1 C 0,0 km/h (0 Bft)
23.02.2023 05:04 6,1 C 5,6 C 93 % 1013,6 hPa 0,0 l/m 0,0 km/h (0 Bft) N 0 0 min 0,0 UV-I 0 W/m 5,1 C 6,1 C 0,0 km/h (0 Bft)
23.02.2023 05:05 6,1 C 5,6 C 93 % 1013,6 hPa 0,0 l/m 0,0 km/h (0 Bft) N 0 0 min 0,0 UV-I 0 W/m 5,1 C 6,1 C 0,0 km/h (0 Bft)
23.02.2023 05:06 6,1 C 5,6 C 93 % 1013,5 hPa 0,0 l/m 0,0 km/h (0 Bft) S-SW 202 0 min 0,0 UV-I 0 W/m 5,1 C 6,1 C 1,6 km/h (1 Bft)
23.02.2023 05:07 6,1 C 5,6 C 93 % 1013,5 hPa 0,0 l/m 0,0 km/h (0 Bft) N 0 0 min 0,0 UV-I 0 W/m 5,1 C 6,1 C 0,0 km/h (0 Bft)
23.02.2023 05:08 6,1 C 5,6 C 93 % 1013,6 hPa 0,0 l/m 0,0 km/h (0 Bft) N 0 0 min 0,0 UV-I 0 W/m 5,1 C 6,1 C 0,0 km/h (0 Bft)
23.02.2023 05:09 6,1 C 5,6 C 93 % 1013,6 hPa 0,0 l/m 0,0 km/h (0 Bft) N 0 0 min 0,0 UV-I 0 W/m 5,1 C 6,1 C 0,0 km/h (0 Bft)
23.02.2023 05:10 6,1 C 5,6 C 93 % 1013,6 hPa 0,0 l/m 0,0 km/h (0 Bft) N 0 0 min 0,0 UV-I 0 W/m 5,1 C 6,1 C 0,0 km/h (0 Bft)
23.02.2023 05:11 6,0 C 5,6 C 93 % 1013,6 hPa 0,0 l/m 0,0 km/h (0 Bft) N 0 0 min 0,0 UV-I 0 W/m 5,0 C 6,0 C 0,0 km/h (0 Bft)
23.02.2023 05:12 6,1 C 5,6 C 93 % 1013,5 hPa 0,0 l/m 0,0 km/h (0 Bft) N 0 0 min 0,0 UV-I 0 W/m 5,1 C 6,1 C 0,0 km/h (0 Bft)
23.02.2023 05:13 6,1 C 5,6 C 93 % 1013,6 hPa 0,0 l/m 0,0 km/h (0 Bft) S-SW 202 0 min 0,0 UV-I 0 W/m 5,1 C 6,1 C 1,6 km/h (1 Bft)
23.02.2023 05:14 6,1 C 5,6 C 93 % 1013,5 hPa 0,0 l/m 0,0 km/h (0 Bft) S-SW 202 0 min 0,0 UV-I 0 W/m 5,1 C 6,1 C 1,6 km/h (1 Bft)
23.02.2023 05:15 6,1 C 5,6 C 93 % 1013,6 hPa 0,0 l/m 0,0 km/h (0 Bft) N 0 0 min 0,0 UV-I 0 W/m 5,1 C 6,1 C 0,0 km/h (0 Bft)
23.02.2023 05:16 6,1 C 5,6 C 93 % 1013,5 hPa 0,0 l/m 0,0 km/h (0 Bft) N 0 0 min 0,0 UV-I 0 W/m 5,1 C 6,1 C 0,0 km/h (0 Bft)
23.02.2023 05:17 6,1 C 5,6 C 93 % 1013,5 hPa 0,0 l/m 0,0 km/h (0 Bft) N 0 0 min 0,0 UV-I 0 W/m 5,1 C 6,1 C 0,0 km/h (0 Bft)
23.02.2023 05:18 6,1 C 5,6 C 93 % 1013,6 hPa 0,0 l/m 0,0 km/h (0 Bft) N 0 0 min 0,0 UV-I 0 W/m 5,1 C 6,1 C 0,0 km/h (0 Bft)
23.02.2023 05:19 6,1 C 5,6 C 93 % 1013,6 hPa 0,0 l/m 1,6 km/h (1 Bft) S-SW 202 0 min 0,0 UV-I 0 W/m 5,1 C 6,1 C 3,2 km/h (1 Bft)
23.02.2023 05:20 6,1 C 5,6 C 93 % 1013,5 hPa 0,0 l/m 4,8 km/h (1 Bft) S-SW 202 0 min 0,0 UV-I 0 W/m 5,1 C 6,1 C 4,8 km/h (1 Bft)
23.02.2023 05:21 6,1 C 5,6 C 93 % 1013,6 hPa 0,0 l/m 3,2 km/h (1 Bft) S-SW 202 0 min 0,0 UV-I 0 W/m 5,1 C 6,1 C 4,8 km/h (1 Bft)
23.02.2023 05:22 6,1 C 5,6 C 93 % 1013,6 hPa 0,0 l/m 3,2 km/h (1 Bft) S-SW 202 0 min 0,0 UV-I 0 W/m 5,1 C 6,1 C 4,8 km/h (1 Bft)
23.02.2023 05:23 6,1 C 5,6 C 93 % 1013,5 hPa 0,0 l/m 3,2 km/h (1 Bft) S-SW 202 0 min 0,0 UV-I 0 W/m 5,1 C 6,1 C 6,4 km/h (2 Bft)
23.02.2023 05:24 6,1 C 5,6 C 93 % 1013,6 hPa 0,0 l/m 3,2 km/h (1 Bft) S-SW 202 0 min 0,0 UV-I 0 W/m 5,1 C 6,1 C 6,4 km/h (2 Bft)
23.02.2023 05:25 6,1 C 5,6 C 93 % 1013,5 hPa 0,0 l/m 1,6 km/h (1 Bft) S-SW 202 0 min 0,0 UV-I 0 W/m 5,1 C 6,1 C 3,2 km/h (1 Bft)
23.02.2023 05:26 6,1 C 5,6 C 93 % 1013,5 hPa 0,0 l/m 1,6 km/h (1 Bft) S-SW 202 0 min 0,0 UV-I 0 W/m 5,1 C 6,1 C 3,2 km/h (1 Bft)
23.02.2023 05:27 6,1 C 5,6 C 93 % 1013,6 hPa 0,0 l/m 3,2 km/h (1 Bft) S-SW 202 0 min 0,0 UV-I 0 W/m 5,1 C 6,1 C 3,2 km/h (1 Bft)
23.02.2023 05:28 6,1 C 5,6 C 93 % 1013,6 hPa 0,0 l/m 1,6 km/h (1 Bft) S-SW 202 0 min 0,0 UV-I 0 W/m 5,1 C 6,1 C 4,8 km/h (1 Bft)
23.02.2023 05:29 6,0 C 5,6 C 93 % 1013,6 hPa 0,0 l/m 1,6 km/h (1 Bft) S-SW 202 0 min 0,0 UV-I 0 W/m 5,0 C 6,0 C 3,2 km/h (1 Bft)
23.02.2023 05:30 6,0 C 5,6 C 93 % 1013,6 hPa 0,0 l/m 3,2 km/h (1 Bft) S-SW 202 0 min 0,0 UV-I 0 W/m 5,0 C 6,0 C 4,8 km/h (1 Bft)
23.02.2023 05:31 6,1 C 5,6 C 93 % 1013,6 hPa 0,0 l/m 3,2 km/h (1 Bft) S-SW 202 0 min 0,0 UV-I 0 W/m 5,1 C 6,1 C 4,8 km/h (1 Bft)
23.02.2023 05:32 6,1 C 5,6 C 93 % 1013,5 hPa 0,0 l/m 0,0 km/h (0 Bft) S-SW 202 0 min 0,0 UV-I 0 W/m 5,1 C 6,1 C 1,6 km/h (1 Bft)
23.02.2023 05:33 6,1 C 5,6 C 93 % 1013,7 hPa 0,0 l/m 0,0 km/h (0 Bft) S-SW 202 0 min 0,0 UV-I 0 W/m 5,1 C 6,1 C 1,6 km/h (1 Bft)
23.02.2023 05:34 6,1 C 5,6 C 93 % 1013,6 hPa 0,0 l/m 0,0 km/h (0 Bft) S-SW 202 0 min 0,0 UV-I 0 W/m 5,1 C 6,1 C 1,6 km/h (1 Bft)
23.02.2023 05:35 6,0 C 5,6 C 93 % 1013,6 hPa 0,0 l/m 0,0 km/h (0 Bft) S-SW 202 0 min 0,0 UV-I 0 W/m 5,0 C 6,0 C 1,6 km/h (1 Bft)
23.02.2023 05:36 6,0 C 5,6 C 93 % 1013,6 hPa 0,0 l/m 0,0 km/h (0 Bft) S-SW 202 0 min 0,0 UV-I 0 W/m 5,0 C 6,0 C 1,6 km/h (1 Bft)
23.02.2023 05:37 6,1 C 5,6 C 93 % 1013,6 hPa 0,0 l/m 0,0 km/h (0 Bft) S-SW 202 0 min 0,0 UV-I 0 W/m 5,1 C 6,1 C 1,6 km/h (1 Bft)
23.02.2023 05:38 6,0 C 5,6 C 93 % 1013,5 hPa 0,0 l/m 0,0 km/h (0 Bft) N 0 0 min 0,0 UV-I 0 W/m 5,0 C 6,0 C 0,0 km/h (0 Bft)
23.02.2023 05:39 6,1 C 5,6 C 93 % 1013,6 hPa 0,0 l/m 0,0 km/h (0 Bft) N 0 0 min 0,0 UV-I 0 W/m 5,1 C 6,1 C 0,0 km/h (0 Bft)
23.02.2023 05:40 6,1 C 5,6 C 93 % 1013,6 hPa 0,0 l/m 0,0 km/h (0 Bft) N 0 0 min 0,0 UV-I 0 W/m 5,1 C 6,1 C 0,0 km/h (0 Bft)
23.02.2023 05:41 6,0 C 5,6 C 93 % 1013,6 hPa 0,0 l/m 0,0 km/h (0 Bft) N 0 0 min 0,0 UV-I 0 W/m 5,0 C 6,0 C 0,0 km/h (0 Bft)
23.02.2023 05:42 6,0 C 5,6 C 93 % 1013,6 hPa 0,0 l/m 0,0 km/h (0 Bft) N 0 0 min 0,0 UV-I 0 W/m 5,0 C 6,0 C 0,0 km/h (0 Bft)
23.02.2023 05:43 6,0 C 5,6 C 93 % 1013,6 hPa 0,0 l/m 0,0 km/h (0 Bft) S-SW 202 0 min 0,0 UV-I 0 W/m 5,0 C 6,0 C 1,6 km/h (1 Bft)
23.02.2023 05:44 6,0 C 5,6 C 93 % 1013,6 hPa 0,0 l/m 0,0 km/h (0 Bft) S-SW 202 0 min 0,0 UV-I 0 W/m 5,0 C 6,0 C 1,6 km/h (1 Bft)
23.02.2023 05:45 6,0 C 5,6 C 93 % 1013,6 hPa 0,0 l/m 1,6 km/h (1 Bft) S-SW 202 0 min 0,0 UV-I 0 W/m 5,0 C 6,0 C 3,2 km/h (1 Bft)
23.02.2023 05:46 6,0 C 5,6 C 93 % 1013,6 hPa 0,0 l/m 1,6 km/h (1 Bft) S-SW 202 0 min 0,0 UV-I 0 W/m 5,0 C 6,0 C 3,2 km/h (1 Bft)
23.02.2023 05:47 6,0 C 5,6 C 93 % 1013,7 hPa 0,0 l/m 1,6 km/h (1 Bft) S-SW 202 0 min 0,0 UV-I 0 W/m 5,0 C 6,0 C 1,6 km/h (1 Bft)
23.02.2023 05:48 6,0 C 5,6 C 93 % 1013,6 hPa 0,0 l/m 1,6 km/h (1 Bft) S-SW 202 0 min 0,0 UV-I 0 W/m 5,0 C 6,0 C 4,8 km/h (1 Bft)
23.02.2023 05:49 6,0 C 5,6 C 93 % 1013,6 hPa 0,0 l/m 3,2 km/h (1 Bft) SW 225 0 min 0,0 UV-I 0 W/m 5,0 C 6,0 C 6,4 km/h (2 Bft)
23.02.2023 05:50 6,0 C 5,6 C 93 % 1013,6 hPa 0,0 l/m 1,6 km/h (1 Bft) SW 225 0 min 0,0 UV-I 0 W/m 5,0 C 6,0 C 3,2 km/h (1 Bft)
23.02.2023 05:51 6,0 C 5,6 C 93 % 1013,6 hPa 0,0 l/m 3,2 km/h (1 Bft) SW 225 0 min 0,0 UV-I 0 W/m 5,0 C 6,0 C 4,8 km/h (1 Bft)
23.02.2023 05:52 6,0 C 5,6 C 93 % 1013,6 hPa 0,0 l/m 3,2 km/h (1 Bft) SW 225 0 min 0,0 UV-I 0 W/m 5,0 C 6,0 C 6,4 km/h (2 Bft)
23.02.2023 05:53 6,1 C 5,6 C 93 % 1013,7 hPa 0,0 l/m 1,6 km/h (1 Bft) SW 225 0 min 0,0 UV-I 0 W/m 5,1 C 6,1 C 6,4 km/h (2 Bft)
23.02.2023 05:54 6,0 C 5,6 C 94 % 1013,7 hPa 0,0 l/m 1,6 km/h (1 Bft) SW 225 0 min 0,0 UV-I 0 W/m 5,1 C 6,0 C 3,2 km/h (1 Bft)
23.02.2023 05:55 6,0 C 5,6 C 94 % 1013,7 hPa 0,0 l/m 3,2 km/h (1 Bft) W-SW 247 0 min 0,0 UV-I 0 W/m 5,1 C 6,0 C 6,4 km/h (2 Bft)
23.02.2023 05:56 6,0 C 5,6 C 93 % 1013,7 hPa 0,0 l/m 4,8 km/h (1 Bft) W-SW 247 0 min 0,0 UV-I 0 W/m 5,0 C 6,0 C 6,4 km/h (2 Bft)
23.02.2023 05:57 6,0 C 5,6 C 93 % 1013,6 hPa 0,0 l/m 3,2 km/h (1 Bft) W-SW 247 0 min 0,0 UV-I 0 W/m 5,0 C 6,0 C 4,8 km/h (1 Bft)
23.02.2023 05:58 6,0 C 5,6 C 93 % 1013,6 hPa 0,0 l/m 3,2 km/h (1 Bft) W-SW 247 0 min 0,0 UV-I 0 W/m 5,0 C 6,0 C 4,8 km/h (1 Bft)
23.02.2023 05:59 6,0 C 5,6 C 94 % 1013,6 hPa 0,0 l/m 3,2 km/h (1 Bft) W-SW 247 0 min 0,0 UV-I 0 W/m 5,1 C 6,0 C 4,8 km/h (1 Bft)
23.02.2023 06:00 6,0 C 5,6 C 93 % 1013,7 hPa 0,0 l/m 3,2 km/h (1 Bft) W-SW 247 0 min 0,0 UV-I 0 W/m 5,0 C 6,0 C 4,8 km/h (1 Bft)
23.02.2023 06:01 5,9 C 5,6 C 93 % 1013,6 hPa 0,0 l/m 3,2 km/h (1 Bft) W-SW 247 0 min 0,0 UV-I 0 W/m 4,9 C 5,9 C 6,4 km/h (2 Bft)
23.02.2023 06:02 6,0 C 5,6 C 94 % 1013,7 hPa 0,0 l/m 3,2 km/h (1 Bft) W-SW 247 0 min 0,0 UV-I 0 W/m 5,1 C 6,0 C 6,4 km/h (2 Bft)
23.02.2023 06:03 5,9 C 5,6 C 93 % 1013,6 hPa 0,0 l/m 3,2 km/h (1 Bft) W-SW 247 0 min 0,0 UV-I 0 W/m 4,9 C 5,9 C 4,8 km/h (1 Bft)
23.02.2023 06:04 5,9 C 5,6 C 94 % 1013,6 hPa 0,0 l/m 3,2 km/h (1 Bft) W-SW 247 0 min 0,0 UV-I 0 W/m 5,0 C 5,9 C 4,8 km/h (1 Bft)
23.02.2023 06:05 5,9 C 5,6 C 93 % 1013,7 hPa 0,0 l/m 4,8 km/h (1 Bft) W-SW 247 0 min 0,0 UV-I 0 W/m 4,9 C 5,9 C 6,4 km/h (2 Bft)
23.02.2023 06:06 6,0 C 5,6 C 94 % 1013,7 hPa 0,0 l/m 1,6 km/h (1 Bft) W-SW 247 0 min 0,0 UV-I 0 W/m 5,1 C 6,0 C 4,8 km/h (1 Bft)
23.02.2023 06:07 5,9 C 5,6 C 94 % 1013,7 hPa 0,0 l/m 1,6 km/h (1 Bft) W-SW 247 0 min 0,0 UV-I 0 W/m 5,0 C 5,9 C 4,8 km/h (1 Bft)
23.02.2023 06:08 5,9 C 5,6 C 94 % 1013,7 hPa 0,0 l/m 0,0 km/h (0 Bft) W-SW 247 0 min 0,0 UV-I 0 W/m 5,0 C 5,9 C 1,6 km/h (1 Bft)
23.02.2023 06:09 6,0 C 5,6 C 94 % 1013,7 hPa 0,0 l/m 0,0 km/h (0 Bft) W-SW 247 0 min 0,0 UV-I 0 W/m 5,1 C 6,0 C 3,2 km/h (1 Bft)
23.02.2023 06:10 5,9 C 5,6 C 94 % 1013,7 hPa 0,0 l/m 1,6 km/h (1 Bft) W-SW 247 0 min 0,0 UV-I 0 W/m 5,0 C 5,9 C 4,8 km/h (1 Bft)
23.02.2023 06:11 5,9 C 5,6 C 94 % 1013,7 hPa 0,0 l/m 3,2 km/h (1 Bft) W-SW 247 0 min 0,0 UV-I 0 W/m 5,0 C 5,9 C 6,4 km/h (2 Bft)
23.02.2023 06:12 5,9 C 5,6 C 94 % 1013,8 hPa 0,0 l/m 1,6 km/h (1 Bft) W-SW 247 0 min 0,0 UV-I 0 W/m 5,0 C 5,9 C 3,2 km/h (1 Bft)
23.02.2023 06:13 5,9 C 5,6 C 94 % 1013,7 hPa 0,0 l/m 0,0 km/h (0 Bft) W-SW 247 0 min 0,0 UV-I 0 W/m 5,0 C 5,9 C 1,6 km/h (1 Bft)
23.02.2023 06:14 5,9 C 5,6 C 94 % 1013,7 hPa 0,0 l/m 4,8 km/h (1 Bft) W-SW 247 0 min 0,0 UV-I 0 W/m 5,0 C 5,9 C 8,0 km/h (2 Bft)
23.02.2023 06:15 5,9 C 5,6 C 94 % 1013,7 hPa 0,0 l/m 4,8 km/h (1 Bft) W-SW 247 0 min 0,0 UV-I 0 W/m 5,0 C 5,9 C 6,4 km/h (2 Bft)
23.02.2023 06:16 5,9 C 5,6 C 94 % 1013,7 hPa 0,0 l/m 4,8 km/h (1 Bft) W-SW 247 0 min 0,0 UV-I 0 W/m 5,0 C 5,9 C 6,4 km/h (2 Bft)
23.02.2023 06:17 5,9 C 5,6 C 94 % 1013,7 hPa 0,0 l/m 3,2 km/h (1 Bft) W-SW 247 0 min 0,0 UV-I 0 W/m 5,0 C 5,9 C 6,4 km/h (2 Bft)
23.02.2023 06:18 5,9 C 5,6 C 94 % 1013,7 hPa 0,0 l/m 6,4 km/h (2 Bft) W-SW 247 0 min 0,0 UV-I 0 W/m 5,0 C 5,9 C 9,7 km/h (2 Bft)
23.02.2023 06:19 5,9 C 5,6 C 94 % 1013,7 hPa 0,0 l/m 3,2 km/h (1 Bft) W-SW 247 0 min 0,0 UV-I 0 W/m 5,0 C 5,9 C 4,8 km/h (1 Bft)
23.02.2023 06:20 5,9 C 5,6 C 94 % 1013,7 hPa 0,0 l/m 6,4 km/h (2 Bft) W-SW 247 0 min 0,0 UV-I 0 W/m 5,0 C 5,9 C 8,0 km/h (2 Bft)
23.02.2023 06:21 5,9 C 5,6 C 93 % 1013,8 hPa 0,0 l/m 4,8 km/h (1 Bft) W 270 0 min 0,0 UV-I 0 W/m 4,9 C 5,9 C 11,3 km/h (2 Bft)
23.02.2023 06:22 5,9 C 5,6 C 93 % 1013,8 hPa 0,0 l/m 6,4 km/h (2 Bft) W 270 0 min 0,0 UV-I 0 W/m 4,9 C 5,9 C 9,7 km/h (2 Bft)
23.02.2023 06:23 5,9 C 5,6 C 94 % 1013,8 hPa 0,0 l/m 3,2 km/h (1 Bft) W 270 0 min 0,0 UV-I 0 W/m 5,0 C 5,9 C 6,4 km/h (2 Bft)
23.02.2023 06:24 5,9 C 5,6 C 93 % 1013,7 hPa 0,0 l/m 4,8 km/h (1 Bft) W-SW 247 0 min 0,0 UV-I 0 W/m 4,9 C 5,9 C 6,4 km/h (2 Bft)
23.02.2023 06:25 5,9 C 5,6 C 94 % 1013,8 hPa 0,0 l/m 6,4 km/h (2 Bft) W-SW 247 0 min 0,0 UV-I 0 W/m 5,0 C 5,9 C 6,4 km/h (2 Bft)
23.02.2023 06:26 5,9 C 5,6 C 94 % 1013,8 hPa 0,0 l/m 3,2 km/h (1 Bft) W 270 0 min 0,0 UV-I 0 W/m 5,0 C 5,9 C 4,8 km/h (1 Bft)
23.02.2023 06:27 5,9 C 5,6 C 94 % 1013,8 hPa 0,0 l/m 4,8 km/h (1 Bft) W-SW 247 0 min 0,0 UV-I 0 W/m 5,0 C 5,9 C 6,4 km/h (2 Bft)
23.02.2023 06:28 5,9 C 5,6 C 93 % 1013,7 hPa 0,0 l/m 3,2 km/h (1 Bft) W-SW 247 0 min 0,0 UV-I 0 W/m 4,9 C 5,9 C 4,8 km/h (1 Bft)
23.02.2023 06:29 5,9 C 5,6 C 94 % 1013,8 hPa 0,0 l/m 6,4 km/h (2 Bft) W-SW 247 0 min 0,0 UV-I 0 W/m 5,0 C 5,9 C 8,0 km/h (2 Bft)
23.02.2023 06:30 5,9 C 5,6 C 93 % 1013,8 hPa 0,0 l/m 3,2 km/h (1 Bft) W-SW 247 0 min 0,0 UV-I 0 W/m 4,9 C 5,9 C 6,4 km/h (2 Bft)
23.02.2023 06:31 5,9 C 5,6 C 93 % 1013,9 hPa 0,0 l/m 4,8 km/h (1 Bft) W-SW 247 0 min 0,0 UV-I 0 W/m 4,9 C 5,9 C 8,0 km/h (2 Bft)
23.02.2023 06:32 5,9 C 5,6 C 93 % 1013,8 hPa 0,0 l/m 3,2 km/h (1 Bft) W-SW 247 0 min 0,0 UV-I 0 W/m 4,9 C 5,9 C 4,8 km/h (1 Bft)
23.02.2023 06:33 5,9 C 5,6 C 93 % 1013,7 hPa 0,0 l/m 4,8 km/h (1 Bft) W-SW 247 0 min 0,0 UV-I 0 W/m 4,9 C 5,9 C 6,4 km/h (2 Bft)
23.02.2023 06:34 5,9 C 5,6 C 93 % 1013,7 hPa 0,0 l/m 3,2 km/h (1 Bft) W-SW 247 0 min 0,0 UV-I 0 W/m 4,9 C 5,9 C 6,4 km/h (2 Bft)
23.02.2023 06:35 5,9 C 5,6 C 94 % 1013,8 hPa 0,0 l/m 3,2 km/h (1 Bft) W-SW 247 0 min 0,0 UV-I 0 W/m 5,0 C 5,9 C 6,4 km/h (2 Bft)
23.02.2023 06:36 5,9 C 5,6 C 93 % 1013,8 hPa 0,0 l/m 1,6 km/h (1 Bft) W-SW 247 0 min 0,0 UV-I 0 W/m 4,9 C 5,9 C 4,8 km/h (1 Bft)
23.02.2023 06:37 5,9 C 5,6 C 93 % 1013,7 hPa 0,0 l/m 3,2 km/h (1 Bft) W-SW 247 0 min 0,0 UV-I 0 W/m 4,9 C 5,9 C 4,8 km/h (1 Bft)
23.02.2023 06:38 5,9 C 5,6 C 93 % 1013,8 hPa 0,0 l/m 4,8 km/h (1 Bft) W-SW 247 0 min 0,0 UV-I 0 W/m 4,9 C 5,9 C 8,0 km/h (2 Bft)
23.02.2023 06:39 5,9 C 5,6 C 93 % 1013,9 hPa 0,0 l/m 4,8 km/h (1 Bft) W-SW 247 0 min 0,0 UV-I 0 W/m 4,9 C 5,9 C 6,4 km/h (2 Bft)
23.02.2023 06:40 5,8 C 5,6 C 94 % 1013,9 hPa 0,0 l/m 6,4 km/h (2 Bft) W-SW 247 0 min 0,0 UV-I 0 W/m 4,9 C 5,8 C 8,0 km/h (2 Bft)
23.02.2023 06:41 5,9 C 5,6 C 94 % 1013,8 hPa 0,0 l/m 4,8 km/h (1 Bft) W-SW 247 0 min 0,0 UV-I 0 W/m 5,0 C 5,9 C 6,4 km/h (2 Bft)
23.02.2023 06:42 5,9 C 5,6 C 93 % 1013,9 hPa 0,0 l/m 3,2 km/h (1 Bft) W-SW 247 0 min 0,0 UV-I 0 W/m 4,9 C 5,9 C 6,4 km/h (2 Bft)
23.02.2023 06:43 5,8 C 5,6 C 94 % 1013,8 hPa 0,0 l/m 4,8 km/h (1 Bft) W 270 0 min 0,0 UV-I 0 W/m 4,9 C 5,8 C 9,7 km/h (2 Bft)
23.02.2023 06:44 5,8 C 5,6 C 94 % 1013,8 hPa 0,0 l/m 3,2 km/h (1 Bft) W 270 0 min 0,0 UV-I 0 W/m 4,9 C 5,8 C 4,8 km/h (1 Bft)
23.02.2023 06:45 5,8 C 5,6 C 94 % 1013,9 hPa 0,0 l/m 1,6 km/h (1 Bft) W 270 0 min 0,0 UV-I 0 W/m 4,9 C 5,8 C 3,2 km/h (1 Bft)
23.02.2023 06:46 5,9 C 5,6 C 94 % 1013,8 hPa 0,0 l/m 3,2 km/h (1 Bft) W 270 0 min 0,0 UV-I 0 W/m 5,0 C 5,9 C 4,8 km/h (1 Bft)
23.02.2023 06:47 5,9 C 5,6 C 94 % 1013,8 hPa 0,0 l/m 1,6 km/h (1 Bft) W 270 0 min 0,0 UV-I 0 W/m 5,0 C 5,9 C 8,0 km/h (2 Bft)
23.02.2023 06:48 5,9 C 5,6 C 94 % 1013,8 hPa 0,0 l/m 6,4 km/h (2 Bft) SW 225 0 min 0,0 UV-I 0 W/m 5,0 C 5,9 C 8,0 km/h (2 Bft)
23.02.2023 06:49 5,8 C 5,6 C 94 % 1013,9 hPa 0,0 l/m 3,2 km/h (1 Bft) SW 225 0 min 0,0 UV-I 0 W/m 4,9 C 5,8 C 6,4 km/h (2 Bft)
23.02.2023 06:50 5,9 C 5,6 C 94 % 1013,8 hPa 0,0 l/m 3,2 km/h (1 Bft) SW 225 0 min 0,0 UV-I 0 W/m 5,0 C 5,9 C 8,0 km/h (2 Bft)
23.02.2023 06:51 5,9 C 5,6 C 94 % 1013,9 hPa 0,0 l/m 4,8 km/h (1 Bft) SW 225 0 min 0,0 UV-I 0 W/m 5,0 C 5,9 C 8,0 km/h (2 Bft)
23.02.2023 06:52 5,8 C 5,6 C 94 % 1013,9 hPa 0,0 l/m 3,2 km/h (1 Bft) W-SW 247 0 min 0,0 UV-I 0 W/m 4,9 C 5,8 C 6,4 km/h (2 Bft)
23.02.2023 06:53 5,8 C 5,6 C 94 % 1013,8 hPa 0,0 l/m 3,2 km/h (1 Bft) W-SW 247 0 min 0,0 UV-I 0 W/m 4,9 C 5,8 C 4,8 km/h (1 Bft)
23.02.2023 06:54 5,9 C 5,6 C 94 % 1013,8 hPa 0,0 l/m 4,8 km/h (1 Bft) W-SW 247 0 min 0,0 UV-I 0 W/m 5,0 C 5,9 C 4,8 km/h (1 Bft)
23.02.2023 06:55 5,8 C 5,6 C 94 % 1013,9 hPa 0,0 l/m 1,6 km/h (1 Bft) W-SW 247 0 min 0,0 UV-I 0 W/m 4,9 C 5,8 C 4,8 km/h (1 Bft)
23.02.2023 06:56 5,8 C 5,6 C 94 % 1013,9 hPa 0,0 l/m 1,6 km/h (1 Bft) W-SW 247 0 min 0,0 UV-I 0 W/m 4,9 C 5,8 C 4,8 km/h (1 Bft)
23.02.2023 06:57 5,8 C 5,6 C 94 % 1013,9 hPa 0,0 l/m 4,8 km/h (1 Bft) W-SW 247 0 min 0,0 UV-I 0 W/m 4,9 C 5,8 C 6,4 km/h (2 Bft)
23.02.2023 06:58 5,8 C 5,6 C 94 % 1014,0 hPa 0,0 l/m 1,6 km/h (1 Bft) W-SW 247 0 min 0,0 UV-I 0 W/m 4,9 C 5,8 C 3,2 km/h (1 Bft)
23.02.2023 06:59 5,8 C 5,6 C 94 % 1013,9 hPa 0,0 l/m 1,6 km/h (1 Bft) W-SW 247 0 min 0,0 UV-I 0 W/m 4,9 C 5,8 C 3,2 km/h (1 Bft)
23.02.2023 07:00 5,8 C 5,6 C 94 % 1013,9 hPa 0,0 l/m 0,0 km/h (0 Bft) W-SW 247 0 min 0,0 UV-I 0 W/m 4,9 C 5,8 C 1,6 km/h (1 Bft)
23.02.2023 07:01 5,8 C 5,6 C 94 % 1013,9 hPa 0,0 l/m 0,0 km/h (0 Bft) W-SW 247 0 min 0,0 UV-I 0 W/m 4,9 C 5,8 C 1,6 km/h (1 Bft)
23.02.2023 07:02 5,8 C 5,6 C 94 % 1014,0 hPa 0,0 l/m 0,0 km/h (0 Bft) N 0 0 min 0,0 UV-I 0 W/m 4,9 C 5,8 C 0,0 km/h (0 Bft)
23.02.2023 07:03 5,8 C 5,6 C 94 % 1013,9 hPa 0,0 l/m 0,0 km/h (0 Bft) N 0 0 min 0,0 UV-I 0 W/m 4,9 C 5,8 C 0,0 km/h (0 Bft)
23.02.2023 07:04 5,8 C 5,6 C 94 % 1013,9 hPa 0,0 l/m 0,0 km/h (0 Bft) N 0 0 min 0,0 UV-I 0 W/m 4,9 C 5,8 C 0,0 km/h (0 Bft)
23.02.2023 07:05 5,8 C 5,6 C 94 % 1013,9 hPa 0,0 l/m 0,0 km/h (0 Bft) W-SW 247 0 min 0,0 UV-I 0 W/m 4,9 C 5,8 C 1,6 km/h (1 Bft)
23.02.2023 07:06 5,8 C 5,6 C 94 % 1014,0 hPa 0,0 l/m 0,0 km/h (0 Bft) W-SW 247 0 min 0,0 UV-I 0 W/m 4,9 C 5,8 C 4,8 km/h (1 Bft)
23.02.2023 07:07 5,8 C 5,6 C 94 % 1013,9 hPa 0,0 l/m 4,8 km/h (1 Bft) W-SW 247 0 min 0,0 UV-I 0 W/m 4,9 C 5,8 C 6,4 km/h (2 Bft)
23.02.2023 07:08 5,8 C 5,6 C 94 % 1013,9 hPa 0,0 l/m 3,2 km/h (1 Bft) W-SW 247 0 min 0,0 UV-I 0 W/m 4,9 C 5,8 C 4,8 km/h (1 Bft)
23.02.2023 07:09 5,8 C 5,6 C 94 % 1013,9 hPa 0,0 l/m 1,6 km/h (1 Bft) W-SW 247 0 min 0,0 UV-I 0 W/m 4,9 C 5,8 C 6,4 km/h (2 Bft)
23.02.2023 07:10 5,8 C 5,6 C 94 % 1013,9 hPa 0,0 l/m 3,2 km/h (1 Bft) W-SW 247 0 min 0,0 UV-I 0 W/m 4,9 C 5,8 C 4,8 km/h (1 Bft)
23.02.2023 07:11 5,8 C 5,6 C 94 % 1013,9 hPa 0,0 l/m 3,2 km/h (1 Bft) W-SW 247 0 min 0,0 UV-I 0 W/m 4,9 C 5,8 C 4,8 km/h (1 Bft)
23.02.2023 07:12 5,8 C 5,6 C 94 % 1013,9 hPa 0,0 l/m 3,2 km/h (1 Bft) W-SW 247 0 min 0,0 UV-I 0 W/m 4,9 C 5,8 C 4,8 km/h (1 Bft)
23.02.2023 07:13 5,8 C 5,6 C 94 % 1013,9 hPa 0,0 l/m 1,6 km/h (1 Bft) W-SW 247 0 min 0,0 UV-I 0 W/m 4,9 C 5,8 C 3,2 km/h (1 Bft)
23.02.2023 07:14 5,8 C 5,6 C 94 % 1014,0 hPa 0,0 l/m 0,0 km/h (0 Bft) W-SW 247 0 min 0,0 UV-I 0 W/m 4,9 C 5,8 C 1,6 km/h (1 Bft)
23.02.2023 07:15 5,8 C 5,6 C 94 % 1013,9 hPa 0,0 l/m 0,0 km/h (0 Bft) W-SW 247 0 min 0,0 UV-I 0 W/m 4,9 C 5,8 C 1,6 km/h (1 Bft)
23.02.2023 07:16 5,8 C 5,6 C 94 % 1013,9 hPa 0,0 l/m 0,0 km/h (0 Bft) N 0 0 min 0,0 UV-I 0 W/m 4,9 C 5,8 C 0,0 km/h (0 Bft)
23.02.2023 07:17 5,8 C 5,6 C 94 % 1013,9 hPa 0,0 l/m 0,0 km/h (0 Bft) N 0 0 min 0,0 UV-I 0 W/m 4,9 C 5,8 C 0,0 km/h (0 Bft)
23.02.2023 07:18 5,8 C 5,6 C 94 % 1013,9 hPa 0,0 l/m 0,0 km/h (0 Bft) N 0 0 min 0,0 UV-I 0 W/m 4,9 C 5,8 C 0,0 km/h (0 Bft)
23.02.2023 07:19 5,8 C 5,6 C 94 % 1013,9 hPa 0,0 l/m 0,0 km/h (0 Bft) N 0 0 min 0,0 UV-I 0 W/m 4,9 C 5,8 C 0,0 km/h (0 Bft)
23.02.2023 07:20 5,8 C 5,6 C 94 % 1014,0 hPa 0,0 l/m 0,0 km/h (0 Bft) N 0 0 min 0,0 UV-I 0 W/m 4,9 C 5,8 C 0,0 km/h (0 Bft)
23.02.2023 07:21 5,8 C 5,6 C 94 % 1014,0 hPa 0,0 l/m 0,0 km/h (0 Bft) N 0 0 min 0,0 UV-I 0 W/m 4,9 C 5,8 C 0,0 km/h (0 Bft)
23.02.2023 07:22 5,8 C 5,6 C 94 % 1013,9 hPa 0,0 l/m 0,0 km/h (0 Bft) N 0 0 min 0,0 UV-I 0 W/m 4,9 C 5,8 C 0,0 km/h (0 Bft)
23.02.2023 07:23 5,8 C 5,6 C 94 % 1013,9 hPa 0,0 l/m 0,0 km/h (0 Bft) N 0 0 min 0,0 UV-I 0 W/m 4,9 C 5,8 C 0,0 km/h (0 Bft)
23.02.2023 07:24 5,8 C 5,6 C 94 % 1013,9 hPa 0,0 l/m 0,0 km/h (0 Bft) N 0 0 min 0,0 UV-I 0 W/m 4,9 C 5,8 C 0,0 km/h (0 Bft)
23.02.2023 07:25 5,8 C 5,6 C 94 % 1013,9 hPa 0,0 l/m 0,0 km/h (0 Bft) N 0 0 min 0,0 UV-I 0 W/m 4,9 C 5,8 C 0,0 km/h (0 Bft)
23.02.2023 07:26 5,8 C 5,6 C 94 % 1014,0 hPa 0,0 l/m 0,0 km/h (0 Bft) N 0 0 min 0,0 UV-I 0 W/m 4,9 C 5,8 C 0,0 km/h (0 Bft)
23.02.2023 07:27 5,8 C 5,6 C 94 % 1014,1 hPa 0,0 l/m 0,0 km/h (0 Bft) N 0 0 min 0,0 UV-I 0 W/m 4,9 C 5,8 C 0,0 km/h (0 Bft)
23.02.2023 07:28 5,8 C 5,6 C 94 % 1013,9 hPa 0,0 l/m 0,0 km/h (0 Bft) N 0 0 min 0,0 UV-I 0 W/m 4,9 C 5,8 C 0,0 km/h (0 Bft)
23.02.2023 07:29 5,8 C 5,6 C 94 % 1013,9 hPa 0,0 l/m 0,0 km/h (0 Bft) N 0 0 min 0,0 UV-I 0 W/m 4,9 C 5,8 C 0,0 km/h (0 Bft)
23.02.2023 07:30 5,8 C 5,6 C 94 % 1013,9 hPa 0,0 l/m 0,0 km/h (0 Bft) N 0 0 min 0,0 UV-I 0 W/m 4,9 C 5,8 C 0,0 km/h (0 Bft)
23.02.2023 07:31 5,8 C 5,6 C 94 % 1013,9 hPa 0,0 l/m 0,0 km/h (0 Bft) N 0 0 min 0,0 UV-I 0 W/m 4,9 C 5,8 C 0,0 km/h (0 Bft)
23.02.2023 07:32 5,8 C 5,6 C 94 % 1014,0 hPa 0,0 l/m 0,0 km/h (0 Bft) N 0 0 min 0,0 UV-I 0 W/m 4,9 C 5,8 C 0,0 km/h (0 Bft)
23.02.2023 07:33 5,8 C 5,6 C 94 % 1013,9 hPa 0,0 l/m 0,0 km/h (0 Bft) N 0 0 min 0,0 UV-I 0 W/m 4,9 C 5,8 C 0,0 km/h (0 Bft)
23.02.2023 07:34 5,8 C 5,6 C 94 % 1013,8 hPa 0,0 l/m 0,0 km/h (0 Bft) N 0 0 min 0,0 UV-I 0 W/m 4,9 C 5,8 C 0,0 km/h (0 Bft)
23.02.2023 07:35 5,8 C 5,6 C 94 % 1013,9 hPa 0,0 l/m 0,0 km/h (0 Bft) N 0 0 min 0,0 UV-I 0 W/m 4,9 C 5,8 C 0,0 km/h (0 Bft)
23.02.2023 07:36 5,8 C 5,6 C 94 % 1013,9 hPa 0,0 l/m 0,0 km/h (0 Bft) N 0 0 min 0,0 UV-I 0 W/m 4,9 C 5,8 C 0,0 km/h (0 Bft)
23.02.2023 07:37 5,8 C 5,6 C 94 % 1013,9 hPa 0,0 l/m 0,0 km/h (0 Bft) N 0 0 min 0,0 UV-I 0 W/m 4,9 C 5,8 C 0,0 km/h (0 Bft)
23.02.2023 07:38 5,7 C 5,6 C 94 % 1013,9 hPa 0,0 l/m 0,0 km/h (0 Bft) N 0 0 min 0,0 UV-I 0 W/m 4,8 C 5,7 C 0,0 km/h (0 Bft)
23.02.2023 07:39 5,7 C 5,6 C 94 % 1013,9 hPa 0,0 l/m 0,0 km/h (0 Bft) W-SW 247 0 min 0,0 UV-I 0 W/m 4,8 C 5,7 C 1,6 km/h (1 Bft)
23.02.2023 07:40 5,8 C 5,6 C 94 % 1013,9 hPa 0,0 l/m 0,0 km/h (0 Bft) W-SW 247 0 min 0,0 UV-I 0 W/m 4,9 C 5,8 C 1,6 km/h (1 Bft)
23.02.2023 07:41 5,8 C 5,6 C 94 % 1013,9 hPa 0,0 l/m 0,0 km/h (0 Bft) W-SW 247 0 min 0,0 UV-I 0 W/m 4,9 C 5,8 C 1,6 km/h (1 Bft)
23.02.2023 07:42 5,8 C 5,6 C 94 % 1013,9 hPa 0,0 l/m 0,0 km/h (0 Bft) W-SW 247 0 min 0,0 UV-I 0 W/m 4,9 C 5,8 C 1,6 km/h (1 Bft)
23.02.2023 07:43 5,8 C 5,6 C 94 % 1013,9 hPa 0,0 l/m 0,0 km/h (0 Bft) N 0 0 min 0,0 UV-I 0 W/m 4,9 C 5,8 C 0,0 km/h (0 Bft)
23.02.2023 07:44 5,8 C 5,6 C 94 % 1013,9 hPa 0,0 l/m 0,0 km/h (0 Bft) N 0 0 min 0,0 UV-I 0 W/m 4,9 C 5,8 C 0,0 km/h (0 Bft)
23.02.2023 07:45 5,8 C 5,6 C 94 % 1013,9 hPa 0,0 l/m 0,0 km/h (0 Bft) N 0 0 min 0,0 UV-I 0 W/m 4,9 C 5,8 C 0,0 km/h (0 Bft)
23.02.2023 07:48 5,8 C 5,6 C 94 % 1013,9 hPa 0,0 l/m 0,0 km/h (0 Bft) W-SW 248 0 min 0,0 UV-I 5 W/m 4,9 C 5,8 C 0,0 km/h (0 Bft)
23.02.2023 07:51 5,8 C 5,6 C 94 % 1014,1 hPa 0,0 l/m 2,3 km/h (1 Bft) W-SW 248 0 min 0,0 UV-I 5 W/m 4,9 C 5,8 C 6,4 km/h (2 Bft)
23.02.2023 07:54 5,8 C 5,6 C 94 % 1014,2 hPa 0,0 l/m 2,6 km/h (1 Bft) W-SW 248 0 min 0,0 UV-I 7 W/m 4,9 C 5,8 C 4,8 km/h (1 Bft)
23.02.2023 07:57 5,8 C 5,6 C 94 % 1014,1 hPa 0,0 l/m 2,9 km/h (1 Bft) W-SW 249 0 min 0,0 UV-I 10 W/m 4,9 C 5,8 C 4,8 km/h (1 Bft)
23.02.2023 08:00 5,8 C 5,6 C 94 % 1014,1 hPa 0,0 l/m 1,0 km/h (0 Bft) W-SW 249 0 min 0,0 UV-I 11 W/m 4,9 C 5,8 C 4,8 km/h (1 Bft)
23.02.2023 08:03 5,8 C 5,6 C 94 % 1014,3 hPa 0,0 l/m 0,3 km/h (0 Bft) W-SW 249 0 min 0,0 UV-I 12 W/m 4,9 C 5,8 C 1,6 km/h (1 Bft)
23.02.2023 08:07 5,8 C 5,6 C 94 % 1014,3 hPa 0,0 l/m 2,2 km/h (1 Bft) W-SW 249 0 min 0,0 UV-I 12 W/m 4,9 C 5,8 C 4,8 km/h (1 Bft)
23.02.2023 08:09 5,8 C 5,6 C 94 % 1014,4 hPa 0,0 l/m 0,6 km/h (0 Bft) W-SW 249 0 min 0,0 UV-I 11 W/m 4,9 C 5,8 C 3,2 km/h (1 Bft)
23.02.2023 08:14 5,8 C 5,6 C 94 % 1014,4 hPa 0,0 l/m 1,3 km/h (1 Bft) W-SW 249 0 min 0,0 UV-I 9 W/m 4,9 C 5,8 C 3,2 km/h (1 Bft)
23.02.2023 08:15 5,8 C 5,6 C 94 % 1014,4 hPa 0,0 l/m 1,3 km/h (1 Bft) W-SW 249 0 min 0,0 UV-I 10 W/m 4,9 C 5,8 C 3,2 km/h (1 Bft)
23.02.2023 08:16 5,8 C 5,6 C 94 % 1014,4 hPa 0,0 l/m 0,1 km/h (0 Bft) W-SW 249 0 min 0,0 UV-I 11 W/m 4,9 C 5,8 C 1,6 km/h (1 Bft)
23.02.2023 08:17 5,8 C 5,6 C 94 % 1014,4 hPa 0,0 l/m 1,6 km/h (1 Bft) W-SW 247 0 min 0,0 UV-I 11 W/m 4,9 C 5,8 C 1,6 km/h (1 Bft)
23.02.2023 08:18 5,8 C 5,6 C 94 % 1014,5 hPa 0,0 l/m 0,0 km/h (0 Bft) W-SW 247 0 min 0,0 UV-I 11 W/m 4,9 C 5,8 C 1,6 km/h (1 Bft)
23.02.2023 08:21 5,8 C 5,6 C 94 % 1014,6 hPa 0,0 l/m 2,8 km/h (1 Bft) W-SW 249 0 min 0,0 UV-I 12 W/m 4,9 C 5,8 C 4,8 km/h (1 Bft)
23.02.2023 08:24 5,8 C 5,6 C 94 % 1014,5 hPa 0,0 l/m 2,6 km/h (1 Bft) W-SW 248 0 min 0,0 UV-I 13 W/m 4,9 C 5,8 C 4,8 km/h (1 Bft)
23.02.2023 08:27 5,8 C 5,6 C 94 % 1014,7 hPa 0,0 l/m 3,3 km/h (1 Bft) W-SW 244 0 min 0,0 UV-I 15 W/m 4,9 C 5,8 C 6,4 km/h (2 Bft)
23.02.2023 08:30 5,8 C 5,6 C 94 % 1014,6 hPa 0,0 l/m 3,4 km/h (1 Bft) W-SW 242 0 min 0,0 UV-I 16 W/m 4,9 C 5,8 C 6,4 km/h (2 Bft)
23.02.2023 08:33 5,8 C 5,6 C 94 % 1014,7 hPa 0,0 l/m 3,8 km/h (1 Bft) W-SW 242 0 min 0,0 UV-I 20 W/m 4,9 C 5,8 C 6,4 km/h (2 Bft)
23.02.2023 08:36 5,8 C 5,6 C 94 % 1014,6 hPa 0,0 l/m 0,7 km/h (0 Bft) W-SW 242 0 min 0,0 UV-I 24 W/m 4,9 C 5,8 C 3,2 km/h (1 Bft)
23.02.2023 08:39 5,8 C 5,6 C 94 % 1014,6 hPa 0,0 l/m 2,7 km/h (1 Bft) W-SW 242 0 min 0,0 UV-I 23 W/m 4,9 C 5,8 C 4,8 km/h (1 Bft)
23.02.2023 08:42 5,8 C 5,6 C 94 % 1014,7 hPa 0,0 l/m 5,1 km/h (1 Bft) W-SW 240 0 min 0,0 UV-I 20 W/m 4,9 C 5,8 C 6,4 km/h (2 Bft)
23.02.2023 08:45 5,8 C 5,6 C 94 % 1014,7 hPa 0,0 l/m 4,1 km/h (1 Bft) W-SW 238 0 min 0,0 UV-I 18 W/m 4,9 C 5,8 C 6,4 km/h (2 Bft)
23.02.2023 08:48 5,8 C 5,6 C 94 % 1014,7 hPa 0,0 l/m 2,8 km/h (1 Bft) W-SW 238 0 min 0,0 UV-I 19 W/m 4,9 C 5,8 C 4,8 km/h (1 Bft)
23.02.2023 08:51 5,8 C 5,6 C 94 % 1014,8 hPa 0,0 l/m 1,7 km/h (1 Bft) SW 232 0 min 0,0 UV-I 20 W/m 4,9 C 5,8 C 8,0 km/h (2 Bft)
23.02.2023 08:54 5,9 C 5,6 C 94 % 1014,7 hPa 0,0 l/m 4,6 km/h (1 Bft) SW 215 0 min 0,0 UV-I 23 W/m 5,0 C 5,9 C 8,0 km/h (2 Bft)
23.02.2023 08:57 5,8 C 5,6 C 94 % 1014,7 hPa 0,0 l/m 4,5 km/h (1 Bft) SW 216 0 min 0,0 UV-I 24 W/m 4,9 C 5,8 C 6,4 km/h (2 Bft)
23.02.2023 09:00 5,9 C 5,6 C 94 % 1014,8 hPa 0,0 l/m 2,9 km/h (1 Bft) SW 216 0 min 0,0 UV-I 23 W/m 5,0 C 5,9 C 6,4 km/h (2 Bft)
23.02.2023 09:03 5,8 C 5,6 C 94 % 1014,8 hPa 0,0 l/m 6,3 km/h (2 Bft) S-SW 213 0 min 0,0 UV-I 24 W/m 4,9 C 5,8 C 9,7 km/h (2 Bft)
23.02.2023 09:06 5,8 C 5,6 C 94 % 1014,7 hPa 0,0 l/m 4,2 km/h (1 Bft) SW 214 0 min 0,0 UV-I 27 W/m 4,9 C 5,8 C 6,4 km/h (2 Bft)
23.02.2023 09:09 5,9 C 5,6 C 94 % 1014,7 hPa 0,0 l/m 2,9 km/h (1 Bft) SW 214 0 min 0,0 UV-I 29 W/m 5,0 C 5,9 C 6,4 km/h (2 Bft)
23.02.2023 09:12 5,9 C 5,6 C 94 % 1014,8 hPa 0,0 l/m 3,1 km/h (1 Bft) SW 215 0 min 0,0 UV-I 32 W/m 5,0 C 5,9 C 4,8 km/h (1 Bft)
23.02.2023 09:15 5,9 C 5,6 C 94 % 1014,8 hPa 0,0 l/m 3,2 km/h (1 Bft) SW 215 0 min 0,0 UV-I 28 W/m 5,0 C 5,9 C 6,4 km/h (2 Bft)
23.02.2023 09:18 5,9 C 5,6 C 94 % 1014,8 hPa 0,0 l/m 3,4 km/h (1 Bft) SW 215 0 min 0,0 UV-I 27 W/m 5,0 C 5,9 C 6,4 km/h (2 Bft)
23.02.2023 09:21 5,9 C 5,6 C 94 % 1014,8 hPa 0,0 l/m 4,1 km/h (1 Bft) SW 215 0 min 0,0 UV-I 30 W/m 5,0 C 5,9 C 6,4 km/h (2 Bft)
23.02.2023 09:24 5,9 C 6,1 C 94 % 1014,9 hPa 0,0 l/m 2,3 km/h (1 Bft) SW 215 0 min 0,0 UV-I 33 W/m 5,0 C 5,9 C 4,8 km/h (1 Bft)
23.02.2023 09:27 5,9 C 6,1 C 94 % 1014,8 hPa 0,0 l/m 2,8 km/h (1 Bft) SW 215 0 min 0,0 UV-I 33 W/m 5,0 C 5,9 C 4,8 km/h (1 Bft)
23.02.2023 09:30 5,9 C 6,1 C 94 % 1014,9 hPa 0,0 l/m 4,2 km/h (1 Bft) SW 214 0 min 0,0 UV-I 34 W/m 5,0 C 5,9 C 6,4 km/h (2 Bft)
23.02.2023 09:33 5,9 C 6,1 C 94 % 1014,8 hPa 0,0 l/m 1,8 km/h (1 Bft) SW 214 0 min 0,0 UV-I 37 W/m 5,0 C 5,9 C 4,8 km/h (1 Bft)
23.02.2023 09:36 6,0 C 6,1 C 94 % 1014,8 hPa 0,0 l/m 0,9 km/h (0 Bft) SW 214 0 min 0,0 UV-I 45 W/m 5,1 C 6,0 C 3,2 km/h (1 Bft)
23.02.2023 09:39 6,1 C 6,1 C 94 % 1014,8 hPa 0,0 l/m 2,3 km/h (1 Bft) SW 217 0 min 0,0 UV-I 49 W/m 5,2 C 6,1 C 4,8 km/h (1 Bft)
23.02.2023 09:42 6,1 C 6,1 C 94 % 1014,9 hPa 0,0 l/m 0,9 km/h (0 Bft) SW 219 0 min 0,0 UV-I 53 W/m 5,2 C 6,1 C 4,8 km/h (1 Bft)
23.02.2023 09:45 6,1 C 6,1 C 94 % 1014,9 hPa 0,0 l/m 2,7 km/h (1 Bft) SW 221 0 min 0,0 UV-I 61 W/m 5,2 C 6,1 C 4,8 km/h (1 Bft)
23.02.2023 09:48 6,1 C 6,1 C 94 % 1015,0 hPa 0,0 l/m 3,0 km/h (1 Bft) W 263 0 min 0,0 UV-I 56 W/m 5,2 C 6,1 C 6,4 km/h (2 Bft)
23.02.2023 09:51 6,2 C 6,7 C 94 % 1014,9 hPa 0,0 l/m 3,0 km/h (1 Bft) W 262 0 min 0,0 UV-I 59 W/m 5,3 C 6,2 C 6,4 km/h (2 Bft)
23.02.2023 09:54 6,1 C 6,7 C 94 % 1014,9 hPa 0,0 l/m 2,4 km/h (1 Bft) W-SW 255 0 min 0,0 UV-I 66 W/m 5,2 C 6,1 C 4,8 km/h (1 Bft)
23.02.2023 09:57 6,2 C 6,7 C 94 % 1015,0 hPa 0,0 l/m 1,9 km/h (1 Bft) W-SW 255 0 min 0,0 UV-I 61 W/m 5,3 C 6,2 C 4,8 km/h (1 Bft)
23.02.2023 10:00 6,2 C 6,7 C 94 % 1015,0 hPa 0,0 l/m 2,8 km/h (1 Bft) W-SW 253 0 min 0,0 UV-I 56 W/m 5,3 C 6,2 C 6,4 km/h (2 Bft)
23.02.2023 10:03 6,2 C 6,7 C 94 % 1015,0 hPa 0,0 l/m 3,1 km/h (1 Bft) W-SW 254 0 min 0,0 UV-I 57 W/m 5,3 C 6,2 C 4,8 km/h (1 Bft)
23.02.2023 10:06 6,2 C 6,7 C 94 % 1015,0 hPa 0,0 l/m 0,8 km/h (0 Bft) W-SW 254 0 min 0,0 UV-I 71 W/m 5,3 C 6,2 C 3,2 km/h (1 Bft)
23.02.2023 10:09 6,3 C 6,7 C 94 % 1015,1 hPa 0,0 l/m 1,0 km/h (0 Bft) W-SW 254 0 min 0,0 UV-I 77 W/m 5,4 C 6,3 C 4,8 km/h (1 Bft)
23.02.2023 10:12 6,3 C 6,7 C 94 % 1015,2 hPa 0,0 l/m 2,4 km/h (1 Bft) W-SW 252 0 min 0,0 UV-I 75 W/m 5,4 C 6,3 C 6,4 km/h (2 Bft)
23.02.2023 10:15 6,3 C 6,7 C 94 % 1015,1 hPa 0,0 l/m 1,7 km/h (1 Bft) W-SW 252 0 min 0,0 UV-I 81 W/m 5,4 C 6,3 C 4,8 km/h (1 Bft)
23.02.2023 10:18 6,4 C 6,7 C 94 % 1015,1 hPa 0,0 l/m 1,1 km/h (1 Bft) W-SW 252 0 min 0,1 UV-I 88 W/m 5,5 C 6,4 C 4,8 km/h (1 Bft)
23.02.2023 10:21 6,5 C 7,2 C 94 % 1015,2 hPa 0,0 l/m 3,2 km/h (1 Bft) W-SW 257 0 min 0,1 UV-I 85 W/m 5,6 C 6,5 C 11,3 km/h (2 Bft)
23.02.2023 10:24 6,4 C 6,7 C 94 % 1015,2 hPa 0,0 l/m 7,8 km/h (2 Bft) W 267 0 min 0,0 UV-I 77 W/m 5,5 C 5,2 C 11,3 km/h (2 Bft)
23.02.2023 10:27 6,5 C 7,2 C 94 % 1015,2 hPa 0,0 l/m 6,1 km/h (2 Bft) W 263 0 min 0,0 UV-I 82 W/m 5,6 C 6,5 C 9,7 km/h (2 Bft)
23.02.2023 10:30 6,5 C 7,2 C 94 % 1015,2 hPa 0,0 l/m 2,8 km/h (1 Bft) W 261 0 min 0,0 UV-I 77 W/m 5,6 C 6,5 C 6,4 km/h (2 Bft)
23.02.2023 10:33 6,5 C 7,2 C 94 % 1015,2 hPa 0,0 l/m 3,8 km/h (1 Bft) W 261 0 min 0,2 UV-I 89 W/m 5,6 C 6,5 C 6,4 km/h (2 Bft)
23.02.2023 10:36 6,6 C 7,2 C 94 % 1015,2 hPa 0,0 l/m 3,2 km/h (1 Bft) W 263 0 min 0,5 UV-I 101 W/m 5,7 C 6,6 C 6,4 km/h (2 Bft)
23.02.2023 10:39 6,7 C 7,2 C 94 % 1015,2 hPa 0,0 l/m 4,1 km/h (1 Bft) W 263 0 min 0,6 UV-I 107 W/m 5,8 C 6,7 C 6,4 km/h (2 Bft)
23.02.2023 10:42 6,8 C 7,8 C 94 % 1015,3 hPa 0,0 l/m 3,2 km/h (1 Bft) W 274 0 min 0,6 UV-I 109 W/m 5,9 C 6,8 C 6,4 km/h (2 Bft)
23.02.2023 10:45 6,8 C 7,8 C 94 % 1015,3 hPa 0,0 l/m 1,3 km/h (1 Bft) SW 230 0 min 0,6 UV-I 119 W/m 5,9 C 6,8 C 6,4 km/h (2 Bft)
23.02.2023 10:48 6,9 C 7,8 C 94 % 1015,4 hPa 0,0 l/m 2,4 km/h (1 Bft) S-SW 197 0 min 0,6 UV-I 124 W/m 6,0 C 6,9 C 6,4 km/h (2 Bft)
23.02.2023 10:51 6,8 C 7,8 C 93 % 1015,3 hPa 0,0 l/m 6,0 km/h (2 Bft) W 263 0 min 0,6 UV-I 100 W/m 5,7 C 6,8 C 11,3 km/h (2 Bft)
23.02.2023 10:54 6,8 C 7,2 C 93 % 1015,3 hPa 0,0 l/m 4,3 km/h (1 Bft) W 263 0 min 0,0 UV-I 85 W/m 5,7 C 6,8 C 9,7 km/h (2 Bft)
23.02.2023 10:57 6,8 C 7,2 C 93 % 1015,3 hPa 0,0 l/m 2,5 km/h (1 Bft) W 261 0 min 0,1 UV-I 85 W/m 5,7 C 6,8 C 6,4 km/h (2 Bft)
23.02.2023 11:00 6,8 C 7,2 C 93 % 1015,4 hPa 0,0 l/m 4,4 km/h (1 Bft) W 263 0 min 0,5 UV-I 86 W/m 5,7 C 6,8 C 9,7 km/h (2 Bft)
23.02.2023 11:03 6,9 C 7,2 C 93 % 1015,4 hPa 0,0 l/m 3,0 km/h (1 Bft) W 270 0 min 0,5 UV-I 88 W/m 5,8 C 6,9 C 6,4 km/h (2 Bft)
23.02.2023 11:06 6,9 C 7,2 C 93 % 1015,3 hPa 0,0 l/m 2,2 km/h (1 Bft) W 269 0 min 0,3 UV-I 87 W/m 5,8 C 6,9 C 6,4 km/h (2 Bft)
23.02.2023 11:09 6,8 C 7,2 C 92 % 1015,4 hPa 0,0 l/m 3,7 km/h (1 Bft) W-SW 255 0 min 0,4 UV-I 97 W/m 5,6 C 6,8 C 6,4 km/h (2 Bft)
23.02.2023 11:12 6,9 C 7,8 C 92 % 1015,4 hPa 0,0 l/m 2,8 km/h (1 Bft) W-SW 255 0 min 0,7 UV-I 133 W/m 5,7 C 6,9 C 6,4 km/h (2 Bft)
23.02.2023 11:15 7,0 C 7,8 C 92 % 1015,5 hPa 0,0 l/m 3,1 km/h (1 Bft) W-SW 254 0 min 0,8 UV-I 154 W/m 5,8 C 7,0 C 6,4 km/h (2 Bft)
23.02.2023 11:18 7,1 C 8,3 C 92 % 1015,4 hPa 0,0 l/m 2,8 km/h (1 Bft) W 260 0 min 0,9 UV-I 168 W/m 5,9 C 7,1 C 6,4 km/h (2 Bft)
23.02.2023 11:21 7,1 C 8,3 C 92 % 1015,5 hPa 0,0 l/m 4,4 km/h (1 Bft) W-SW 255 0 min 0,9 UV-I 170 W/m 5,9 C 7,1 C 6,4 km/h (2 Bft)
23.02.2023 11:24 7,2 C 8,3 C 92 % 1015,5 hPa 0,0 l/m 5,5 km/h (1 Bft) W-SW 253 0 min 0,9 UV-I 174 W/m 6,0 C 7,2 C 11,3 km/h (2 Bft)
23.02.2023 11:27 7,3 C 8,3 C 92 % 1015,6 hPa 0,0 l/m 5,0 km/h (1 Bft) W 261 0 min 0,9 UV-I 168 W/m 6,1 C 7,3 C 9,7 km/h (2 Bft)
23.02.2023 11:30 7,3 C 8,3 C 91 % 1015,5 hPa 0,0 l/m 4,6 km/h (1 Bft) W 275 0 min 1,0 UV-I 166 W/m 5,9 C 7,3 C 9,7 km/h (2 Bft)
23.02.2023 11:33 7,4 C 8,3 C 91 % 1015,7 hPa 0,0 l/m 4,3 km/h (1 Bft) W 266 0 min 0,9 UV-I 174 W/m 6,0 C 7,4 C 6,4 km/h (2 Bft)
23.02.2023 11:36 7,5 C 8,9 C 90 % 1015,6 hPa 0,0 l/m 2,5 km/h (1 Bft) W 267 0 min 0,9 UV-I 172 W/m 6,0 C 7,5 C 4,8 km/h (1 Bft)
23.02.2023 11:39 7,4 C 8,9 C 90 % 1015,6 hPa 0,0 l/m 4,4 km/h (1 Bft) SW 227 0 min 1,0 UV-I 169 W/m 5,9 C 7,4 C 8,0 km/h (2 Bft)
23.02.2023 11:42 7,3 C 8,3 C 89 % 1015,6 hPa 0,0 l/m 4,5 km/h (1 Bft) W 265 0 min 1,1 UV-I 174 W/m 5,6 C 7,3 C 9,7 km/h (2 Bft)
23.02.2023 11:45 7,3 C 8,9 C 89 % 1015,6 hPa 0,0 l/m 4,8 km/h (1 Bft) SW 233 0 min 1,2 UV-I 209 W/m 5,6 C 7,3 C 6,4 km/h (2 Bft)
23.02.2023 11:48 7,4 C 8,9 C 89 % 1015,7 hPa 0,0 l/m 4,1 km/h (1 Bft) W-SW 250 0 min 1,2 UV-I 207 W/m 5,7 C 7,4 C 6,4 km/h (2 Bft)
23.02.2023 11:52 7,7 C 9,4 C 89 % 1015,6 hPa 0,0 l/m 5,4 km/h (1 Bft) W-NW 290 0 min 1,1 UV-I 204 W/m 6,0 C 7,7 C 9,7 km/h (2 Bft)
23.02.2023 11:54 7,8 C 9,4 C 89 % 1015,6 hPa 0,0 l/m 5,1 km/h (1 Bft) W-NW 288 0 min 1,1 UV-I 220 W/m 6,1 C 7,8 C 9,7 km/h (2 Bft)
23.02.2023 11:59 7,8 C 9,4 C 89 % 1015,7 hPa 0,0 l/m 2,8 km/h (1 Bft) W 279 0 min 1,2 UV-I 246 W/m 6,1 C 7,8 C 6,4 km/h (2 Bft)
23.02.2023 12:00 7,8 C 10,0 C 89 % 1015,7 hPa 0,0 l/m 7,4 km/h (2 Bft) W 278 0 min 1,1 UV-I 242 W/m 6,1 C 7,0 C 12,9 km/h (3 Bft)
23.02.2023 12:01 7,8 C 9,4 C 89 % 1015,7 hPa 0,0 l/m 9,5 km/h (2 Bft) W 270 0 min 1,1 UV-I 239 W/m 6,1 C 5,5 C 12,9 km/h (3 Bft)
23.02.2023 12:02 7,8 C 10,0 C 89 % 1015,7 hPa 0,0 l/m 4,8 km/h (1 Bft) W 270 0 min 1,1 UV-I 241 W/m 6,1 C 7,8 C 6,4 km/h (2 Bft)
23.02.2023 12:03 7,8 C 10,0 C 88 % 1015,7 hPa 0,0 l/m 4,8 km/h (1 Bft) W 270 0 min 1,1 UV-I 243 W/m 5,9 C 7,8 C 4,8 km/h (1 Bft)
23.02.2023 12:06 7,9 C 10,0 C 87 % 1015,7 hPa 0,0 l/m 1,2 km/h (1 Bft) W 269 3 min 1,2 UV-I 259 W/m 5,9 C 7,9 C 4,8 km/h (1 Bft)
23.02.2023 12:09 8,1 C 12,2 C 88 % 1015,6 hPa 0,0 l/m 3,4 km/h (1 Bft) W 268 3 min 1,4 UV-I 346 W/m 6,2 C 8,1 C 8,0 km/h (2 Bft)
23.02.2023 12:12 8,2 C 10,6 C 86 % 1015,8 hPa 0,0 l/m 4,3 km/h (1 Bft) W-SW 249 0 min 1,0 UV-I 220 W/m 6,0 C 8,2 C 9,7 km/h (2 Bft)
23.02.2023 12:15 8,1 C 9,4 C 87 % 1015,8 hPa 0,0 l/m 3,4 km/h (1 Bft) W 267 0 min 0,7 UV-I 146 W/m 6,1 C 8,1 C 9,7 km/h (2 Bft)
23.02.2023 12:18 8,1 C 9,4 C 87 % 1015,8 hPa 0,0 l/m 2,3 km/h (1 Bft) W 268 0 min 0,6 UV-I 115 W/m 6,1 C 8,1 C 6,4 km/h (2 Bft)
23.02.2023 12:21 7,9 C 8,9 C 87 % 1015,8 hPa 0,0 l/m 3,6 km/h (1 Bft) W 272 0 min 0,5 UV-I 97 W/m 5,9 C 7,9 C 9,7 km/h (2 Bft)
23.02.2023 12:24 7,7 C 8,3 C 87 % 1015,8 hPa 0,0 l/m 6,9 km/h (2 Bft) W-NW 291 0 min 0,0 UV-I 84 W/m 5,7 C 7,3 C 11,3 km/h (2 Bft)
23.02.2023 12:27 7,6 C 7,8 C 87 % 1015,8 hPa 0,0 l/m 4,4 km/h (1 Bft) W 269 0 min 0,0 UV-I 85 W/m 5,6 C 7,6 C 9,7 km/h (2 Bft)
23.02.2023 12:30 7,7 C 8,3 C 87 % 1015,7 hPa 0,0 l/m 5,7 km/h (1 Bft) W-NW 284 0 min 0,5 UV-I 95 W/m 5,7 C 7,7 C 9,7 km/h (2 Bft)
23.02.2023 12:33 7,6 C 7,8 C 87 % 1015,7 hPa 0,0 l/m 4,9 km/h (1 Bft) W 270 0 min 0,6 UV-I 109 W/m 5,6 C 7,6 C 9,7 km/h (2 Bft)
23.02.2023 12:36 7,6 C 7,8 C 87 % 1015,6 hPa 0,0 l/m 3,6 km/h (1 Bft) W-SW 246 0 min 0,6 UV-I 109 W/m 5,6 C 7,6 C 8,0 km/h (2 Bft)
23.02.2023 12:39 7,6 C 7,8 C 87 % 1015,7 hPa 0,0 l/m 3,6 km/h (1 Bft) W 261 0 min 0,6 UV-I 102 W/m 5,6 C 7,6 C 9,7 km/h (2 Bft)
23.02.2023 12:42 7,6 C 7,8 C 87 % 1015,6 hPa 0,0 l/m 3,2 km/h (1 Bft) SW 217 0 min 0,5 UV-I 90 W/m 5,6 C 7,6 C 8,0 km/h (2 Bft)
23.02.2023 12:45 7,6 C 7,8 C 87 % 1015,7 hPa 0,0 l/m 4,4 km/h (1 Bft) SW 236 0 min 0,7 UV-I 117 W/m 5,6 C 7,6 C 8,0 km/h (2 Bft)
23.02.2023 12:48 7,4 C 7,8 C 87 % 1015,6 hPa 0,0 l/m 7,3 km/h (2 Bft) S-SW 205 0 min 0,7 UV-I 134 W/m 5,4 C 6,7 C 9,7 km/h (2 Bft)
23.02.2023 12:51 7,4 C 7,8 C 87 % 1015,6 hPa 0,0 l/m 5,8 km/h (2 Bft) S-SW 204 0 min 0,8 UV-I 139 W/m 5,4 C 7,4 C 9,7 km/h (2 Bft)
23.02.2023 12:54 7,5 C 8,3 C 87 % 1015,6 hPa 0,0 l/m 4,5 km/h (1 Bft) SW 217 0 min 0,8 UV-I 138 W/m 5,5 C 7,5 C 8,0 km/h (2 Bft)
23.02.2023 12:57 7,5 C 7,8 C 87 % 1015,6 hPa 0,0 l/m 7,4 km/h (2 Bft) S-SW 196 0 min 0,8 UV-I 131 W/m 5,5 C 6,7 C 11,3 km/h (2 Bft)
23.02.2023 13:00 7,4 C 7,8 C 87 % 1015,6 hPa 0,0 l/m 5,8 km/h (2 Bft) S-SW 207 0 min 0,6 UV-I 110 W/m 5,4 C 7,4 C 8,0 km/h (2 Bft)
23.02.2023 13:03 7,6 C 7,8 C 88 % 1015,6 hPa 0,0 l/m 3,0 km/h (1 Bft) SW 215 0 min 0,6 UV-I 101 W/m 5,7 C 7,6 C 6,4 km/h (2 Bft)
23.02.2023 13:06 7,6 C 7,8 C 88 % 1015,5 hPa 0,0 l/m 2,7 km/h (1 Bft) SW 220 0 min 0,6 UV-I 98 W/m 5,7 C 7,6 C 6,4 km/h (2 Bft)
23.02.2023 13:09 7,6 C 7,8 C 87 % 1015,6 hPa 0,0 l/m 4,7 km/h (1 Bft) W-SW 248 0 min 0,5 UV-I 92 W/m 5,6 C 7,6 C 9,7 km/h (2 Bft)
23.02.2023 13:12 7,5 C 7,8 C 87 % 1015,6 hPa 0,0 l/m 2,2 km/h (1 Bft) SW 232 0 min 0,2 UV-I 77 W/m 5,5 C 7,5 C 6,4 km/h (2 Bft)
23.02.2023 13:15 7,4 C 7,2 C 87 % 1015,6 hPa 0,0 l/m 4,8 km/h (1 Bft) W-SW 249 0 min 0,0 UV-I 60 W/m 5,4 C 7,4 C 9,7 km/h (2 Bft)
23.02.2023 13:18 7,4 C 7,2 C 87 % 1015,6 hPa 0,0 l/m 4,4 km/h (1 Bft) SW 225 0 min 0,0 UV-I 54 W/m 5,4 C 7,4 C 9,7 km/h (2 Bft)
23.02.2023 13:21 7,3 C 7,2 C 88 % 1015,5 hPa 0,0 l/m 4,1 km/h (1 Bft) W-SW 258 0 min 0,0 UV-I 56 W/m 5,4 C 7,3 C 11,3 km/h (2 Bft)
23.02.2023 13:24 7,3 C 7,2 C 88 % 1015,5 hPa 0,0 l/m 5,4 km/h (1 Bft) S-SW 211 0 min 0,1 UV-I 68 W/m 5,4 C 7,3 C 8,0 km/h (2 Bft)
23.02.2023 13:27 7,3 C 7,8 C 88 % 1015,5 hPa 0,0 l/m 3,0 km/h (1 Bft) W-SW 238 0 min 0,6 UV-I 103 W/m 5,4 C 7,3 C 8,0 km/h (2 Bft)
23.02.2023 13:30 7,3 C 7,8 C 88 % 1015,4 hPa 0,0 l/m 5,1 km/h (1 Bft) SW 227 0 min 0,8 UV-I 133 W/m 5,4 C 7,3 C 9,7 km/h (2 Bft)
23.02.2023 13:33 7,3 C 7,8 C 88 % 1015,4 hPa 0,0 l/m 4,7 km/h (1 Bft) W 259 0 min 0,9 UV-I 152 W/m 5,4 C 7,3 C 8,0 km/h (2 Bft)
23.02.2023 13:36 7,4 C 8,3 C 88 % 1015,4 hPa 0,0 l/m 3,9 km/h (1 Bft) SW 229 0 min 0,9 UV-I 158 W/m 5,5 C 7,4 C 8,0 km/h (2 Bft)
23.02.2023 13:39 7,5 C 8,3 C 88 % 1015,4 hPa 0,0 l/m 3,4 km/h (1 Bft) SW 229 0 min 0,7 UV-I 129 W/m 5,6 C 7,5 C 4,8 km/h (1 Bft)
23.02.2023 13:42 7,6 C 8,3 C 88 % 1015,4 hPa 0,0 l/m 2,3 km/h (1 Bft) SW 230 0 min 0,4 UV-I 94 W/m 5,7 C 7,6 C 6,4 km/h (2 Bft)
23.02.2023 13:45 7,4 C 7,8 C 88 % 1015,4 hPa 0,0 l/m 5,6 km/h (1 Bft) W-SW 257 0 min 0,0 UV-I 70 W/m 5,5 C 7,4 C 11,3 km/h (2 Bft)
23.02.2023 13:48 7,4 C 7,8 C 88 % 1015,4 hPa 0,0 l/m 6,9 km/h (2 Bft) W-SW 254 0 min 0,0 UV-I 67 W/m 5,5 C 7,0 C 12,9 km/h (3 Bft)
23.02.2023 13:51 7,4 C 7,8 C 88 % 1015,4 hPa 0,0 l/m 4,2 km/h (1 Bft) W 277 0 min 0,4 UV-I 106 W/m 5,5 C 7,4 C 9,7 km/h (2 Bft)
23.02.2023 13:54 7,4 C 8,3 C 88 % 1015,2 hPa 0,0 l/m 6,5 km/h (2 Bft) W 281 0 min 0,8 UV-I 148 W/m 5,5 C 7,3 C 11,3 km/h (2 Bft)
23.02.2023 13:57 7,6 C 8,9 C 88 % 1015,3 hPa 0,0 l/m 0,6 km/h (0 Bft) W 281 0 min 1,1 UV-I 185 W/m 5,7 C 7,6 C 3,2 km/h (1 Bft)
23.02.2023 14:00 7,8 C 9,4 C 88 % 1015,2 hPa 0,0 l/m 0,3 km/h (0 Bft) W 281 0 min 1,2 UV-I 215 W/m 5,9 C 7,8 C 1,6 km/h (1 Bft)
23.02.2023 14:03 8,0 C 10,0 C 87 % 1015,3 hPa 0,0 l/m 0,8 km/h (0 Bft) W 281 0 min 1,2 UV-I 223 W/m 6,0 C 8,0 C 4,8 km/h (1 Bft)
23.02.2023 14:06 8,1 C 11,1 C 87 % 1015,2 hPa 0,0 l/m 0,7 km/h (0 Bft) W-NW 294 0 min 1,0 UV-I 226 W/m 6,1 C 8,1 C 4,8 km/h (1 Bft)
23.02.2023 14:09 8,0 C 11,1 C 86 % 1015,4 hPa 0,0 l/m 4,8 km/h (1 Bft) W-NW 301 0 min 0,7 UV-I 170 W/m 5,8 C 8,0 C 11,3 km/h (2 Bft)
23.02.2023 14:12 7,8 C 9,4 C 86 % 1015,3 hPa 0,0 l/m 5,7 km/h (1 Bft) NW 325 0 min 0,5 UV-I 109 W/m 5,6 C 7,8 C 12,9 km/h (3 Bft)
23.02.2023 14:15 7,7 C 9,4 C 86 % 1015,4 hPa 0,0 l/m 2,1 km/h (1 Bft) NW 311 0 min 0,6 UV-I 98 W/m 5,5 C 7,7 C 6,4 km/h (2 Bft)
23.02.2023 14:18 7,5 C 8,9 C 86 % 1015,5 hPa 0,0 l/m 6,1 km/h (2 Bft) W-NW 290 0 min 0,6 UV-I 103 W/m 5,3 C 7,5 C 12,9 km/h (3 Bft)
23.02.2023 14:21 7,5 C 8,3 C 86 % 1015,4 hPa 0,0 l/m 5,0 km/h (1 Bft) W-NW 301 0 min 0,7 UV-I 116 W/m 5,3 C 7,5 C 11,3 km/h (2 Bft)
23.02.2023 14:24 7,6 C 8,3 C 87 % 1015,4 hPa 0,0 l/m 1,7 km/h (1 Bft) W-NW 303 0 min 0,7 UV-I 131 W/m 5,6 C 7,6 C 4,8 km/h (1 Bft)
23.02.2023 14:27 7,6 C 8,9 C 87 % 1015,4 hPa 0,0 l/m 0,7 km/h (0 Bft) NW 313 0 min 0,8 UV-I 135 W/m 5,6 C 7,6 C 4,8 km/h (1 Bft)
23.02.2023 14:30 7,7 C 8,9 C 87 % 1015,4 hPa 0,0 l/m 4,8 km/h (1 Bft) W-NW 300 0 min 0,8 UV-I 128 W/m 5,7 C 7,7 C 12,9 km/h (3 Bft)
23.02.2023 14:33 7,8 C 8,9 C 86 % 1015,5 hPa 0,0 l/m 3,9 km/h (1 Bft) W-NW 288 0 min 0,7 UV-I 125 W/m 5,6 C 7,8 C 11,3 km/h (2 Bft)
23.02.2023 14:36 7,7 C 8,9 C 86 % 1015,4 hPa 0,0 l/m 1,8 km/h (1 Bft) NW 307 0 min 0,7 UV-I 123 W/m 5,5 C 7,7 C 11,3 km/h (2 Bft)
23.02.2023 14:39 7,7 C 8,3 C 85 % 1015,4 hPa 0,0 l/m 1,1 km/h (1 Bft) NW 306 0 min 0,7 UV-I 121 W/m 5,3 C 7,7 C 4,8 km/h (1 Bft)
23.02.2023 14:42 7,6 C 8,3 C 84 % 1015,4 hPa 0,0 l/m 4,2 km/h (1 Bft) W-NW 295 0 min 0,6 UV-I 114 W/m 5,1 C 7,6 C 8,0 km/h (2 Bft)
23.02.2023 14:45 7,7 C 8,9 C 85 % 1015,4 hPa 0,0 l/m 2,2 km/h (1 Bft) W-NW 294 0 min 0,6 UV-I 113 W/m 5,3 C 7,7 C 6,4 km/h (2 Bft)
23.02.2023 14:48 7,7 C 8,9 C 85 % 1015,5 hPa 0,0 l/m 0,0 km/h (0 Bft) W-NW 294 0 min 0,5 UV-I 105 W/m 5,3 C 7,7 C 1,6 km/h (1 Bft)
23.02.2023 14:51 7,7 C 8,9 C 85 % 1015,5 hPa 0,0 l/m 1,1 km/h (1 Bft) W-NW 294 0 min 0,5 UV-I 111 W/m 5,3 C 7,7 C 6,4 km/h (2 Bft)
23.02.2023 14:54 7,7 C 8,9 C 85 % 1015,5 hPa 0,0 l/m 0,0 km/h (0 Bft) W-NW 294 0 min 0,3 UV-I 100 W/m 5,3 C 7,7 C 0,0 km/h (0 Bft)
23.02.2023 14:57 7,7 C 8,3 C 86 % 1015,4 hPa 0,0 l/m 4,5 km/h (1 Bft) W-SW 250 0 min 0,0 UV-I 68 W/m 5,5 C 7,7 C 8,0 km/h (2 Bft)
23.02.2023 15:00 7,5 C 7,8 C 86 % 1015,4 hPa 0,0 l/m 5,2 km/h (1 Bft) W 265 0 min 0,0 UV-I 48 W/m 5,3 C 7,5 C 11,3 km/h (2 Bft)
23.02.2023 15:03 7,3 C 7,8 C 87 % 1015,5 hPa 0,0 l/m 6,1 km/h (2 Bft) W 263 0 min 0,0 UV-I 42 W/m 5,3 C 7,3 C 9,7 km/h (2 Bft)
23.02.2023 15:06 7,2 C 7,2 C 87 % 1015,6 hPa 0,0 l/m 5,0 km/h (1 Bft) W 263 0 min 0,0 UV-I 45 W/m 5,2 C 7,2 C 9,7 km/h (2 Bft)
23.02.2023 15:09 7,2 C 7,2 C 87 % 1015,6 hPa 0,0 l/m 5,9 km/h (2 Bft) W 281 0 min 0,0 UV-I 46 W/m 5,2 C 7,2 C 11,3 km/h (2 Bft)
23.02.2023 15:12 7,1 C 7,2 C 87 % 1015,6 hPa 0,0 l/m 4,7 km/h (1 Bft) W-NW 294 0 min 0,0 UV-I 46 W/m 5,1 C 7,1 C 9,7 km/h (2 Bft)
23.02.2023 15:15 7,1 C 7,2 C 88 % 1015,7 hPa 0,0 l/m 3,2 km/h (1 Bft) W 275 0 min 0,0 UV-I 44 W/m 5,2 C 7,1 C 6,4 km/h (2 Bft)
23.02.2023 15:18 7,0 C 7,2 C 88 % 1015,6 hPa 0,0 l/m 3,1 km/h (1 Bft) W 267 0 min 0,0 UV-I 45 W/m 5,2 C 7,0 C 11,3 km/h (2 Bft)
23.02.2023 15:21 7,0 C 7,2 C 88 % 1015,6 hPa 0,0 l/m 3,5 km/h (1 Bft) W 279 0 min 0,0 UV-I 45 W/m 5,2 C 7,0 C 9,7 km/h (2 Bft)
23.02.2023 15:24 7,1 C 7,2 C 88 % 1015,7 hPa 0,0 l/m 3,9 km/h (1 Bft) NW 317 0 min 0,0 UV-I 43 W/m 5,2 C 7,1 C 8,0 km/h (2 Bft)
23.02.2023 15:27 7,0 C 7,2 C 88 % 1015,5 hPa 0,0 l/m 3,7 km/h (1 Bft) NW 316 0 min 0,0 UV-I 41 W/m 5,2 C 7,0 C 8,0 km/h (2 Bft)
23.02.2023 15:30 6,9 C 7,2 C 88 % 1015,6 hPa 0,0 l/m 4,4 km/h (1 Bft) NW 307 0 min 0,0 UV-I 40 W/m 5,1 C 6,9 C 8,0 km/h (2 Bft)
23.02.2023 15:33 7,0 C 7,2 C 88 % 1015,7 hPa 0,0 l/m 3,9 km/h (1 Bft) NW 316 0 min 0,0 UV-I 40 W/m 5,2 C 7,0 C 6,4 km/h (2 Bft)
23.02.2023 15:36 7,1 C 7,2 C 88 % 1015,6 hPa 0,0 l/m 3,0 km/h (1 Bft) NW 315 0 min 0,0 UV-I 40 W/m 5,2 C 7,1 C 6,4 km/h (2 Bft)
23.02.2023 15:39 7,0 C 7,2 C 88 % 1015,7 hPa 0,0 l/m 0,7 km/h (0 Bft) NW 316 0 min 0,0 UV-I 41 W/m 5,2 C 7,0 C 3,2 km/h (1 Bft)
23.02.2023 15:42 6,9 C 7,2 C 88 % 1015,6 hPa 0,0 l/m 2,5 km/h (1 Bft) NW 316 0 min 0,0 UV-I 47 W/m 5,1 C 6,9 C 4,8 km/h (1 Bft)
23.02.2023 15:45 6,9 C 7,2 C 88 % 1015,7 hPa 0,0 l/m 1,4 km/h (1 Bft) NW 316 0 min 0,0 UV-I 47 W/m 5,1 C 6,9 C 4,8 km/h (1 Bft)
23.02.2023 15:48 7,1 C 7,8 C 88 % 1015,6 hPa 0,0 l/m 0,0 km/h (0 Bft) NW 316 0 min 0,0 UV-I 52 W/m 5,2 C 7,1 C 1,6 km/h (1 Bft)
23.02.2023 15:51 7,1 C 7,8 C 88 % 1015,6 hPa 0,0 l/m 0,0 km/h (0 Bft) NW 316 0 min 0,0 UV-I 57 W/m 5,2 C 7,1 C 0,0 km/h (0 Bft)
23.02.2023 15:54 7,1 C 7,8 C 88 % 1015,7 hPa 0,0 l/m 0,0 km/h (0 Bft) NW 316 0 min 0,0 UV-I 52 W/m 5,2 C 7,1 C 1,6 km/h (1 Bft)
23.02.2023 15:57 7,1 C 7,8 C 88 % 1015,6 hPa 0,0 l/m 0,1 km/h (0 Bft) NW 317 0 min 0,0 UV-I 40 W/m 5,2 C 7,1 C 3,2 km/h (1 Bft)
23.02.2023 16:00 7,1 C 7,8 C 88 % 1015,7 hPa 0,0 l/m 0,8 km/h (0 Bft) NW 317 0 min 0,0 UV-I 27 W/m 5,2 C 7,1 C 4,8 km/h (1 Bft)
23.02.2023 16:03 7,1 C 7,2 C 88 % 1015,7 hPa 0,0 l/m 4,9 km/h (1 Bft) NW 316 0 min 0,0 UV-I 25 W/m 5,2 C 7,1 C 9,7 km/h (2 Bft)
23.02.2023 16:06 6,9 C 7,2 C 88 % 1015,7 hPa 0,0 l/m 5,4 km/h (1 Bft) NW 324 0 min 0,0 UV-I 37 W/m 5,1 C 6,9 C 9,7 km/h (2 Bft)
23.02.2023 16:09 6,8 C 7,2 C 88 % 1015,7 hPa 0,0 l/m 2,9 km/h (1 Bft) N-NW 333 0 min 0,0 UV-I 50 W/m 5,0 C 6,8 C 6,4 km/h (2 Bft)
23.02.2023 16:12 6,8 C 7,2 C 88 % 1015,7 hPa 0,0 l/m 1,9 km/h (1 Bft) N-NW 330 0 min 0,0 UV-I 57 W/m 5,0 C 6,8 C 6,4 km/h (2 Bft)
23.02.2023 16:15 6,8 C 7,2 C 89 % 1015,7 hPa 0,0 l/m 3,8 km/h (1 Bft) N-NW 329 0 min 0,0 UV-I 48 W/m 5,1 C 6,8 C 6,4 km/h (2 Bft)
23.02.2023 16:18 6,8 C 7,2 C 89 % 1015,8 hPa 0,0 l/m 2,7 km/h (1 Bft) N-NW 329 0 min 0,0 UV-I 47 W/m 5,1 C 6,8 C 6,4 km/h (2 Bft)
23.02.2023 16:21 6,8 C 7,2 C 89 % 1015,8 hPa 0,0 l/m 6,1 km/h (2 Bft) N-NW 343 0 min 0,0 UV-I 43 W/m 5,1 C 6,8 C 9,7 km/h (2 Bft)
23.02.2023 16:24 6,8 C 7,2 C 89 % 1015,8 hPa 0,0 l/m 6,2 km/h (2 Bft) N 355 0 min 0,0 UV-I 32 W/m 5,1 C 6,8 C 9,7 km/h (2 Bft)
23.02.2023 16:27 6,8 C 7,2 C 88 % 1015,9 hPa 0,0 l/m 4,1 km/h (1 Bft) N 355 0 min 0,0 UV-I 31 W/m 5,0 C 6,8 C 8,0 km/h (2 Bft)
23.02.2023 16:30 6,7 C 7,2 C 88 % 1015,8 hPa 0,0 l/m 4,2 km/h (1 Bft) N-NW 340 0 min 0,0 UV-I 40 W/m 4,9 C 6,7 C 6,4 km/h (2 Bft)
23.02.2023 16:33 6,7 C 7,2 C 89 % 1015,9 hPa 0,0 l/m 4,3 km/h (1 Bft) N 355 0 min 0,0 UV-I 51 W/m 5,0 C 6,7 C 8,0 km/h (2 Bft)
23.02.2023 16:36 6,7 C 7,2 C 89 % 1015,9 hPa 0,0 l/m 3,5 km/h (1 Bft) N 351 0 min 0,0 UV-I 59 W/m 5,0 C 6,7 C 8,0 km/h (2 Bft)
23.02.2023 16:39 6,8 C 7,2 C 89 % 1015,8 hPa 0,0 l/m 4,4 km/h (1 Bft) N 349 0 min 0,0 UV-I 59 W/m 5,1 C 6,8 C 8,0 km/h (2 Bft)
23.02.2023 16:42 6,8 C 7,2 C 89 % 1015,9 hPa 0,0 l/m 4,4 km/h (1 Bft) N-NW 339 0 min 0,0 UV-I 49 W/m 5,1 C 6,8 C 8,0 km/h (2 Bft)
23.02.2023 16:45 6,7 C 7,2 C 88 % 1016,0 hPa 0,0 l/m 4,9 km/h (1 Bft) N-NW 344 0 min 0,0 UV-I 38 W/m 4,9 C 6,7 C 9,7 km/h (2 Bft)
23.02.2023 16:48 6,7 C 6,7 C 88 % 1016,0 hPa 0,0 l/m 3,9 km/h (1 Bft) N-NW 344 0 min 0,0 UV-I 29 W/m 4,9 C 6,7 C 8,0 km/h (2 Bft)
23.02.2023 16:51 6,7 C 6,7 C 88 % 1016,0 hPa 0,0 l/m 5,1 km/h (1 Bft) N-NW 327 0 min 0,0 UV-I 26 W/m 4,9 C 6,7 C 8,0 km/h (2 Bft)
23.02.2023 16:54 6,7 C 6,7 C 88 % 1016,1 hPa 0,0 l/m 5,2 km/h (1 Bft) N-NW 328 0 min 0,0 UV-I 24 W/m 4,9 C 6,7 C 9,7 km/h (2 Bft)
23.02.2023 16:57 6,7 C 6,7 C 88 % 1016,1 hPa 0,0 l/m 3,1 km/h (1 Bft) N-NW 329 0 min 0,0 UV-I 19 W/m 4,9 C 6,7 C 6,4 km/h (2 Bft)
23.02.2023 17:00 6,7 C 6,7 C 88 % 1016,1 hPa 0,0 l/m 4,0 km/h (1 Bft) N-NW 331 0 min 0,0 UV-I 12 W/m 4,9 C 6,7 C 8,0 km/h (2 Bft)
23.02.2023 17:03 6,6 C 6,7 C 88 % 1016,1 hPa 0,0 l/m 4,8 km/h (1 Bft) N 350 0 min 0,0 UV-I 8 W/m 4,8 C 6,6 C 8,0 km/h (2 Bft)
23.02.2023 17:06 6,6 C 6,1 C 88 % 1016,1 hPa 0,0 l/m 4,9 km/h (1 Bft) N-NW 348 0 min 0,0 UV-I 7 W/m 4,8 C 6,6 C 8,0 km/h (2 Bft)
23.02.2023 17:09 6,5 C 6,1 C 89 % 1016,0 hPa 0,0 l/m 5,8 km/h (2 Bft) N-NW 341 0 min 0,0 UV-I 7 W/m 4,8 C 6,5 C 9,7 km/h (2 Bft)
23.02.2023 17:12 6,4 C 6,1 C 89 % 1015,9 hPa 0,0 l/m 6,6 km/h (2 Bft) N-NW 344 0 min 0,0 UV-I 7 W/m 4,7 C 6,3 C 12,9 km/h (3 Bft)
23.02.2023 17:15 6,4 C 6,1 C 89 % 1016,0 hPa 0,0 l/m 8,1 km/h (2 Bft) N-NW 345 0 min 0,0 UV-I 6 W/m 4,7 C 5,0 C 14,5 km/h (3 Bft)
23.02.2023 17:18 6,3 C 6,1 C 89 % 1016,0 hPa 0,0 l/m 15,7 km/h (3 Bft) N-NW 346 0 min 0,0 UV-I 5 W/m 4,6 C 0,3 C 20,9 km/h (4 Bft)
23.02.2023 17:21 6,1 C 5,6 C 89 % 1016,0 hPa 0,0 l/m 11,8 km/h (2 Bft) N 351 0 min 0,0 UV-I 5 W/m 4,4 C 2,1 C 17,7 km/h (3 Bft)
23.02.2023 17:24 5,9 C 5,6 C 89 % 1016,0 hPa 0,0 l/m 14,6 km/h (3 Bft) N 9 0 min 0,0 UV-I 5 W/m 4,2 C 0,4 C 22,5 km/h (4 Bft)
23.02.2023 17:27 5,8 C 5,6 C 90 % 1016,1 hPa 0,0 l/m 10,2 km/h (2 Bft) N 355 0 min 0,0 UV-I 5 W/m 4,3 C 2,8 C 14,5 km/h (3 Bft)
23.02.2023 17:30 5,7 C 5,6 C 90 % 1016,1 hPa 0,0 l/m 12,5 km/h (3 Bft) N 350 0 min 0,0 UV-I 1 W/m 4,2 C 1,3 C 16,1 km/h (3 Bft)
23.02.2023 17:33 5,6 C 5,6 C 90 % 1016,1 hPa 0,0 l/m 10,6 km/h (2 Bft) N 355 0 min 0,0 UV-I 1 W/m 4,1 C 2,3 C 16,1 km/h (3 Bft)
23.02.2023 17:36 5,5 C 5,0 C 91 % 1016,1 hPa 0,0 l/m 9,1 km/h (2 Bft) N 355 0 min 0,0 UV-I 0 W/m 4,2 C 3,3 C 16,1 km/h (3 Bft)
23.02.2023 17:39 5,4 C 5,0 C 91 % 1016,2 hPa 0,0 l/m 7,9 km/h (2 Bft) N-NW 348 0 min 0,0 UV-I 0 W/m 4,1 C 4,1 C 12,9 km/h (3 Bft)
23.02.2023 17:42 5,4 C 5,0 C 91 % 1016,2 hPa 0,0 l/m 6,4 km/h (2 Bft) NW 324 0 min 0,0 UV-I 0 W/m 4,1 C 5,4 C 14,5 km/h (3 Bft)
23.02.2023 17:45 5,4 C 5,0 C 91 % 1016,1 hPa 0,0 l/m 4,2 km/h (1 Bft) N-NW 330 0 min 0,0 UV-I 0 W/m 4,1 C 5,4 C 12,9 km/h (3 Bft)
23.02.2023 17:48 5,3 C 5,0 C 91 % 1016,1 hPa 0,0 l/m 3,3 km/h (1 Bft) NW 321 0 min 0,0 UV-I 0 W/m 4,0 C 5,3 C 6,4 km/h (2 Bft)
23.02.2023 17:51 5,3 C 5,0 C 91 % 1016,2 hPa 0,0 l/m 5,0 km/h (1 Bft) NW 322 0 min 0,0 UV-I 0 W/m 4,0 C 5,3 C 11,3 km/h (2 Bft)
23.02.2023 17:54 5,3 C 5,0 C 91 % 1016,2 hPa 0,0 l/m 5,9 km/h (2 Bft) NW 324 0 min 0,0 UV-I 0 W/m 4,0 C 5,3 C 12,9 km/h (3 Bft)
23.02.2023 17:57 5,3 C 5,0 C 91 % 1016,2 hPa 0,0 l/m 5,1 km/h (1 Bft) NW 323 0 min 0,0 UV-I 0 W/m 4,0 C 5,3 C 12,9 km/h (3 Bft)
23.02.2023 18:00 5,3 C 5,0 C 91 % 1016,2 hPa 0,0 l/m 5,8 km/h (2 Bft) W-NW 297 0 min 0,0 UV-I 0 W/m 4,0 C 5,3 C 11,3 km/h (2 Bft)
23.02.2023 18:03 5,3 C 5,0 C 91 % 1016,2 hPa 0,0 l/m 5,3 km/h (1 Bft) N-NW 333 0 min 0,0 UV-I 0 W/m 4,0 C 5,3 C 11,3 km/h (2 Bft)
23.02.2023 18:06 5,2 C 5,0 C 91 % 1016,2 hPa 0,0 l/m 4,6 km/h (1 Bft) N-NW 335 0 min 0,0 UV-I 0 W/m 3,9 C 5,2 C 9,7 km/h (2 Bft)
23.02.2023 18:09 5,2 C 5,0 C 91 % 1016,2 hPa 0,0 l/m 5,3 km/h (1 Bft) NW 325 0 min 0,0 UV-I 0 W/m 3,9 C 5,2 C 12,9 km/h (3 Bft)
23.02.2023 18:12 5,2 C 5,0 C 92 % 1016,3 hPa 0,0 l/m 7,2 km/h (2 Bft) NW 323 0 min 0,0 UV-I 0 W/m 4,0 C 4,5 C 12,9 km/h (3 Bft)
23.02.2023 18:15 5,2 C 5,0 C 92 % 1016,2 hPa 0,0 l/m 3,4 km/h (1 Bft) N-NW 328 0 min 0,0 UV-I 0 W/m 4,0 C 5,2 C 8,0 km/h (2 Bft)
23.02.2023 18:18 5,2 C 5,0 C 92 % 1016,2 hPa 0,0 l/m 3,4 km/h (1 Bft) NW 323 0 min 0,0 UV-I 0 W/m 4,0 C 5,2 C 8,0 km/h (2 Bft)
23.02.2023 18:21 5,2 C 5,0 C 92 % 1016,3 hPa 0,0 l/m 3,9 km/h (1 Bft) N-NW 337 0 min 0,0 UV-I 0 W/m 4,0 C 5,2 C 8,0 km/h (2 Bft)
23.02.2023 18:24 5,2 C 5,0 C 92 % 1016,4 hPa 0,0 l/m 3,9 km/h (1 Bft) N-NW 335 0 min 0,0 UV-I 0 W/m 4,0 C 5,2 C 6,4 km/h (2 Bft)
23.02.2023 18:27 5,2 C 5,0 C 92 % 1016,4 hPa 0,0 l/m 3,9 km/h (1 Bft) N-NW 346 0 min 0,0 UV-I 0 W/m 4,0 C 5,2 C 8,0 km/h (2 Bft)
23.02.2023 18:30 5,2 C 5,0 C 92 % 1016,3 hPa 0,0 l/m 1,9 km/h (1 Bft) N-NW 343 0 min 0,0 UV-I 0 W/m 4,0 C 5,2 C 6,4 km/h (2 Bft)
23.02.2023 18:33 5,1 C 5,0 C 92 % 1016,4 hPa 0,0 l/m 6,7 km/h (2 Bft) N-NW 346 0 min 0,0 UV-I 0 W/m 3,9 C 4,9 C 9,7 km/h (2 Bft)
23.02.2023 18:36 5,1 C 5,0 C 92 % 1016,4 hPa 0,0 l/m 7,0 km/h (2 Bft) N 351 0 min 0,0 UV-I 0 W/m 3,9 C 4,6 C 9,7 km/h (2 Bft)
23.02.2023 18:39 5,1 C 5,0 C 92 % 1016,4 hPa 0,0 l/m 6,3 km/h (2 Bft) N-NW 343 0 min 0,0 UV-I 0 W/m 3,9 C 5,1 C 9,7 km/h (2 Bft)
23.02.2023 18:42 5,1 C 5,0 C 92 % 1016,4 hPa 0,0 l/m 4,3 km/h (1 Bft) N 349 0 min 0,0 UV-I 0 W/m 3,9 C 5,1 C 8,0 km/h (2 Bft)
23.02.2023 18:45 5,1 C 5,0 C 92 % 1016,4 hPa 0,0 l/m 3,9 km/h (1 Bft) N-NW 348 0 min 0,0 UV-I 0 W/m 3,9 C 5,1 C 6,4 km/h (2 Bft)
23.02.2023 18:48 5,1 C 5,0 C 92 % 1016,4 hPa 0,0 l/m 5,7 km/h (1 Bft) N-NW 346 0 min 0,0 UV-I 0 W/m 3,9 C 5,1 C 9,7 km/h (2 Bft)
23.02.2023 18:51 5,1 C 5,0 C 92 % 1016,3 hPa 0,0 l/m 3,7 km/h (1 Bft) N-NW 346 0 min 0,0 UV-I 0 W/m 3,9 C 5,1 C 4,8 km/h (1 Bft)
23.02.2023 18:54 5,1 C 5,0 C 92 % 1016,4 hPa 0,0 l/m 2,8 km/h (1 Bft) N-NW 346 0 min 0,0 UV-I 0 W/m 3,9 C 5,1 C 4,8 km/h (1 Bft)
23.02.2023 18:57 5,1 C 5,0 C 92 % 1016,3 hPa 0,0 l/m 3,1 km/h (1 Bft) N-NW 346 0 min 0,0 UV-I 0 W/m 3,9 C 5,1 C 4,8 km/h (1 Bft)
23.02.2023 19:00 5,1 C 5,0 C 92 % 1016,4 hPa 0,0 l/m 1,2 km/h (1 Bft) N-NW 346 0 min 0,0 UV-I 0 W/m 3,9 C 5,1 C 3,2 km/h (1 Bft)
23.02.2023 19:03 5,1 C 5,0 C 92 % 1016,4 hPa 0,0 l/m 1,2 km/h (1 Bft) N-NW 346 0 min 0,0 UV-I 0 W/m 3,9 C 5,1 C 3,2 km/h (1 Bft)
23.02.2023 19:06 5,1 C 5,0 C 92 % 1016,5 hPa 0,0 l/m 0,3 km/h (0 Bft) N-NW 346 0 min 0,0 UV-I 0 W/m 3,9 C 5,1 C 3,2 km/h (1 Bft)
23.02.2023 19:09 5,1 C 5,0 C 92 % 1016,4 hPa 0,0 l/m 0,0 km/h (0 Bft) N-NW 346 0 min 0,0 UV-I 0 W/m 3,9 C 5,1 C 0,0 km/h (0 Bft)
23.02.2023 19:12 5,1 C 5,0 C 92 % 1016,5 hPa 0,0 l/m 0,0 km/h (0 Bft) N-NW 346 0 min 0,0 UV-I 0 W/m 3,9 C 5,1 C 0,0 km/h (0 Bft)
23.02.2023 19:15 5,0 C 5,0 C 93 % 1016,4 hPa 0,0 l/m 0,0 km/h (0 Bft) N-NW 346 0 min 0,0 UV-I 0 W/m 4,0 C 5,0 C 0,0 km/h (0 Bft)
23.02.2023 19:18 5,0 C 5,0 C 93 % 1016,3 hPa 0,0 l/m 0,0 km/h (0 Bft) N-NW 346 0 min 0,0 UV-I 0 W/m 4,0 C 5,0 C 0,0 km/h (0 Bft)
23.02.2023 19:21 5,0 C 4,4 C 93 % 1016,4 hPa 0,0 l/m 0,0 km/h (0 Bft) N-NW 346 0 min 0,0 UV-I 0 W/m 4,0 C 5,0 C 0,0 km/h (0 Bft)
23.02.2023 19:24 5,0 C 4,4 C 93 % 1016,3 hPa 0,0 l/m 0,0 km/h (0 Bft) N-NW 346 0 min 0,0 UV-I 0 W/m 4,0 C 5,0 C 0,0 km/h (0 Bft)
23.02.2023 19:27 4,9 C 4,4 C 93 % 1016,4 hPa 0,0 l/m 0,0 km/h (0 Bft) N-NW 346 0 min 0,0 UV-I 0 W/m 3,9 C 4,9 C 0,0 km/h (0 Bft)
23.02.2023 19:30 5,0 C 4,4 C 92 % 1016,4 hPa 0,0 l/m 0,0 km/h (0 Bft) N-NW 346 0 min 0,0 UV-I 0 W/m 3,8 C 5,0 C 1,6 km/h (1 Bft)
23.02.2023 19:33 5,0 C 4,4 C 93 % 1016,4 hPa 0,0 l/m 0,8 km/h (0 Bft) N-NW 346 0 min 0,0 UV-I 0 W/m 4,0 C 5,0 C 3,2 km/h (1 Bft)
23.02.2023 19:36 5,0 C 4,4 C 93 % 1016,4 hPa 0,0 l/m 0,2 km/h (0 Bft) N-NW 346 0 min 0,0 UV-I 0 W/m 4,0 C 5,0 C 1,6 km/h (1 Bft)
23.02.2023 19:39 5,0 C 4,4 C 92 % 1016,4 hPa 0,0 l/m 2,0 km/h (1 Bft) N-NW 346 0 min 0,0 UV-I 0 W/m 3,8 C 5,0 C 6,4 km/h (2 Bft)
23.02.2023 19:42 5,0 C 4,4 C 92 % 1016,5 hPa 0,0 l/m 1,3 km/h (1 Bft) N-NW 346 0 min 0,0 UV-I 0 W/m 3,8 C 5,0 C 4,8 km/h (1 Bft)
23.02.2023 19:45 5,0 C 4,4 C 92 % 1016,4 hPa 0,0 l/m 3,1 km/h (1 Bft) N-NW 344 0 min 0,0 UV-I 0 W/m 3,8 C 5,0 C 6,4 km/h (2 Bft)
23.02.2023 19:48 4,9 C 4,4 C 92 % 1016,4 hPa 0,0 l/m 1,5 km/h (1 Bft) N-NW 344 0 min 0,0 UV-I 0 W/m 3,7 C 4,9 C 6,4 km/h (2 Bft)
23.02.2023 19:51 4,9 C 4,4 C 93 % 1016,4 hPa 0,0 l/m 0,5 km/h (0 Bft) N-NW 344 0 min 0,0 UV-I 0 W/m 3,9 C 4,9 C 3,2 km/h (1 Bft)
23.02.2023 19:54 4,9 C 4,4 C 93 % 1016,4 hPa 0,0 l/m 3,8 km/h (1 Bft) N-NW 346 0 min 0,0 UV-I 0 W/m 3,9 C 4,9 C 6,4 km/h (2 Bft)
23.02.2023 19:57 4,9 C 4,4 C 93 % 1016,4 hPa 0,0 l/m 1,8 km/h (1 Bft) N-NW 346 0 min 0,0 UV-I 0 W/m 3,9 C 4,9 C 6,4 km/h (2 Bft)
23.02.2023 20:00 4,9 C 4,4 C 93 % 1016,5 hPa 0,0 l/m 3,3 km/h (1 Bft) N-NW 342 0 min 0,0 UV-I 0 W/m 3,9 C 4,9 C 6,4 km/h (2 Bft)
23.02.2023 20:03 4,9 C 4,4 C 92 % 1016,5 hPa 0,0 l/m 3,5 km/h (1 Bft) N-NW 340 0 min 0,0 UV-I 0 W/m 3,7 C 4,9 C 6,4 km/h (2 Bft)
23.02.2023 20:06 4,9 C 4,4 C 92 % 1016,5 hPa 0,0 l/m 5,4 km/h (1 Bft) NW 321 0 min 0,0 UV-I 0 W/m 3,7 C 4,9 C 12,9 km/h (3 Bft)
23.02.2023 20:09 4,9 C 4,4 C 92 % 1016,5 hPa 0,0 l/m 5,0 km/h (1 Bft) N-NW 341 0 min 0,0 UV-I 0 W/m 3,7 C 4,9 C 12,9 km/h (3 Bft)
23.02.2023 20:12 4,8 C 4,4 C 92 % 1016,4 hPa 0,0 l/m 10,7 km/h (2 Bft) N-NW 348 0 min 0,0 UV-I 0 W/m 3,6 C 1,4 C 14,5 km/h (3 Bft)
23.02.2023 20:15 4,8 C 4,4 C 92 % 1016,4 hPa 0,0 l/m 6,9 km/h (2 Bft) N-NW 347 0 min 0,0 UV-I 0 W/m 3,6 C 4,4 C 9,7 km/h (2 Bft)
23.02.2023 20:18 4,8 C 4,4 C 92 % 1016,5 hPa 0,0 l/m 4,7 km/h (1 Bft) N-NW 347 0 min 0,0 UV-I 0 W/m 3,6 C 4,8 C 8,0 km/h (2 Bft)
23.02.2023 20:21 4,8 C 4,4 C 92 % 1016,5 hPa 0,0 l/m 1,7 km/h (1 Bft) N-NW 347 0 min 0,0 UV-I 0 W/m 3,6 C 4,8 C 4,8 km/h (1 Bft)
23.02.2023 20:24 4,8 C 4,4 C 92 % 1016,5 hPa 0,0 l/m 2,6 km/h (1 Bft) N-NW 347 0 min 0,0 UV-I 0 W/m 3,6 C 4,8 C 6,4 km/h (2 Bft)
23.02.2023 20:27 4,8 C 4,4 C 92 % 1016,5 hPa 0,0 l/m 1,8 km/h (1 Bft) N-NW 347 0 min 0,0 UV-I 0 W/m 3,6 C 4,8 C 4,8 km/h (1 Bft)
23.02.2023 20:30 4,8 C 4,4 C 92 % 1016,4 hPa 0,0 l/m 0,6 km/h (0 Bft) N-NW 347 0 min 0,0 UV-I 0 W/m 3,6 C 4,8 C 3,2 km/h (1 Bft)
23.02.2023 20:33 4,8 C 4,4 C 92 % 1016,5 hPa 0,0 l/m 0,0 km/h (0 Bft) N-NW 347 0 min 0,0 UV-I 0 W/m 3,6 C 4,8 C 0,0 km/h (0 Bft)
23.02.2023 20:36 4,8 C 4,4 C 92 % 1016,4 hPa 0,0 l/m 0,0 km/h (0 Bft) N-NW 347 0 min 0,0 UV-I 0 W/m 3,6 C 4,8 C 0,0 km/h (0 Bft)
23.02.2023 20:39 4,8 C 4,4 C 92 % 1016,4 hPa 0,0 l/m 0,7 km/h (0 Bft) N-NW 347 0 min 0,0 UV-I 0 W/m 3,6 C 4,8 C 1,6 km/h (1 Bft)
23.02.2023 20:42 4,8 C 4,4 C 92 % 1016,3 hPa 0,0 l/m 1,3 km/h (1 Bft) N-NW 347 0 min 0,0 UV-I 0 W/m 3,6 C 4,8 C 3,2 km/h (1 Bft)
23.02.2023 20:45 4,8 C 4,4 C 92 % 1016,4 hPa 0,0 l/m 3,5 km/h (1 Bft) N-NW 344 0 min 0,0 UV-I 0 W/m 3,6 C 4,8 C 6,4 km/h (2 Bft)
23.02.2023 20:48 4,8 C 4,4 C 92 % 1016,4 hPa 0,0 l/m 2,4 km/h (1 Bft) N-NW 342 0 min 0,0 UV-I 0 W/m 3,6 C 4,8 C 6,4 km/h (2 Bft)
23.02.2023 20:51 4,8 C 4,4 C 92 % 1016,4 hPa 0,0 l/m 2,0 km/h (1 Bft) N-NW 342 0 min 0,0 UV-I 0 W/m 3,6 C 4,8 C 4,8 km/h (1 Bft)
23.02.2023 20:54 4,7 C 4,4 C 92 % 1016,5 hPa 0,0 l/m 2,3 km/h (1 Bft) N-NW 344 0 min 0,0 UV-I 0 W/m 3,5 C 4,7 C 6,4 km/h (2 Bft)
23.02.2023 20:57 4,7 C 4,4 C 92 % 1016,4 hPa 0,0 l/m 2,9 km/h (1 Bft) N-NW 339 0 min 0,0 UV-I 0 W/m 3,5 C 4,7 C 6,4 km/h (2 Bft)
23.02.2023 21:00 4,7 C 4,4 C 92 % 1016,5 hPa 0,0 l/m 3,2 km/h (1 Bft) N-NW 338 0 min 0,0 UV-I 0 W/m 3,5 C 4,7 C 6,4 km/h (2 Bft)
23.02.2023 21:03 4,7 C 4,4 C 92 % 1016,5 hPa 0,0 l/m 2,9 km/h (1 Bft) N-NW 329 0 min 0,0 UV-I 0 W/m 3,5 C 4,7 C 6,4 km/h (2 Bft)
23.02.2023 21:06 4,7 C 4,4 C 92 % 1016,5 hPa 0,0 l/m 3,0 km/h (1 Bft) N-NW 330 0 min 0,0 UV-I 0 W/m 3,5 C 4,7 C 8,0 km/h (2 Bft)
23.02.2023 21:09 4,6 C 4,4 C 92 % 1016,6 hPa 0,0 l/m 4,6 km/h (1 Bft) N-NW 333 0 min 0,0 UV-I 0 W/m 3,4 C 4,6 C 8,0 km/h (2 Bft)
23.02.2023 21:12 4,6 C 4,4 C 92 % 1016,6 hPa 0,0 l/m 5,5 km/h (1 Bft) N-NW 340 0 min 0,0 UV-I 0 W/m 3,4 C 4,6 C 8,0 km/h (2 Bft)
23.02.2023 21:15 4,6 C 4,4 C 92 % 1016,7 hPa 0,0 l/m 5,8 km/h (2 Bft) N-NW 344 0 min 0,0 UV-I 0 W/m 3,4 C 4,6 C 9,7 km/h (2 Bft)
23.02.2023 21:18 4,6 C 4,4 C 92 % 1016,7 hPa 0,0 l/m 3,2 km/h (1 Bft) N-NW 344 0 min 0,0 UV-I 0 W/m 3,4 C 4,6 C 6,4 km/h (2 Bft)
23.02.2023 21:21 4,6 C 4,4 C 92 % 1016,7 hPa 0,0 l/m 1,0 km/h (0 Bft) N-NW 340 0 min 0,0 UV-I 0 W/m 3,4 C 4,6 C 4,8 km/h (1 Bft)
23.02.2023 21:24 4,5 C 4,4 C 92 % 1016,8 hPa 0,0 l/m 3,4 km/h (1 Bft) N-NW 329 0 min 0,0 UV-I 0 W/m 3,3 C 4,5 C 6,4 km/h (2 Bft)
23.02.2023 21:27 4,5 C 4,4 C 92 % 1016,8 hPa 0,0 l/m 2,0 km/h (1 Bft) N-NW 328 0 min 0,0 UV-I 0 W/m 3,3 C 4,5 C 4,8 km/h (1 Bft)
23.02.2023 21:30 4,4 C 3,9 C 92 % 1016,9 hPa 0,0 l/m 3,2 km/h (1 Bft) N-NW 328 0 min 0,0 UV-I 0 W/m 3,2 C 4,4 C 6,4 km/h (2 Bft)
23.02.2023 21:33 4,5 C 3,9 C 92 % 1016,8 hPa 0,0 l/m 2,7 km/h (1 Bft) N-NW 328 0 min 0,0 UV-I 0 W/m 3,3 C 4,5 C 4,8 km/h (1 Bft)
23.02.2023 21:36 4,4 C 3,9 C 92 % 1016,9 hPa 0,0 l/m 2,9 km/h (1 Bft) N-NW 333 0 min 0,0 UV-I 0 W/m 3,2 C 4,4 C 6,4 km/h (2 Bft)
23.02.2023 21:39 4,4 C 3,9 C 92 % 1016,9 hPa 0,0 l/m 2,6 km/h (1 Bft) N-NW 329 0 min 0,0 UV-I 0 W/m 3,2 C 4,4 C 8,0 km/h (2 Bft)
23.02.2023 21:42 4,4 C 3,9 C 92 % 1016,9 hPa 0,0 l/m 2,4 km/h (1 Bft) N-NW 330 0 min 0,0 UV-I 0 W/m 3,2 C 4,4 C 6,4 km/h (2 Bft)
23.02.2023 21:45 4,4 C 3,9 C 92 % 1016,7 hPa 0,0 l/m 0,7 km/h (0 Bft) N-NW 329 0 min 0,0 UV-I 0 W/m 3,2 C 4,4 C 4,8 km/h (1 Bft)
23.02.2023 21:48 4,4 C 3,9 C 92 % 1016,7 hPa 0,0 l/m 0,5 km/h (0 Bft) N-NW 329 0 min 0,0 UV-I 0 W/m 3,2 C 4,4 C 3,2 km/h (1 Bft)
23.02.2023 21:51 4,4 C 3,9 C 92 % 1016,7 hPa 0,0 l/m 0,2 km/h (0 Bft) N-NW 330 0 min 0,0 UV-I 0 W/m 3,2 C 4,4 C 1,6 km/h (1 Bft)
23.02.2023 21:54 4,4 C 3,9 C 92 % 1016,8 hPa 0,0 l/m 0,0 km/h (0 Bft) N-NW 329 0 min 0,0 UV-I 0 W/m 3,2 C 4,4 C 0,0 km/h (0 Bft)
23.02.2023 21:57 4,4 C 3,9 C 92 % 1016,8 hPa 0,0 l/m 1,4 km/h (1 Bft) N-NW 329 0 min 0,0 UV-I 0 W/m 3,2 C 4,4 C 4,8 km/h (1 Bft)
23.02.2023 22:00 4,3 C 3,9 C 92 % 1016,8 hPa 0,0 l/m 1,5 km/h (1 Bft) N-NW 329 0 min 0,0 UV-I 0 W/m 3,1 C 4,3 C 4,8 km/h (1 Bft)
23.02.2023 22:03 4,3 C 3,9 C 92 % 1016,7 hPa 0,0 l/m 0,1 km/h (0 Bft) N-NW 329 0 min 0,0 UV-I 0 W/m 3,1 C 4,3 C 1,6 km/h (1 Bft)
23.02.2023 22:06 4,3 C 3,9 C 92 % 1016,8 hPa 0,0 l/m 0,0 km/h (0 Bft) N-NW 329 0 min 0,0 UV-I 0 W/m 3,1 C 4,3 C 0,0 km/h (0 Bft)
23.02.2023 22:09 4,3 C 3,9 C 92 % 1016,7 hPa 0,0 l/m 0,0 km/h (0 Bft) N-NW 329 0 min 0,0 UV-I 0 W/m 3,1 C 4,3 C 0,0 km/h (0 Bft)
23.02.2023 22:12 4,3 C 3,9 C 92 % 1016,6 hPa 0,0 l/m 0,0 km/h (0 Bft) N-NW 329 0 min 0,0 UV-I 0 W/m 3,1 C 4,3 C 0,0 km/h (0 Bft)
23.02.2023 22:15 4,3 C 3,9 C 92 % 1016,7 hPa 0,0 l/m 0,0 km/h (0 Bft) N-NW 329 0 min 0,0 UV-I 0 W/m 3,1 C 4,3 C 0,0 km/h (0 Bft)
23.02.2023 22:18 4,3 C 3,9 C 92 % 1016,6 hPa 0,0 l/m 0,0 km/h (0 Bft) N-NW 329 0 min 0,0 UV-I 0 W/m 3,1 C 4,3 C 0,0 km/h (0 Bft)
23.02.2023 22:21 4,3 C 3,9 C 92 % 1016,7 hPa 0,0 l/m 0,0 km/h (0 Bft) N-NW 329 0 min 0,0 UV-I 0 W/m 3,1 C 4,3 C 0,0 km/h (0 Bft)
23.02.2023 22:24 4,3 C 3,9 C 92 % 1016,6 hPa 0,0 l/m 0,0 km/h (0 Bft) N-NW 329 0 min 0,0 UV-I 0 W/m 3,1 C 4,3 C 0,0 km/h (0 Bft)
23.02.2023 22:27 4,3 C 3,9 C 92 % 1016,8 hPa 0,0 l/m 0,0 km/h (0 Bft) N-NW 329 0 min 0,0 UV-I 0 W/m 3,1 C 4,3 C 0,0 km/h (0 Bft)
23.02.2023 22:30 4,2 C 3,9 C 92 % 1016,7 hPa 0,0 l/m 0,0 km/h (0 Bft) N-NW 329 0 min 0,0 UV-I 0 W/m 3,0 C 4,2 C 0,0 km/h (0 Bft)
23.02.2023 22:33 4,3 C 3,9 C 92 % 1016,7 hPa 0,0 l/m 0,0 km/h (0 Bft) N-NW 329 0 min 0,0 UV-I 0 W/m 3,1 C 4,3 C 0,0 km/h (0 Bft)
23.02.2023 22:36 4,2 C 3,9 C 92 % 1016,7 hPa 0,0 l/m 0,0 km/h (0 Bft) N-NW 329 0 min 0,0 UV-I 0 W/m 3,0 C 4,2 C 0,0 km/h (0 Bft)
23.02.2023 22:39 4,2 C 3,9 C 92 % 1016,7 hPa 0,0 l/m 0,0 km/h (0 Bft) N-NW 329 0 min 0,0 UV-I 0 W/m 3,0 C 4,2 C 0,0 km/h (0 Bft)
23.02.2023 22:42 4,2 C 3,9 C 92 % 1016,6 hPa 0,0 l/m 0,0 km/h (0 Bft) N-NW 329 0 min 0,0 UV-I 0 W/m 3,0 C 4,2 C 0,0 km/h (0 Bft)
23.02.2023 22:45 4,3 C 3,9 C 92 % 1016,7 hPa 0,0 l/m 0,0 km/h (0 Bft) N-NW 329 0 min 0,0 UV-I 0 W/m 3,1 C 4,3 C 0,0 km/h (0 Bft)
23.02.2023 22:48 4,2 C 3,9 C 92 % 1016,7 hPa 0,0 l/m 0,0 km/h (0 Bft) N-NW 329 0 min 0,0 UV-I 0 W/m 3,0 C 4,2 C 0,0 km/h (0 Bft)
23.02.2023 22:51 4,2 C 3,9 C 92 % 1016,7 hPa 0,0 l/m 0,0 km/h (0 Bft) N-NW 329 0 min 0,0 UV-I 0 W/m 3,0 C 4,2 C 0,0 km/h (0 Bft)
23.02.2023 22:54 4,2 C 3,9 C 92 % 1016,7 hPa 0,0 l/m 0,0 km/h (0 Bft) N-NW 329 0 min 0,0 UV-I 0 W/m 3,0 C 4,2 C 0,0 km/h (0 Bft)
23.02.2023 22:57 4,3 C 3,9 C 92 % 1016,7 hPa 0,0 l/m 0,0 km/h (0 Bft) N-NW 329 0 min 0,0 UV-I 0 W/m 3,1 C 4,3 C 0,0 km/h (0 Bft)
23.02.2023 23:00 4,3 C 3,9 C 92 % 1016,6 hPa 0,0 l/m 0,5 km/h (0 Bft) N-NW 328 0 min 0,0 UV-I 0 W/m 3,1 C 4,3 C 4,8 km/h (1 Bft)
23.02.2023 23:03 4,2 C 3,9 C 92 % 1016,6 hPa 0,0 l/m 0,1 km/h (0 Bft) N-NW 328 0 min 0,0 UV-I 0 W/m 3,0 C 4,2 C 1,6 km/h (1 Bft)
23.02.2023 23:06 4,2 C 3,9 C 92 % 1016,6 hPa 0,0 l/m 0,0 km/h (0 Bft) N-NW 328 0 min 0,0 UV-I 0 W/m 3,0 C 4,2 C 1,6 km/h (1 Bft)
23.02.2023 23:09 4,2 C 3,9 C 92 % 1016,6 hPa 0,0 l/m 0,0 km/h (0 Bft) N-NW 328 0 min 0,0 UV-I 0 W/m 3,0 C 4,2 C 0,0 km/h (0 Bft)
23.02.2023 23:12 4,2 C 3,9 C 92 % 1016,5 hPa 0,0 l/m 0,4 km/h (0 Bft) N-NW 329 0 min 0,0 UV-I 0 W/m 3,0 C 4,2 C 3,2 km/h (1 Bft)
23.02.2023 23:15 4,2 C 3,9 C 92 % 1016,5 hPa 0,0 l/m 1,1 km/h (1 Bft) N-NW 329 0 min 0,0 UV-I 0 W/m 3,0 C 4,2 C 3,2 km/h (1 Bft)
23.02.2023 23:18 4,2 C 3,9 C 91 % 1016,4 hPa 0,0 l/m 0,8 km/h (0 Bft) N-NW 329 0 min 0,0 UV-I 0 W/m 2,9 C 4,2 C 3,2 km/h (1 Bft)
23.02.2023 23:21 4,2 C 3,9 C 92 % 1016,3 hPa 0,0 l/m 0,1 km/h (0 Bft) N-NW 329 0 min 0,0 UV-I 0 W/m 3,0 C 4,2 C 1,6 km/h (1 Bft)
23.02.2023 23:24 4,2 C 3,9 C 91 % 1016,4 hPa 0,0 l/m 0,9 km/h (0 Bft) N-NW 329 0 min 0,0 UV-I 0 W/m 2,9 C 4,2 C 3,2 km/h (1 Bft)
23.02.2023 23:27 4,1 C 3,9 C 91 % 1016,4 hPa 0,0 l/m 1,5 km/h (1 Bft) N-NW 328 0 min 0,0 UV-I 0 W/m 2,8 C 4,1 C 4,8 km/h (1 Bft)
23.02.2023 23:30 4,1 C 3,9 C 91 % 1016,4 hPa 0,0 l/m 3,9 km/h (1 Bft) N-NW 331 0 min 0,0 UV-I 0 W/m 2,8 C 4,1 C 8,0 km/h (2 Bft)
23.02.2023 23:33 4,1 C 3,9 C 91 % 1016,4 hPa 0,0 l/m 4,0 km/h (1 Bft) N-NW 327 0 min 0,0 UV-I 0 W/m 2,8 C 4,1 C 6,4 km/h (2 Bft)
23.02.2023 23:37 4,1 C 3,9 C 91 % 1016,3 hPa 0,0 l/m 4,2 km/h (1 Bft) N-NW 327 0 min 0,0 UV-I 0 W/m 2,8 C 4,1 C 8,0 km/h (2 Bft)
23.02.2023 23:39 4,1 C 3,9 C 91 % 1016,3 hPa 0,0 l/m 2,4 km/h (1 Bft) N-NW 327 0 min 0,0 UV-I 0 W/m 2,8 C 4,1 C 4,8 km/h (1 Bft)
23.02.2023 23:42 4,1 C 3,9 C 91 % 1016,3 hPa 0,0 l/m 2,3 km/h (1 Bft) N-NW 327 0 min 0,0 UV-I 0 W/m 2,8 C 4,1 C 4,8 km/h (1 Bft)
23.02.2023 23:45 4,1 C 3,9 C 91 % 1016,2 hPa 0,0 l/m 1,0 km/h (0 Bft) NW 326 0 min 0,0 UV-I 0 W/m 2,8 C 4,1 C 4,8 km/h (1 Bft)
23.02.2023 23:48 4,1 C 3,9 C 91 % 1016,3 hPa 0,0 l/m 3,1 km/h (1 Bft) NW 325 0 min 0,0 UV-I 0 W/m 2,8 C 4,1 C 6,4 km/h (2 Bft)
23.02.2023 23:51 4,1 C 3,9 C 91 % 1016,2 hPa 0,0 l/m 1,7 km/h (1 Bft) NW 321 0 min 0,0 UV-I 0 W/m 2,8 C 4,1 C 6,4 km/h (2 Bft)
23.02.2023 23:54 4,1 C 3,9 C 91 % 1016,2 hPa 0,0 l/m 3,4 km/h (1 Bft) NW 319 0 min 0,0 UV-I 0 W/m 2,8 C 4,1 C 6,4 km/h (2 Bft)
23.02.2023 23:57 4,1 C 3,9 C 91 % 1016,1 hPa 0,0 l/m 4,5 km/h (1 Bft) NW 312 0 min 0,0 UV-I 0 W/m 2,8 C 4,1 C 8,0 km/h (2 Bft)
23.02.2023 23:58 4,1 C 3,9 C 91 % 1016,2 hPa 0,0 l/m 3,2 km/h (1 Bft) NW 315 0 min 0,0 UV-I 0 W/m 2,8 C 4,1 C 6,4 km/h (2 Bft)
23.02.2023 23:59 4,1 C 3,9 C 91 % 1016,1 hPa 0,0 l/m 4,8 km/h (1 Bft) NW 315 0 min 0,0 UV-I 0 W/m 2,8 C 4,1 C 6,4 km/h (2 Bft)
_ Min-Zeit 23:27 21:30 14:42 04:16 - 04:33 - - - - - 23:27 17:18 04:34
Minimum _ 4,1 C 3,9 C 84 % 1013,4 hPa - 0,0 km/h (0 Bft) - - - - - 2,8 C 0,3 C 0,0 km/h (0 Bft)
_ Max-Zeit 12:12 12:09 05:54 21:30 00:31 17:18 - - 12:06 12:09 12:09 12:09 12:12 17:24
Maximum _ 8,3 C 12,2 C 94 % 1016,9 hPa 0,2 l/m 15,7 km/h
N-NW (3 Bft)
- - 3 min 1,4 UV-I 346 W/m 6,2 C 8,2 C 22,5 km/h
N-NW (4 Bft)
Durchschnitt _ 6,1 C 6,1 C 91 % 1015,2 hPa #1,6 l/m 3,4 km/h (1 Bft) S-SW - #6 min. 0,7 UV-I 80 W/m 4,8 C 6,0 C 6,4 km/h (2 Bft)